Time,TemperatureF,DewpointF,PressureIn,WindDirection,WindDirectionDegrees,WindSpeedMPH,WindSpeedGustMPH,Humidity,HourlyPrecipIn,Conditions,Clouds,dailyrainin,SolarRadiationWatts/m^2,SoftwareType,DateUTC
2013-11-08 00:00:00,37.2,30.0,30.75,SE,138,4.0,9.0,75,0.00,,,0.20,0.00,VWS V14.00,2013-11-08 07:00:00,
2013-11-08 00:01:00,37.2,30.0,30.73,South,169,7.0,7.0,75,0.00,,,0.00,0.00,VWS V14.00,2013-11-08 07:01:00,
2013-11-08 00:02:00,37.2,30.0,30.73,SE,146,7.0,9.0,75,0.00,,,0.00,0.00,VWS V14.00,2013-11-08 07:02:00,
2013-11-08 00:03:00,37.2,30.0,30.73,SSE,150,6.0,11.0,75,0.00,,,0.00,0.00,VWS V14.00,2013-11-08 07:03:00,
2013-11-08 00:04:00,37.2,30.4,30.73,SSE,156,8.0,12.0,76,0.00,,,0.00,0.00,VWS V14.00,2013-11-08 07:04:00,
2013-11-08 00:05:00,37.2,30.4,30.73,SSE,163,8.0,12.0,76,0.00,,,0.00,0.00,VWS V14.00,2013-11-08 07:05:00,
2013-11-08 00:06:00,37.3,30.4,30.73,SSE,159,7.0,13.0,76,0.00,,,0.00,0.00,VWS V14.00,2013-11-08 07:06:00,
2013-11-08 00:07:00,37.3,30.4,30.73,SSE,158,10.0,13.0,76,0.00,,,0.00,0.00,VWS V14.00,2013-11-08 07:07:00,
2013-11-08 00:08:00,37.3,30.4,30.73,SSE,160,7.0,13.0,76,0.00,,,0.00,0.00,VWS V14.00,2013-11-08 07:08:00,
2013-11-08 00:09:00,37.4,30.5,30.73,SSE,155,10.0,13.0,76,0.00,,,0.00,0.00,VWS V14.00,2013-11-08 07:09:00,
2013-11-08 00:10:00,37.4,30.9,30.73,SSE,160,12.0,13.0,77,0.00,,,0.00,0.00,VWS V14.00,2013-11-08 07:10:00,
2013-11-08 00:11:00,37.4,30.9,30.73,SSE,149,13.0,16.0,77,0.00,,,0.00,0.00,VWS V14.00,2013-11-08 07:11:00,
2013-11-08 00:12:00,37.5,31.0,30.73,SSE,157,12.0,17.0,77,0.00,,,0.00,0.00,VWS V14.00,2013-11-08 07:12:00,
2013-11-08 00:13:00,37.5,31.0,30.73,SSE,154,10.0,17.0,77,0.00,,,0.00,0.00,VWS V14.00,2013-11-08 07:13:00,
2013-11-08 00:14:00,37.6,31.1,30.73,SSE,161,14.0,17.0,77,0.00,,,0.00,0.00,VWS V14.00,2013-11-08 07:14:00,
2013-11-08 00:15:00,37.6,31.1,30.73,SSE,153,13.0,17.0,77,0.00,,,0.00,0.00,VWS V14.00,2013-11-08 07:15:00,
2013-11-08 00:16:00,37.6,31.1,30.73,SSE,162,10.0,15.0,77,0.00,,,0.00,0.00,VWS V14.00,2013-11-08 07:16:00,
2013-11-08 00:17:00,37.7,31.1,30.73,SSE,165,10.0,15.0,77,0.00,,,0.00,0.00,VWS V14.00,2013-11-08 07:17:00,
2013-11-08 00:18:00,37.7,31.1,30.73,SSE,157,10.0,15.0,77,0.00,,,0.00,0.00,VWS V14.00,2013-11-08 07:18:00,
2013-11-08 00:19:00,37.7,31.1,30.73,SSE,150,14.0,15.0,77,0.00,,,0.00,0.00,VWS V14.00,2013-11-08 07:19:00,
2013-11-08 00:20:00,37.7,31.1,30.73,SSE,152,9.0,15.0,77,0.00,,,0.00,0.00,VWS V14.00,2013-11-08 07:20:00,
2013-11-08 00:21:00,37.7,31.1,30.73,SSE,151,11.0,15.0,77,0.00,,,0.00,0.00,VWS V14.00,2013-11-08 07:21:00,
2013-11-08 00:22:00,37.7,30.8,30.73,SSE,152,12.0,15.0,76,0.00,,,0.00,0.00,VWS V14.00,2013-11-08 07:22:00,
2013-11-08 00:23:00,37.6,30.7,30.73,SSE,149,13.0,16.0,76,0.00,,,0.00,0.00,VWS V14.00,2013-11-08 07:23:00,
2013-11-08 00:24:00,37.6,30.7,30.73,SSE,156,8.0,16.0,76,0.00,,,0.00,0.00,VWS V14.00,2013-11-08 07:24:00,
2013-11-08 00:25:00,37.7,30.5,30.73,SSE,161,14.0,16.0,75,0.00,,,0.00,0.00,VWS V14.00,2013-11-08 07:25:00,
2013-11-08 00:26:00,37.7,30.5,30.73,SSE,148,11.0,16.0,75,0.00,,,0.00,0.00,VWS V14.00,2013-11-08 07:26:00,
2013-11-08 00:27:00,37.8,30.6,30.73,SSE,165,11.0,16.0,75,0.00,,,0.00,0.00,VWS V14.00,2013-11-08 07:27:00,
2013-11-08 00:28:00,37.8,30.6,30.73,South,172,11.0,16.0,75,0.00,,,0.00,0.00,VWS V14.00,2013-11-08 07:28:00,
2013-11-08 00:29:00,37.8,30.6,30.73,SSE,167,12.0,16.0,75,0.00,,,0.00,0.00,VWS V14.00,2013-11-08 07:29:00,
2013-11-08 00:30:00,37.8,30.6,30.73,SSE,163,5.0,16.0,75,0.00,,,0.00,0.00,VWS V14.00,2013-11-08 07:30:00,
2013-11-08 00:31:00,37.8,30.6,30.73,SSE,155,10.0,12.0,75,0.00,,,0.00,0.00,VWS V14.00,2013-11-08 07:31:00,
2013-11-08 00:32:00,37.8,30.6,30.73,SE,145,12.0,15.0,75,0.00,,,0.00,0.00,VWS V14.00,2013-11-08 07:32:00,
2013-11-08 00:33:00,37.9,30.7,30.73,SSE,161,8.0,15.0,75,0.00,,,0.00,0.00,VWS V14.00,2013-11-08 07:33:00,
2013-11-08 00:34:00,37.9,30.7,30.73,SSE,155,12.0,16.0,75,0.00,,,0.00,0.00,VWS V14.00,2013-11-08 07:34:00,
2013-11-08 00:35:00,37.9,30.7,30.73,SSE,157,11.0,16.0,75,0.00,,,0.00,0.00,VWS V14.00,2013-11-08 07:35:00,
2013-11-08 00:36:00,37.9,30.7,30.73,SE,126,11.0,16.0,75,0.00,,,0.00,0.00,VWS V14.00,2013-11-08 07:36:00,
2013-11-08 00:37:00,37.9,30.7,30.73,SSE,161,12.0,16.0,75,0.00,,,0.00,0.00,VWS V14.00,2013-11-08 07:37:00,
2013-11-08 00:38:00,37.9,30.7,30.73,SSE,153,12.0,16.0,75,0.00,,,0.00,0.00,VWS V14.00,2013-11-08 07:38:00,
2013-11-08 00:39:00,37.9,30.7,30.74,SSE,168,12.0,16.0,75,0.00,,,0.00,0.00,VWS V14.00,2013-11-08 07:39:00,
2013-11-08 00:40:00,38.0,30.8,30.74,SSE,153,11.0,16.0,75,0.00,,,0.00,0.00,VWS V14.00,2013-11-08 07:40:00,
2013-11-08 00:41:00,38.0,30.8,30.74,SSE,155,11.0,16.0,75,0.00,,,0.00,0.00,VWS V14.00,2013-11-08 07:41:00,
2013-11-08 00:42:00,38.0,30.5,30.74,SSE,167,11.0,16.0,74,0.00,,,0.00,0.00,VWS V14.00,2013-11-08 07:42:00,
2013-11-08 00:43:00,38.1,30.6,30.74,SE,143,10.0,16.0,74,0.00,,,0.00,0.00,VWS V14.00,2013-11-08 07:43:00,
2013-11-08 00:44:00,38.1,30.6,30.74,SSE,161,9.0,16.0,74,0.00,,,0.00,0.00,VWS V14.00,2013-11-08 07:44:00,
2013-11-08 00:45:00,38.2,30.7,30.74,South,170,13.0,16.0,74,0.00,,,0.00,0.00,VWS V14.00,2013-11-08 07:45:00,
2013-11-08 00:46:00,38.2,30.7,30.74,SSE,157,8.0,13.0,74,0.00,,,0.00,0.00,VWS V14.00,2013-11-08 07:46:00,
2013-11-08 00:47:00,38.2,30.7,30.74,SSE,162,12.0,13.0,74,0.00,,,0.00,0.00,VWS V14.00,2013-11-08 07:47:00,
2013-11-08 00:48:00,38.2,30.7,30.73,SSE,154,12.0,13.0,74,0.00,,,0.00,0.00,VWS V14.00,2013-11-08 07:48:00,
2013-11-08 00:49:00,38.2,30.7,30.73,SSE,168,16.0,17.0,74,0.00,,,0.00,0.00,VWS V14.00,2013-11-08 07:49:00,
2013-11-08 00:50:00,38.2,30.7,30.73,SSE,165,14.0,17.0,74,0.00,,,0.00,0.00,VWS V14.00,2013-11-08 07:50:00,
2013-11-08 00:51:00,38.3,30.8,30.73,SSE,161,12.0,17.0,74,0.00,,,0.00,0.00,VWS V14.00,2013-11-08 07:51:00,
2013-11-08 00:52:00,38.3,30.8,30.73,SSE,156,10.0,17.0,74,0.00,,,0.00,0.00,VWS V14.00,2013-11-08 07:52:00,
2013-11-08 00:53:00,38.3,30.8,30.73,SSE,167,12.0,17.0,74,0.00,,,0.00,0.00,VWS V14.00,2013-11-08 07:53:00,
2013-11-08 00:54:00,38.3,30.8,30.73,SSE,167,11.0,17.0,74,0.00,,,0.00,0.00,VWS V14.00,2013-11-08 07:54:00,
2013-11-08 00:55:00,38.3,30.8,30.73,SSE,157,11.0,17.0,74,0.00,,,0.00,0.00,VWS V14.00,2013-11-08 07:55:00,
2013-11-08 00:56:00,38.4,30.5,30.73,SSE,149,13.0,17.0,73,0.00,,,0.00,0.00,VWS V14.00,2013-11-08 07:56:00,
2013-11-08 00:57:00,38.4,30.5,30.73,South,172,11.0,17.0,73,0.00,,,0.00,0.00,VWS V14.00,2013-11-08 07:57:00,
2013-11-08 00:58:00,38.5,30.6,30.73,SSE,153,10.0,17.0,73,0.00,,,0.00,0.00,VWS V14.00,2013-11-08 07:58:00,
2013-11-08 00:59:00,38.5,30.6,30.73,SSE,165,11.0,17.0,73,0.00,,,0.00,0.00,VWS V14.00,2013-11-08 07:59:00,
2013-11-08 01:00:00,38.5,30.6,30.72,SSE,158,11.0,17.0,73,0.00,,,0.00,0.00,VWS V14.00,2013-11-08 08:00:00,
2013-11-08 01:01:00,38.5,30.6,30.73,SSE,163,9.0,15.0,73,0.00,,,0.00,0.00,VWS V14.00,2013-11-08 08:01:00,
2013-11-08 01:02:00,38.6,30.7,30.73,SSE,157,10.0,15.0,73,0.00,,,0.00,0.00,VWS V14.00,2013-11-08 08:02:00,
2013-11-08 01:03:00,38.6,30.7,30.73,South,171,12.0,15.0,73,0.00,,,0.00,0.00,VWS V14.00,2013-11-08 08:03:00,
2013-11-08 01:04:00,38.5,30.6,30.73,SSE,159,10.0,15.0,73,0.00,,,0.00,0.00,VWS V14.00,2013-11-08 08:04:00,
2013-11-08 01:05:00,38.5,30.6,30.73,SSE,166,7.0,15.0,73,0.00,,,0.00,0.00,VWS V14.00,2013-11-08 08:05:00,
2013-11-08 01:06:00,38.5,30.6,30.74,South,175,12.0,16.0,73,0.00,,,0.00,0.00,VWS V14.00,2013-11-08 08:06:00,
2013-11-08 01:07:00,38.5,30.6,30.74,South,173,10.0,16.0,73,0.00,,,0.00,0.00,VWS V14.00,2013-11-08 08:07:00,
2013-11-08 01:08:00,38.5,30.6,30.74,SSE,160,8.0,16.0,73,0.00,,,0.00,0.00,VWS V14.00,2013-11-08 08:08:00,
2013-11-08 01:09:00,38.5,30.6,30.74,SSE,164,9.0,16.0,73,0.00,,,0.00,0.00,VWS V14.00,2013-11-08 08:09:00,
2013-11-08 01:10:00,38.6,30.7,30.74,South,182,10.0,16.0,73,0.00,,,0.00,0.00,VWS V14.00,2013-11-08 08:10:00,
2013-11-08 01:11:00,38.6,30.7,30.74,SSE,165,10.0,16.0,73,0.00,,,0.00,0.00,VWS V14.00,2013-11-08 08:11:00,
2013-11-08 01:12:00,38.6,30.7,30.74,SSE,163,10.0,16.0,73,0.00,,,0.00,0.00,VWS V14.00,2013-11-08 08:12:00,
2013-11-08 01:13:00,38.6,30.7,30.74,SSE,150,12.0,16.0,73,0.00,,,0.00,0.00,VWS V14.00,2013-11-08 08:13:00,
2013-11-08 01:14:00,38.6,30.7,30.74,SSE,155,12.0,17.0,73,0.00,,,0.00,0.00,VWS V14.00,2013-11-08 08:14:00,
2013-11-08 01:15:00,38.6,30.7,30.74,SE,144,12.0,18.0,73,0.00,,,0.00,0.00,VWS V14.00,2013-11-08 08:15:00,
2013-11-08 01:16:00,38.7,30.8,30.74,SSE,153,10.0,13.0,73,0.00,,,0.00,0.00,VWS V14.00,2013-11-08 08:16:00,
2013-11-08 01:17:00,38.7,30.8,30.74,SSE,147,14.0,16.0,73,0.00,,,0.00,0.00,VWS V14.00,2013-11-08 08:17:00,
2013-11-08 01:18:00,38.8,30.9,30.74,SSE,163,13.0,16.0,73,0.00,,,0.00,0.00,VWS V14.00,2013-11-08 08:18:00,
2013-11-08 01:19:00,38.8,30.6,30.74,SSE,149,10.0,16.0,72,0.00,,,0.00,0.00,VWS V14.00,2013-11-08 08:19:00,
2013-11-08 01:20:00,38.9,31.0,30.74,SSE,161,11.0,16.0,73,0.00,,,0.00,0.00,VWS V14.00,2013-11-08 08:20:00,
2013-11-08 01:21:00,38.9,31.0,30.74,SSE,148,13.0,16.0,73,0.00,,,0.00,0.00,VWS V14.00,2013-11-08 08:21:00,
2013-11-08 01:22:00,38.9,31.0,30.74,SSE,160,18.0,18.0,73,0.00,,,0.00,0.00,VWS V14.00,2013-11-08 08:22:00,
2013-11-08 01:23:00,39.0,30.8,30.74,SSE,148,16.0,18.0,72,0.00,,,0.00,0.00,VWS V14.00,2013-11-08 08:23:00,
2013-11-08 01:24:00,39.0,30.8,30.74,SSE,161,13.0,18.0,72,0.00,,,0.00,0.00,VWS V14.00,2013-11-08 08:24:00,
2013-11-08 01:25:00,39.1,30.9,30.74,SSE,156,12.0,18.0,72,0.00,,,0.00,0.00,VWS V14.00,2013-11-08 08:25:00,
2013-11-08 01:26:00,39.2,31.0,30.75,SSE,164,11.0,18.0,72,0.00,,,0.00,0.00,VWS V14.00,2013-11-08 08:26:00,
2013-11-08 01:27:00,39.2,31.0,30.75,SSE,152,11.0,18.0,72,0.00,,,0.00,0.00,VWS V14.00,2013-11-08 08:27:00,
2013-11-08 01:28:00,39.3,31.0,30.75,SSE,150,10.0,18.0,72,0.00,,,0.00,0.00,VWS V14.00,2013-11-08 08:28:00,
2013-11-08 01:29:00,39.3,31.0,30.75,SSE,157,9.0,18.0,72,0.00,,,0.00,0.00,VWS V14.00,2013-11-08 08:29:00,
2013-11-08 01:30:00,39.3,31.0,30.75,SE,144,11.0,18.0,72,0.00,,,0.00,0.00,VWS V14.00,2013-11-08 08:30:00,
2013-11-08 01:31:00,39.4,31.1,30.75,SSE,157,11.0,12.0,72,0.00,,,0.00,0.00,VWS V14.00,2013-11-08 08:31:00,
2013-11-08 01:32:00,39.3,31.0,30.75,SSE,155,8.0,12.0,72,0.00,,,0.00,0.00,VWS V14.00,2013-11-08 08:32:00,
2013-11-08 01:33:00,39.3,31.0,30.75,SE,142,10.0,12.0,72,0.00,,,0.00,0.00,VWS V14.00,2013-11-08 08:33:00,
2013-11-08 01:34:00,39.3,31.0,30.75,SSE,150,8.0,12.0,72,0.00,,,0.00,0.00,VWS V14.00,2013-11-08 08:34:00,
2013-11-08 01:35:00,39.3,31.0,30.75,SE,142,7.0,12.0,72,0.00,,,0.00,0.00,VWS V14.00,2013-11-08 08:35:00,
2013-11-08 01:36:00,39.4,31.1,30.75,SSE,168,7.0,12.0,72,0.00,,,0.00,0.00,VWS V14.00,2013-11-08 08:36:00,
2013-11-08 01:37:00,39.4,31.1,30.75,SSE,158,11.0,12.0,72,0.00,,,0.00,0.00,VWS V14.00,2013-11-08 08:37:00,
2013-11-08 01:38:00,39.4,30.8,30.75,SE,144,11.0,14.0,71,0.00,,,0.00,0.00,VWS V14.00,2013-11-08 08:38:00,
2013-11-08 01:39:00,39.4,30.8,30.75,SSE,153,11.0,14.0,71,0.00,,,0.00,0.00,VWS V14.00,2013-11-08 08:39:00,
2013-11-08 01:40:00,39.5,30.9,30.75,SE,146,10.0,14.0,71,0.00,,,0.00,0.00,VWS V14.00,2013-11-08 08:40:00,
2013-11-08 01:41:00,39.5,30.9,30.74,SE,132,9.0,14.0,71,0.00,,,0.00,0.00,VWS V14.00,2013-11-08 08:41:00,
2013-11-08 01:42:00,39.5,30.9,30.74,SSE,153,11.0,15.0,71,0.00,,,0.00,0.00,VWS V14.00,2013-11-08 08:42:00,
2013-11-08 01:43:00,39.6,31.0,30.74,SSE,150,6.0,15.0,71,0.00,,,0.00,0.00,VWS V14.00,2013-11-08 08:43:00,
2013-11-08 01:44:00,39.6,31.0,30.74,SSE,154,7.0,15.0,71,0.00,,,0.00,0.00,VWS V14.00,2013-11-08 08:44:00,
2013-11-08 01:45:00,39.6,31.0,30.74,SE,141,9.0,15.0,71,0.00,,,0.00,0.00,VWS V14.00,2013-11-08 08:45:00,
2013-11-08 01:46:00,39.6,31.0,30.74,SSE,148,7.0,12.0,71,0.00,,,0.00,0.00,VWS V14.00,2013-11-08 08:46:00,
2013-11-08 01:47:00,39.6,31.0,30.74,SSE,152,9.0,12.0,71,0.00,,,0.00,0.00,VWS V14.00,2013-11-08 08:47:00,
2013-11-08 01:48:00,39.7,31.1,30.74,SSE,152,9.0,12.0,71,0.00,,,0.00,0.00,VWS V14.00,2013-11-08 08:48:00,
2013-11-08 01:49:00,39.7,31.1,30.74,SSE,148,6.0,12.0,71,0.00,,,0.00,0.00,VWS V14.00,2013-11-08 08:49:00,
2013-11-08 01:50:00,39.7,31.1,30.74,SSE,152,8.0,12.0,71,0.00,,,0.00,0.00,VWS V14.00,2013-11-08 08:50:00,
2013-11-08 01:51:00,39.7,31.1,30.74,SE,144,4.0,12.0,71,0.00,,,0.00,0.00,VWS V14.00,2013-11-08 08:51:00,
2013-11-08 01:52:00,39.7,31.1,30.74,SSE,147,10.0,12.0,71,0.00,,,0.00,0.00,VWS V14.00,2013-11-08 08:52:00,
2013-11-08 01:53:00,39.7,30.7,30.74,SE,144,6.0,12.0,70,0.00,,,0.00,0.00,VWS V14.00,2013-11-08 08:53:00,
2013-11-08 01:54:00,39.7,30.7,30.74,SSE,153,4.0,12.0,70,0.00,,,0.00,0.00,VWS V14.00,2013-11-08 08:54:00,
2013-11-08 01:55:00,39.7,30.7,30.75,SSE,160,7.0,12.0,70,0.00,,,0.00,0.00,VWS V14.00,2013-11-08 08:55:00,
2013-11-08 01:56:00,39.7,31.1,30.75,SSE,149,7.0,12.0,71,0.00,,,0.00,0.00,VWS V14.00,2013-11-08 08:56:00,
2013-11-08 01:57:00,39.7,31.1,30.75,SSE,147,7.0,12.0,71,0.00,,,0.00,0.00,VWS V14.00,2013-11-08 08:57:00,
2013-11-08 01:58:00,39.7,30.7,30.75,SSE,153,9.0,12.0,70,0.00,,,0.00,0.00,VWS V14.00,2013-11-08 08:58:00,
2013-11-08 01:59:00,39.8,30.8,30.75,SSE,157,11.0,12.0,70,0.00,,,0.00,0.00,VWS V14.00,2013-11-08 08:59:00,
2013-11-08 02:00:00,39.8,30.8,30.75,SSE,152,8.0,12.0,70,0.00,,,0.00,0.00,VWS V14.00,2013-11-08 09:00:00,
2013-11-08 02:01:00,39.8,30.8,30.76,SSE,149,9.0,10.0,70,0.00,,,0.00,0.00,VWS V14.00,2013-11-08 09:01:00,
2013-11-08 02:02:00,39.8,30.8,30.76,SSE,152,7.0,10.0,70,0.00,,,0.00,0.00,VWS V14.00,2013-11-08 09:02:00,
2013-11-08 02:03:00,39.8,30.8,30.76,SE,142,7.0,10.0,70,0.00,,,0.00,0.00,VWS V14.00,2013-11-08 09:03:00,
2013-11-08 02:04:00,39.9,30.9,30.76,SE,144,7.0,12.0,70,0.00,,,0.00,0.00,VWS V14.00,2013-11-08 09:04:00,
2013-11-08 02:05:00,39.9,30.6,30.76,SSE,152,10.0,12.0,69,0.00,,,0.00,0.00,VWS V14.00,2013-11-08 09:05:00,
2013-11-08 02:06:00,39.9,30.6,30.75,SSE,162,11.0,14.0,69,0.00,,,0.00,0.00,VWS V14.00,2013-11-08 09:06:00,
2013-11-08 02:07:00,40.0,30.7,30.75,SE,142,9.0,14.0,69,0.00,,,0.00,0.00,VWS V14.00,2013-11-08 09:07:00,
2013-11-08 02:08:00,40.0,30.7,30.76,SSE,150,6.0,14.0,69,0.00,,,0.00,0.00,VWS V14.00,2013-11-08 09:08:00,
2013-11-08 02:09:00,40.0,30.7,30.76,SSE,161,10.0,14.0,69,0.00,,,0.00,0.00,VWS V14.00,2013-11-08 09:09:00,
2013-11-08 02:10:00,40.1,30.8,30.76,SSE,159,7.0,14.0,69,0.00,,,0.00,0.00,VWS V14.00,2013-11-08 09:10:00,
2013-11-08 02:11:00,40.1,30.8,30.75,SSE,157,8.0,14.0,69,0.00,,,0.00,0.00,VWS V14.00,2013-11-08 09:11:00,
2013-11-08 02:12:00,40.2,30.9,30.75,SSE,147,7.0,14.0,69,0.00,,,0.00,0.00,VWS V14.00,2013-11-08 09:12:00,
2013-11-08 02:13:00,40.2,30.9,30.75,SSE,160,7.0,14.0,69,0.00,,,0.00,0.00,VWS V14.00,2013-11-08 09:13:00,
2013-11-08 02:14:00,40.2,30.9,30.75,SSE,164,6.0,14.0,69,0.00,,,0.00,0.00,VWS V14.00,2013-11-08 09:14:00,
2013-11-08 02:15:00,40.3,31.0,30.75,SE,141,7.0,14.0,69,0.00,,,0.00,0.00,VWS V14.00,2013-11-08 09:15:00,
2013-11-08 02:16:00,40.3,30.6,30.75,SSE,151,10.0,12.0,68,0.00,,,0.00,0.00,VWS V14.00,2013-11-08 09:16:00,
2013-11-08 02:17:00,40.4,30.7,30.75,SSE,158,8.0,12.0,68,0.00,,,0.00,0.00,VWS V14.00,2013-11-08 09:17:00,
2013-11-08 02:18:00,40.4,30.7,30.75,SSE,163,6.0,12.0,68,0.00,,,0.00,0.00,VWS V14.00,2013-11-08 09:18:00,
2013-11-08 02:19:00,40.4,30.7,30.75,SSE,150,9.0,12.0,68,0.00,,,0.00,0.00,VWS V14.00,2013-11-08 09:19:00,
2013-11-08 02:20:00,40.4,30.7,30.75,SSE,167,6.0,12.0,68,0.00,,,0.00,0.00,VWS V14.00,2013-11-08 09:20:00,
2013-11-08 02:21:00,40.4,30.7,30.75,SSE,167,6.0,12.0,68,0.00,,,0.00,0.00,VWS V14.00,2013-11-08 09:21:00,
2013-11-08 02:22:00,40.4,30.7,30.75,SSE,166,7.0,12.0,68,0.00,,,0.00,0.00,VWS V14.00,2013-11-08 09:22:00,
2013-11-08 02:23:00,40.5,30.8,30.76,SSE,160,10.0,12.0,68,0.00,,,0.00,0.00,VWS V14.00,2013-11-08 09:23:00,
2013-11-08 02:24:00,40.5,30.4,30.76,SSE,165,9.0,12.0,67,0.00,,,0.00,0.00,VWS V14.00,2013-11-08 09:24:00,
2013-11-08 02:25:00,40.5,30.4,30.76,SSE,165,9.0,12.0,67,0.00,,,0.00,0.00,VWS V14.00,2013-11-08 09:25:00,
2013-11-08 02:26:00,40.5,30.8,30.76,South,171,9.0,13.0,68,0.00,,,0.00,0.00,VWS V14.00,2013-11-08 09:26:00,
2013-11-08 02:27:00,40.6,30.5,30.76,SSE,159,5.0,13.0,67,0.00,,,0.00,0.00,VWS V14.00,2013-11-08 09:27:00,
2013-11-08 02:28:00,40.6,30.9,30.76,SSE,159,11.0,13.0,68,0.00,,,0.00,0.00,VWS V14.00,2013-11-08 09:28:00,
2013-11-08 02:29:00,40.6,30.9,30.76,SSE,161,7.0,13.0,68,0.00,,,0.00,0.00,VWS V14.00,2013-11-08 09:29:00,
2013-11-08 02:30:00,40.6,30.9,30.76,SSE,157,7.0,13.0,68,0.00,,,0.00,0.00,VWS V14.00,2013-11-08 09:30:00,
2013-11-08 02:31:00,40.6,30.9,30.76,SSE,161,6.0,7.0,68,0.00,,,0.00,0.00,VWS V14.00,2013-11-08 09:31:00,
2013-11-08 02:32:00,40.6,30.9,30.76,SSE,157,11.0,11.0,68,0.00,,,0.00,0.00,VWS V14.00,2013-11-08 09:32:00,
2013-11-08 02:33:00,40.6,30.9,30.76,SSE,155,9.0,11.0,68,0.00,,,0.00,0.00,VWS V14.00,2013-11-08 09:33:00,
2013-11-08 02:34:00,40.6,30.9,30.76,SSE,157,7.0,11.0,68,0.00,,,0.00,0.00,VWS V14.00,2013-11-08 09:34:00,
2013-11-08 02:35:00,40.6,30.9,30.76,SSE,159,10.0,13.0,68,0.00,,,0.00,0.00,VWS V14.00,2013-11-08 09:35:00,
2013-11-08 02:36:00,40.6,30.9,30.76,SSE,164,6.0,13.0,68,0.00,,,0.00,0.00,VWS V14.00,2013-11-08 09:36:00,
2013-11-08 02:37:00,40.6,30.9,30.76,South,169,10.0,13.0,68,0.00,,,0.00,0.00,VWS V14.00,2013-11-08 09:37:00,
2013-11-08 02:38:00,40.6,30.9,30.76,SSE,168,10.0,14.0,68,0.00,,,0.00,0.00,VWS V14.00,2013-11-08 09:38:00,
2013-11-08 02:39:00,40.6,30.9,30.76,SSE,162,6.0,14.0,68,0.00,,,0.00,0.00,VWS V14.00,2013-11-08 09:39:00,
2013-11-08 02:40:00,40.6,30.9,30.76,SSE,163,7.0,14.0,68,0.00,,,0.00,0.00,VWS V14.00,2013-11-08 09:40:00,
2013-11-08 02:41:00,40.6,30.9,30.76,SSE,156,12.0,14.0,68,0.00,,,0.00,0.00,VWS V14.00,2013-11-08 09:41:00,
2013-11-08 02:42:00,40.6,30.5,30.76,SSE,155,9.0,14.0,67,0.00,,,0.00,0.00,VWS V14.00,2013-11-08 09:42:00,
2013-11-08 02:43:00,40.6,30.5,30.76,SSE,161,6.0,14.0,67,0.00,,,0.00,0.00,VWS V14.00,2013-11-08 09:43:00,
2013-11-08 02:44:00,40.7,31.0,30.76,SSE,161,6.0,14.0,68,0.00,,,0.00,0.00,VWS V14.00,2013-11-08 09:44:00,
2013-11-08 02:45:00,40.6,30.9,30.76,SSE,160,5.0,14.0,68,0.00,,,0.00,0.00,VWS V14.00,2013-11-08 09:45:00,
2013-11-08 02:46:00,40.6,30.9,30.76,SSE,162,6.0,7.0,68,0.00,,,0.00,0.00,VWS V14.00,2013-11-08 09:46:00,
2013-11-08 02:47:00,40.6,30.9,30.76,South,170,6.0,7.0,68,0.00,,,0.00,0.00,VWS V14.00,2013-11-08 09:47:00,
2013-11-08 02:48:00,40.6,30.9,30.76,SSE,158,9.0,11.0,68,0.00,,,0.00,0.00,VWS V14.00,2013-11-08 09:48:00,
2013-11-08 02:49:00,40.6,30.9,30.76,SSE,163,5.0,11.0,68,0.00,,,0.00,0.00,VWS V14.00,2013-11-08 09:49:00,
2013-11-08 02:50:00,40.6,30.9,30.76,SSE,163,6.0,11.0,68,0.00,,,0.00,0.00,VWS V14.00,2013-11-08 09:50:00,
2013-11-08 02:51:00,40.6,30.9,30.76,SSE,163,4.0,11.0,68,0.00,,,0.00,0.00,VWS V14.00,2013-11-08 09:51:00,
2013-11-08 02:52:00,40.6,31.2,30.76,SSE,163,6.0,11.0,69,0.00,,,0.00,0.00,VWS V14.00,2013-11-08 09:52:00,
2013-11-08 02:53:00,40.6,31.2,30.76,SSE,165,4.0,11.0,69,0.00,,,0.00,0.00,VWS V14.00,2013-11-08 09:53:00,
2013-11-08 02:54:00,40.5,31.1,30.76,SSE,166,6.0,11.0,69,0.00,,,0.00,0.00,VWS V14.00,2013-11-08 09:54:00,
2013-11-08 02:55:00,40.5,31.1,30.76,SSE,165,3.0,11.0,69,0.00,,,0.00,0.00,VWS V14.00,2013-11-08 09:55:00,
2013-11-08 02:56:00,40.5,31.1,30.76,SSE,165,5.0,11.0,69,0.00,,,0.00,0.00,VWS V14.00,2013-11-08 09:56:00,
2013-11-08 02:57:00,40.5,31.1,30.76,SSE,165,2.0,11.0,69,0.00,,,0.00,0.00,VWS V14.00,2013-11-08 09:57:00,
2013-11-08 02:58:00,40.5,31.1,30.76,SSE,166,5.0,11.0,69,0.00,,,0.00,0.00,VWS V14.00,2013-11-08 09:58:00,
2013-11-08 02:59:00,40.4,31.0,30.76,SSE,166,5.0,11.0,69,0.00,,,0.00,0.00,VWS V14.00,2013-11-08 09:59:00,
2013-11-08 03:00:00,40.4,31.4,30.76,South,175,2.0,11.0,70,0.00,,,0.00,0.00,VWS V14.00,2013-11-08 10:00:00,
2013-11-08 03:01:00,40.4,31.4,30.77,South,175,4.0,4.0,70,0.00,,,0.00,0.00,VWS V14.00,2013-11-08 10:01:00,
2013-11-08 03:02:00,40.4,31.4,30.77,South,175,4.0,5.0,70,0.00,,,0.00,0.00,VWS V14.00,2013-11-08 10:02:00,
2013-11-08 03:03:00,40.4,31.4,30.77,South,170,4.0,9.0,70,0.00,,,0.00,0.00,VWS V14.00,2013-11-08 10:03:00,
2013-11-08 03:04:00,40.3,31.3,30.77,SSE,151,8.0,9.0,70,0.00,,,0.00,0.00,VWS V14.00,2013-11-08 10:04:00,
2013-11-08 03:05:00,40.3,31.3,30.77,SSE,157,11.0,11.0,70,0.00,,,0.00,0.00,VWS V14.00,2013-11-08 10:05:00,
2013-11-08 03:06:00,40.3,31.3,30.77,SSE,167,7.0,11.0,70,0.00,,,0.00,0.00,VWS V14.00,2013-11-08 10:06:00,
2013-11-08 03:07:00,40.3,31.3,30.77,SSE,157,7.0,11.0,70,0.00,,,0.00,0.00,VWS V14.00,2013-11-08 10:07:00,
2013-11-08 03:08:00,40.2,31.2,30.77,SSE,157,11.0,11.0,70,0.00,,,0.00,0.00,VWS V14.00,2013-11-08 10:08:00,
2013-11-08 03:09:00,40.2,31.2,30.77,SSE,167,6.0,11.0,70,0.00,,,0.00,0.00,VWS V14.00,2013-11-08 10:09:00,
2013-11-08 03:10:00,40.2,31.2,30.77,SSE,167,4.0,11.0,70,0.00,,,0.00,0.00,VWS V14.00,2013-11-08 10:10:00,
2013-11-08 03:11:00,40.2,31.2,30.77,SSE,161,6.0,11.0,70,0.00,,,0.00,0.00,VWS V14.00,2013-11-08 10:11:00,
2013-11-08 03:12:00,40.2,31.6,30.77,SSE,160,7.0,11.0,71,0.00,,,0.00,0.00,VWS V14.00,2013-11-08 10:12:00,
2013-11-08 03:13:00,40.2,31.6,30.77,SSE,165,7.0,11.0,71,0.00,,,0.00,0.00,VWS V14.00,2013-11-08 10:13:00,
2013-11-08 03:14:00,40.2,31.2,30.77,SSE,164,7.0,11.0,70,0.00,,,0.00,0.00,VWS V14.00,2013-11-08 10:14:00,
2013-11-08 03:15:00,40.2,31.6,30.77,SSE,164,6.0,11.0,71,0.00,,,0.00,0.00,VWS V14.00,2013-11-08 10:15:00,
2013-11-08 03:16:00,40.1,31.1,30.77,SSE,164,5.0,7.0,70,0.00,,,0.00,0.00,VWS V14.00,2013-11-08 10:16:00,
2013-11-08 03:17:00,40.1,31.1,30.77,South,169,5.0,10.0,70,0.00,,,0.00,0.00,VWS V14.00,2013-11-08 10:17:00,
2013-11-08 03:18:00,40.1,31.1,30.77,SSE,168,6.0,10.0,70,0.00,,,0.00,0.00,VWS V14.00,2013-11-08 10:18:00,
2013-11-08 03:19:00,40.1,31.5,30.77,SSE,159,7.0,10.0,71,0.00,,,0.00,0.00,VWS V14.00,2013-11-08 10:19:00,
2013-11-08 03:20:00,40.1,31.5,30.77,SSE,155,6.0,10.0,71,0.00,,,0.00,0.00,VWS V14.00,2013-11-08 10:20:00,
2013-11-08 03:21:00,40.1,31.5,30.77,SSE,153,5.0,10.0,71,0.00,,,0.00,0.00,VWS V14.00,2013-11-08 10:21:00,
2013-11-08 03:22:00,40.1,31.5,30.77,SE,144,9.0,10.0,71,0.00,,,0.00,0.00,VWS V14.00,2013-11-08 10:22:00,
2013-11-08 03:23:00,40.1,31.5,30.77,SSE,157,6.0,10.0,71,0.00,,,0.00,0.00,VWS V14.00,2013-11-08 10:23:00,
2013-11-08 03:24:00,40.1,31.5,30.77,SSE,157,7.0,10.0,71,0.00,,,0.00,0.00,VWS V14.00,2013-11-08 10:24:00,
2013-11-08 03:25:00,40.1,31.5,30.77,SSE,159,5.0,11.0,71,0.00,,,0.00,0.00,VWS V14.00,2013-11-08 10:25:00,
2013-11-08 03:26:00,40.1,31.5,30.78,SSE,165,5.0,11.0,71,0.00,,,0.00,0.00,VWS V14.00,2013-11-08 10:26:00,
2013-11-08 03:27:00,40.1,31.5,30.78,SSE,163,6.0,11.0,71,0.00,,,0.00,0.00,VWS V14.00,2013-11-08 10:27:00,
2013-11-08 03:28:00,40.1,31.5,30.78,SSE,163,6.0,11.0,71,0.00,,,0.00,0.00,VWS V14.00,2013-11-08 10:28:00,
2013-11-08 03:29:00,40.1,31.5,30.77,SSE,163,7.0,11.0,71,0.00,,,0.00,0.00,VWS V14.00,2013-11-08 10:29:00,
2013-11-08 03:30:00,40.0,31.4,30.77,SSE,163,7.0,11.0,71,0.00,,,0.00,0.00,VWS V14.00,2013-11-08 10:30:00,
2013-11-08 03:31:00,40.0,31.4,30.77,SSE,163,5.0,7.0,71,0.00,,,0.00,0.00,VWS V14.00,2013-11-08 10:31:00,
2013-11-08 03:32:00,40.0,31.4,30.77,SSE,155,8.0,11.0,71,0.00,,,0.00,0.00,VWS V14.00,2013-11-08 10:32:00,
2013-11-08 03:33:00,40.0,31.4,30.78,South,176,4.0,11.0,71,0.00,,,0.00,0.00,VWS V14.00,2013-11-08 10:33:00,
2013-11-08 03:34:00,40.0,31.4,30.77,SSE,167,6.0,11.0,71,0.00,,,0.00,0.00,VWS V14.00,2013-11-08 10:34:00,
2013-11-08 03:35:00,40.0,31.4,30.77,SSE,167,3.0,11.0,71,0.00,,,0.00,0.00,VWS V14.00,2013-11-08 10:35:00,
2013-11-08 03:36:00,40.0,31.4,30.77,SSW,196,6.0,11.0,71,0.00,,,0.00,0.00,VWS V14.00,2013-11-08 10:36:00,
2013-11-08 03:37:00,40.0,31.4,30.78,SSE,167,11.0,11.0,71,0.00,,,0.00,0.00,VWS V14.00,2013-11-08 10:37:00,
2013-11-08 03:38:00,40.0,31.4,30.78,South,178,5.0,11.0,71,0.00,,,0.00,0.00,VWS V14.00,2013-11-08 10:38:00,
2013-11-08 03:39:00,40.1,31.1,30.78,SSE,162,7.0,11.0,70,0.00,,,0.00,0.00,VWS V14.00,2013-11-08 10:39:00,
2013-11-08 03:40:00,40.1,31.5,30.78,SSE,163,6.0,11.0,71,0.00,,,0.00,0.00,VWS V14.00,2013-11-08 10:40:00,
2013-11-08 03:41:00,40.1,31.1,30.77,SSE,164,6.0,11.0,70,0.00,,,0.00,0.00,VWS V14.00,2013-11-08 10:41:00,
2013-11-08 03:42:00,40.1,31.5,30.77,SSE,158,10.0,12.0,71,0.00,,,0.00,0.00,VWS V14.00,2013-11-08 10:42:00,
2013-11-08 03:43:00,40.1,31.1,30.77,SSE,163,5.0,12.0,70,0.00,,,0.00,0.00,VWS V14.00,2013-11-08 10:43:00,
2013-11-08 03:44:00,40.2,31.2,30.77,SSE,161,10.0,12.0,70,0.00,,,0.00,0.00,VWS V14.00,2013-11-08 10:44:00,
2013-11-08 03:45:00,40.2,31.2,30.78,SSE,149,7.0,12.0,70,0.00,,,0.00,0.00,VWS V14.00,2013-11-08 10:45:00,
2013-11-08 03:46:00,40.2,31.2,30.78,SSE,150,6.0,13.0,70,0.00,,,0.00,0.00,VWS V14.00,2013-11-08 10:46:00,
2013-11-08 03:47:00,40.2,31.6,30.78,SSE,160,6.0,13.0,71,0.00,,,0.00,0.00,VWS V14.00,2013-11-08 10:47:00,
2013-11-08 03:48:00,40.2,31.2,30.78,SSE,147,10.0,13.0,70,0.00,,,0.00,0.00,VWS V14.00,2013-11-08 10:48:00,
2013-11-08 03:49:00,40.2,31.2,30.78,SSE,160,6.0,13.0,70,0.00,,,0.00,0.00,VWS V14.00,2013-11-08 10:49:00,
2013-11-08 03:50:00,40.2,31.2,30.78,South,170,5.0,13.0,70,0.00,,,0.00,0.00,VWS V14.00,2013-11-08 10:50:00,
2013-11-08 03:51:00,40.2,31.6,30.78,SSE,148,6.0,13.0,71,0.00,,,0.00,0.00,VWS V14.00,2013-11-08 10:51:00,
2013-11-08 03:52:00,40.2,31.2,30.78,South,175,11.0,13.0,70,0.00,,,0.00,0.00,VWS V14.00,2013-11-08 10:52:00,
2013-11-08 03:53:00,40.2,31.2,30.78,SSE,163,6.0,13.0,70,0.00,,,0.00,0.00,VWS V14.00,2013-11-08 10:53:00,
2013-11-08 03:54:00,40.2,31.2,30.78,SSE,163,6.0,13.0,70,0.00,,,0.00,0.00,VWS V14.00,2013-11-08 10:54:00,
2013-11-08 03:55:00,40.2,31.2,30.78,SSE,165,4.0,13.0,70,0.00,,,0.00,0.00,VWS V14.00,2013-11-08 10:55:00,
2013-11-08 03:56:00,40.2,31.2,30.78,SSE,164,3.0,13.0,70,0.00,,,0.00,0.00,VWS V14.00,2013-11-08 10:56:00,
2013-11-08 03:57:00,40.2,31.2,30.78,SSE,164,5.0,13.0,70,0.00,,,0.00,0.00,VWS V14.00,2013-11-08 10:57:00,
2013-11-08 03:58:00,40.2,31.2,30.78,SSE,165,5.0,13.0,70,0.00,,,0.00,0.00,VWS V14.00,2013-11-08 10:58:00,
2013-11-08 03:59:00,40.2,30.9,30.78,South,172,4.0,13.0,69,0.00,,,0.00,0.00,VWS V14.00,2013-11-08 10:59:00,
2013-11-08 04:00:00,40.2,30.9,30.78,SSE,165,9.0,13.0,69,0.00,,,0.00,0.00,VWS V14.00,2013-11-08 11:00:00,
2013-11-08 04:01:00,40.3,31.0,30.80,SSE,167,5.0,7.0,69,0.00,,,0.00,0.00,VWS V14.00,2013-11-08 11:01:00,
2013-11-08 04:02:00,40.3,31.0,30.80,SSE,159,11.0,13.0,69,0.00,,,0.00,0.00,VWS V14.00,2013-11-08 11:02:00,
2013-11-08 04:03:00,40.3,31.0,30.80,SSE,165,10.0,14.0,69,0.00,,,0.00,0.00,VWS V14.00,2013-11-08 11:03:00,
2013-11-08 04:04:00,40.4,31.0,30.80,SSE,163,5.0,14.0,69,0.00,,,0.00,0.00,VWS V14.00,2013-11-08 11:04:00,
2013-11-08 04:05:00,40.4,31.0,30.80,South,169,11.0,14.0,69,0.00,,,0.00,0.00,VWS V14.00,2013-11-08 11:05:00,
2013-11-08 04:06:00,40.5,31.1,30.80,SSE,163,7.0,14.0,69,0.00,,,0.00,0.00,VWS V14.00,2013-11-08 11:06:00,
2013-11-08 04:07:00,40.5,31.1,30.79,SSE,163,10.0,14.0,69,0.00,,,0.00,0.00,VWS V14.00,2013-11-08 11:07:00,
2013-11-08 04:08:00,40.6,31.2,30.79,South,171,9.0,14.0,69,0.00,,,0.00,0.00,VWS V14.00,2013-11-08 11:08:00,
2013-11-08 04:09:00,40.6,31.2,30.79,SSE,163,9.0,14.0,69,0.00,,,0.00,0.00,VWS V14.00,2013-11-08 11:09:00,
2013-11-08 04:10:00,40.6,31.2,30.79,SSE,150,13.0,14.0,69,0.00,,,0.00,0.00,VWS V14.00,2013-11-08 11:10:00,
2013-11-08 04:11:00,40.6,31.2,30.79,SSE,164,12.0,15.0,69,0.00,,,0.00,0.00,VWS V14.00,2013-11-08 11:11:00,
2013-11-08 04:12:00,40.6,31.6,30.79,SSE,148,14.0,15.0,70,0.00,,,0.00,0.00,VWS V14.00,2013-11-08 11:12:00,
2013-11-08 04:13:00,40.6,31.2,30.79,SSE,149,10.0,15.0,69,0.00,,,0.00,0.00,VWS V14.00,2013-11-08 11:13:00,
2013-11-08 04:14:00,40.6,31.6,30.79,South,174,11.0,15.0,70,0.00,,,0.00,0.00,VWS V14.00,2013-11-08 11:14:00,
2013-11-08 04:15:00,40.7,31.3,30.79,SSE,158,12.0,15.0,69,0.00,,,0.00,0.00,VWS V14.00,2013-11-08 11:15:00,
2013-11-08 04:16:00,40.7,31.3,30.79,South,173,10.0,13.0,69,0.00,,,0.00,0.00,VWS V14.00,2013-11-08 11:16:00,
2013-11-08 04:17:00,40.7,31.3,30.79,South,170,10.0,14.0,69,0.00,,,0.00,0.00,VWS V14.00,2013-11-08 11:17:00,
2013-11-08 04:18:00,40.7,31.3,30.79,SSE,167,10.0,14.0,69,0.00,,,0.00,0.00,VWS V14.00,2013-11-08 11:18:00,
2013-11-08 04:19:00,40.7,31.7,30.79,SSE,156,6.0,14.0,70,0.00,,,0.00,0.00,VWS V14.00,2013-11-08 11:19:00,
2013-11-08 04:20:00,40.7,31.7,30.79,SSE,165,11.0,15.0,70,0.00,,,0.00,0.00,VWS V14.00,2013-11-08 11:20:00,
2013-11-08 04:21:00,40.7,31.7,30.79,SSE,158,12.0,15.0,70,0.00,,,0.00,0.00,VWS V14.00,2013-11-08 11:21:00,
2013-11-08 04:22:00,40.7,31.7,30.79,SSE,160,11.0,16.0,70,0.00,,,0.00,0.00,VWS V14.00,2013-11-08 11:22:00,
2013-11-08 04:23:00,40.7,31.7,30.79,SSE,155,12.0,16.0,70,0.00,,,0.00,0.00,VWS V14.00,2013-11-08 11:23:00,
2013-11-08 04:24:00,40.7,31.3,30.79,SSE,159,9.0,16.0,69,0.00,,,0.00,0.00,VWS V14.00,2013-11-08 11:24:00,
2013-11-08 04:25:00,40.7,31.7,30.80,SSE,155,9.0,16.0,70,0.00,,,0.00,0.00,VWS V14.00,2013-11-08 11:25:00,
2013-11-08 04:26:00,40.7,31.7,30.79,South,176,6.0,16.0,70,0.00,,,0.00,0.00,VWS V14.00,2013-11-08 11:26:00,
2013-11-08 04:27:00,40.7,31.7,30.80,SSE,161,7.0,16.0,70,0.00,,,0.00,0.00,VWS V14.00,2013-11-08 11:27:00,
2013-11-08 04:28:00,40.7,31.7,30.80,SSE,159,10.0,16.0,70,0.00,,,0.00,0.00,VWS V14.00,2013-11-08 11:28:00,
2013-11-08 04:29:00,40.7,32.0,30.80,SSE,155,9.0,16.0,71,0.00,,,0.00,0.00,VWS V14.00,2013-11-08 11:29:00,
2013-11-08 04:30:00,40.6,31.6,30.80,SSE,165,5.0,16.0,70,0.00,,,0.00,0.00,VWS V14.00,2013-11-08 11:30:00,
2013-11-08 04:31:00,40.6,31.6,30.80,SSE,155,10.0,11.0,70,0.00,,,0.00,0.00,VWS V14.00,2013-11-08 11:31:00,
2013-11-08 04:32:00,40.6,31.6,30.80,SSE,164,5.0,11.0,70,0.00,,,0.00,0.00,VWS V14.00,2013-11-08 11:32:00,
2013-11-08 04:33:00,40.6,31.6,30.80,South,172,11.0,11.0,70,0.00,,,0.00,0.00,VWS V14.00,2013-11-08 11:33:00,
2013-11-08 04:34:00,40.6,31.6,30.80,SSE,159,11.0,12.0,70,0.00,,,0.00,0.00,VWS V14.00,2013-11-08 11:34:00,
2013-11-08 04:35:00,40.6,31.2,30.80,SSE,159,10.0,12.0,69,0.00,,,0.00,0.00,VWS V14.00,2013-11-08 11:35:00,
2013-11-08 04:36:00,40.6,31.2,30.80,SSE,159,10.0,12.0,69,0.00,,,0.00,0.00,VWS V14.00,2013-11-08 11:36:00,
2013-11-08 04:37:00,40.7,31.3,30.80,SSE,151,12.0,12.0,69,0.00,,,0.00,0.00,VWS V14.00,2013-11-08 11:37:00,
2013-11-08 04:38:00,40.7,31.3,30.80,SSE,157,12.0,15.0,69,0.00,,,0.00,0.00,VWS V14.00,2013-11-08 11:38:00,
2013-11-08 04:39:00,40.7,31.7,30.80,SSE,168,9.0,15.0,70,0.00,,,0.00,0.00,VWS V14.00,2013-11-08 11:39:00,
2013-11-08 04:40:00,40.7,31.7,30.80,SSE,157,10.0,15.0,70,0.00,,,0.00,0.00,VWS V14.00,2013-11-08 11:40:00,
2013-11-08 04:41:00,40.7,31.7,30.80,SSE,167,6.0,15.0,70,0.00,,,0.00,0.00,VWS V14.00,2013-11-08 11:41:00,
2013-11-08 04:42:00,40.7,31.7,30.80,SSE,162,9.0,15.0,70,0.00,,,0.00,0.00,VWS V14.00,2013-11-08 11:42:00,
2013-11-08 04:43:00,40.7,31.7,30.80,SSE,158,9.0,15.0,70,0.00,,,0.00,0.00,VWS V14.00,2013-11-08 11:43:00,
2013-11-08 04:44:00,40.7,31.7,30.80,SSE,150,11.0,15.0,70,0.00,,,0.00,0.00,VWS V14.00,2013-11-08 11:44:00,
2013-11-08 04:45:00,40.7,31.7,30.80,SSE,155,11.0,15.0,70,0.00,,,0.00,0.00,VWS V14.00,2013-11-08 11:45:00,
2013-11-08 04:46:00,40.7,31.3,30.80,SSE,157,9.0,14.0,69,0.00,,,0.00,0.00,VWS V14.00,2013-11-08 11:46:00,
2013-11-08 04:47:00,40.7,31.7,30.80,SSE,153,7.0,14.0,70,0.00,,,0.00,0.00,VWS V14.00,2013-11-08 11:47:00,
2013-11-08 04:48:00,40.7,31.7,30.80,SE,141,10.0,14.0,70,0.00,,,0.00,0.00,VWS V14.00,2013-11-08 11:48:00,
2013-11-08 04:49:00,40.7,31.7,30.80,SSE,157,11.0,15.0,70,0.00,,,0.00,0.00,VWS V14.00,2013-11-08 11:49:00,
2013-11-08 04:50:00,40.7,31.7,30.81,SSE,159,7.0,15.0,70,0.00,,,0.00,0.00,VWS V14.00,2013-11-08 11:50:00,
2013-11-08 04:51:00,40.7,31.7,30.81,SSE,159,13.0,15.0,70,0.00,,,0.00,0.00,VWS V14.00,2013-11-08 11:51:00,
2013-11-08 04:52:00,40.7,31.7,30.81,SSE,163,7.0,15.0,70,0.00,,,0.00,0.00,VWS V14.00,2013-11-08 11:52:00,
2013-11-08 04:53:00,40.7,31.7,30.81,SSE,159,7.0,15.0,70,0.00,,,0.00,0.00,VWS V14.00,2013-11-08 11:53:00,
2013-11-08 04:54:00,40.7,31.7,30.81,SSE,161,8.0,15.0,70,0.00,,,0.00,0.00,VWS V14.00,2013-11-08 11:54:00,
2013-11-08 04:55:00,40.7,31.7,30.81,SSE,153,6.0,15.0,70,0.00,,,0.00,0.00,VWS V14.00,2013-11-08 11:55:00,
2013-11-08 04:56:00,40.6,31.6,30.81,SSE,155,7.0,15.0,70,0.00,,,0.00,0.00,VWS V14.00,2013-11-08 11:56:00,
2013-11-08 04:57:00,40.6,31.6,30.81,SSE,159,6.0,15.0,70,0.00,,,0.00,0.00,VWS V14.00,2013-11-08 11:57:00,
2013-11-08 04:58:00,40.6,31.6,30.81,SSE,155,10.0,15.0,70,0.00,,,0.00,0.00,VWS V14.00,2013-11-08 11:58:00,
2013-11-08 04:59:00,40.6,31.6,30.81,SSE,156,6.0,15.0,70,0.00,,,0.00,0.00,VWS V14.00,2013-11-08 11:59:00,
2013-11-08 05:00:00,40.6,32.0,30.81,SSE,161,5.0,15.0,71,0.00,,,0.00,0.00,VWS V14.00,2013-11-08 12:00:00,
2013-11-08 05:01:00,40.6,32.0,30.81,SSE,157,7.0,8.0,71,0.00,,,0.00,0.00,VWS V14.00,2013-11-08 12:01:00,
2013-11-08 05:02:00,40.6,32.0,30.81,SSE,152,6.0,10.0,71,0.00,,,0.00,0.00,VWS V14.00,2013-11-08 12:02:00,
2013-11-08 05:03:00,40.6,32.0,30.81,SSE,153,5.0,10.0,71,0.00,,,0.00,0.00,VWS V14.00,2013-11-08 12:03:00,
2013-11-08 05:04:00,40.5,31.9,30.81,SSE,152,6.0,10.0,71,0.00,,,0.00,0.00,VWS V14.00,2013-11-08 12:04:00,
2013-11-08 05:05:00,40.5,31.9,30.81,SSE,153,6.0,10.0,71,0.00,,,0.00,0.00,VWS V14.00,2013-11-08 12:05:00,
2013-11-08 05:06:00,40.5,31.5,30.81,SSE,150,6.0,10.0,70,0.00,,,0.00,0.00,VWS V14.00,2013-11-08 12:06:00,
2013-11-08 05:07:00,40.5,31.9,30.81,SSE,151,5.0,10.0,71,0.00,,,0.00,0.00,VWS V14.00,2013-11-08 12:07:00,
2013-11-08 05:08:00,40.5,31.9,30.81,SE,146,7.0,11.0,71,0.00,,,0.00,0.00,VWS V14.00,2013-11-08 12:08:00,
2013-11-08 05:09:00,40.5,31.9,30.81,SSE,153,5.0,11.0,71,0.00,,,0.00,0.00,VWS V14.00,2013-11-08 12:09:00,
2013-11-08 05:10:00,40.5,31.9,30.81,SSE,152,4.0,11.0,71,0.00,,,0.00,0.00,VWS V14.00,2013-11-08 12:10:00,
2013-11-08 05:11:00,40.5,31.9,30.81,SSE,153,4.0,11.0,71,0.00,,,0.00,0.00,VWS V14.00,2013-11-08 12:11:00,
2013-11-08 05:12:00,40.5,31.9,30.81,SSE,153,6.0,11.0,71,0.00,,,0.00,0.00,VWS V14.00,2013-11-08 12:12:00,
2013-11-08 05:13:00,40.5,31.9,30.81,SE,145,9.0,11.0,71,0.00,,,0.00,0.00,VWS V14.00,2013-11-08 12:13:00,
2013-11-08 05:14:00,40.4,31.8,30.81,SSE,159,9.0,12.0,71,0.00,,,0.00,0.00,VWS V14.00,2013-11-08 12:14:00,
2013-11-08 05:15:00,40.4,31.8,30.82,SSE,152,6.0,12.0,71,0.00,,,0.00,0.00,VWS V14.00,2013-11-08 12:15:00,
2013-11-08 05:16:00,40.4,31.8,30.82,SSE,153,6.0,8.0,71,0.00,,,0.00,0.00,VWS V14.00,2013-11-08 12:16:00,
2013-11-08 05:17:00,40.4,32.1,30.82,SSE,150,7.0,8.0,72,0.00,,,0.00,0.00,VWS V14.00,2013-11-08 12:17:00,
2013-11-08 05:18:00,40.4,32.1,30.82,SSE,159,9.0,10.0,72,0.00,,,0.00,0.00,VWS V14.00,2013-11-08 12:18:00,
2013-11-08 05:19:00,40.3,32.0,30.82,SSE,152,9.0,10.0,72,0.00,,,0.00,0.00,VWS V14.00,2013-11-08 12:19:00,
2013-11-08 05:20:00,40.3,31.7,30.82,SSE,150,6.0,10.0,71,0.00,,,0.00,0.00,VWS V14.00,2013-11-08 12:20:00,
2013-11-08 05:21:00,40.3,31.7,30.82,SSE,155,7.0,10.0,71,0.00,,,0.00,0.00,VWS V14.00,2013-11-08 12:21:00,
2013-11-08 05:22:00,40.3,31.7,30.82,SSE,155,7.0,10.0,71,0.00,,,0.00,0.00,VWS V14.00,2013-11-08 12:22:00,
2013-11-08 05:23:00,40.3,31.7,30.82,SSE,154,6.0,10.0,71,0.00,,,0.00,0.00,VWS V14.00,2013-11-08 12:23:00,
2013-11-08 05:24:00,40.3,32.0,30.82,SSE,160,6.0,10.0,72,0.00,,,0.00,0.00,VWS V14.00,2013-11-08 12:24:00,
2013-11-08 05:25:00,40.3,31.7,30.83,SSE,155,8.0,10.0,71,0.00,,,0.00,0.00,VWS V14.00,2013-11-08 12:25:00,
2013-11-08 05:26:00,40.3,32.0,30.83,SSE,152,6.0,10.0,72,0.00,,,0.00,0.00,VWS V14.00,2013-11-08 12:26:00,
2013-11-08 05:27:00,40.3,32.0,30.82,SSE,152,7.0,10.0,72,0.00,,,0.00,0.00,VWS V14.00,2013-11-08 12:27:00,
2013-11-08 05:28:00,40.3,32.0,30.83,SSE,151,8.0,10.0,72,0.00,,,0.00,0.00,VWS V14.00,2013-11-08 12:28:00,
2013-11-08 05:29:00,40.3,31.7,30.83,SSE,159,6.0,10.0,71,0.00,,,0.00,0.00,VWS V14.00,2013-11-08 12:29:00,
2013-11-08 05:30:00,40.2,31.9,30.83,SSE,159,5.0,10.0,72,0.00,,,0.00,0.00,VWS V14.00,2013-11-08 12:30:00,
2013-11-08 05:31:00,40.2,31.9,30.83,SSE,155,6.0,10.0,72,0.00,,,0.00,0.00,VWS V14.00,2013-11-08 12:31:00,
2013-11-08 05:32:00,40.2,31.9,30.83,SSE,155,7.0,10.0,72,0.00,,,0.00,0.00,VWS V14.00,2013-11-08 12:32:00,
2013-11-08 05:33:00,40.2,31.6,30.83,SSE,157,5.0,11.0,71,0.00,,,0.00,0.00,VWS V14.00,2013-11-08 12:33:00,
2013-11-08 05:34:00,40.2,31.9,30.83,SSE,157,6.0,11.0,72,0.00,,,0.00,0.00,VWS V14.00,2013-11-08 12:34:00,
2013-11-08 05:35:00,40.2,31.6,30.83,SSE,156,9.0,11.0,71,0.00,,,0.00,0.00,VWS V14.00,2013-11-08 12:35:00,
2013-11-08 05:36:00,40.2,31.6,30.83,SSE,158,6.0,11.0,71,0.00,,,0.00,0.00,VWS V14.00,2013-11-08 12:36:00,
2013-11-08 05:37:00,40.2,31.6,30.83,SSE,155,6.0,11.0,71,0.00,,,0.00,0.00,VWS V14.00,2013-11-08 12:37:00,
2013-11-08 05:38:00,40.2,31.6,30.83,SSE,155,4.0,11.0,71,0.00,,,0.00,0.00,VWS V14.00,2013-11-08 12:38:00,
2013-11-08 05:39:00,40.2,31.6,30.83,SSE,156,4.0,11.0,71,0.00,,,0.00,0.00,VWS V14.00,2013-11-08 12:39:00,
2013-11-08 05:40:00,40.2,31.6,30.83,SSE,156,5.0,11.0,71,0.00,,,0.00,0.00,VWS V14.00,2013-11-08 12:40:00,
2013-11-08 05:41:00,40.2,31.6,30.83,SSE,157,5.0,11.0,71,0.00,,,0.00,0.00,VWS V14.00,2013-11-08 12:41:00,
2013-11-08 05:42:00,40.2,31.6,30.83,SSE,157,4.0,11.0,71,0.00,,,0.00,0.00,VWS V14.00,2013-11-08 12:42:00,
2013-11-08 05:43:00,40.2,31.9,30.83,SSE,152,6.0,11.0,72,0.00,,,0.00,0.00,VWS V14.00,2013-11-08 12:43:00,
2013-11-08 05:44:00,40.2,31.9,30.82,SSE,165,6.0,11.0,72,0.00,,,0.00,0.00,VWS V14.00,2013-11-08 12:44:00,
2013-11-08 05:45:00,40.2,31.9,30.83,SSE,163,6.0,11.0,72,0.00,,,0.00,0.00,VWS V14.00,2013-11-08 12:45:00,
2013-11-08 05:46:00,40.2,31.9,30.82,SSE,161,5.0,9.0,72,0.00,,,0.00,0.00,VWS V14.00,2013-11-08 12:46:00,
2013-11-08 05:47:00,40.2,31.9,30.83,SSE,156,6.0,11.0,72,0.00,,,0.00,0.00,VWS V14.00,2013-11-08 12:47:00,
2013-11-08 05:48:00,40.2,31.9,30.83,SSE,158,7.0,11.0,72,0.00,,,0.00,0.00,VWS V14.00,2013-11-08 12:48:00,
2013-11-08 05:49:00,40.2,31.9,30.83,SSE,156,8.0,11.0,72,0.00,,,0.00,0.00,VWS V14.00,2013-11-08 12:49:00,
2013-11-08 05:50:00,40.2,31.6,30.83,SSE,153,10.0,11.0,71,0.00,,,0.00,0.00,VWS V14.00,2013-11-08 12:50:00,
2013-11-08 05:51:00,40.2,31.6,30.83,SSE,153,7.0,11.0,71,0.00,,,0.00,0.00,VWS V14.00,2013-11-08 12:51:00,
2013-11-08 05:52:00,40.2,31.6,30.83,SSE,152,4.0,11.0,71,0.00,,,0.00,0.00,VWS V14.00,2013-11-08 12:52:00,
2013-11-08 05:53:00,40.2,31.9,30.83,SSE,161,7.0,11.0,72,0.00,,,0.00,0.00,VWS V14.00,2013-11-08 12:53:00,
2013-11-08 05:54:00,40.3,32.0,30.83,SSE,157,9.0,11.0,72,0.00,,,0.00,0.00,VWS V14.00,2013-11-08 12:54:00,
2013-11-08 05:55:00,40.3,32.0,30.83,SSE,157,7.0,11.0,72,0.00,,,0.00,0.00,VWS V14.00,2013-11-08 12:55:00,
2013-11-08 05:56:00,40.2,31.9,30.83,SSE,156,6.0,11.0,72,0.00,,,0.00,0.00,VWS V14.00,2013-11-08 12:56:00,
2013-11-08 05:57:00,40.2,31.9,30.83,SSE,160,5.0,11.0,72,0.00,,,0.00,0.00,VWS V14.00,2013-11-08 12:57:00,
2013-11-08 05:58:00,40.2,31.9,30.83,SSE,160,5.0,11.0,72,0.00,,,0.00,0.00,VWS V14.00,2013-11-08 12:58:00,
2013-11-08 05:59:00,40.2,31.9,30.83,SSE,160,2.0,11.0,72,0.00,,,0.00,0.00,VWS V14.00,2013-11-08 12:59:00,
2013-11-08 06:00:00,40.2,31.9,30.84,SSE,160,0.0,11.0,72,0.00,,,0.00,0.00,VWS V14.00,2013-11-08 13:00:00,
2013-11-08 06:01:00,40.2,31.9,30.83,SSE,160,1.0,4.0,72,0.00,,,0.00,0.00,VWS V14.00,2013-11-08 13:01:00,
2013-11-08 06:02:00,40.2,32.2,30.83,SSE,160,2.0,4.0,73,0.00,,,0.00,0.00,VWS V14.00,2013-11-08 13:02:00,
2013-11-08 06:03:00,40.2,32.2,30.83,SSE,161,0.0,5.0,73,0.00,,,0.00,0.00,VWS V14.00,2013-11-08 13:03:00,
2013-11-08 06:04:00,40.2,32.2,30.83,SSE,161,0.0,5.0,73,0.00,,,0.00,0.00,VWS V14.00,2013-11-08 13:04:00,
2013-11-08 06:05:00,40.2,32.2,30.83,SSE,161,2.0,5.0,73,0.00,,,0.00,0.00,VWS V14.00,2013-11-08 13:05:00,
2013-11-08 06:06:00,40.1,32.2,30.83,SSE,161,0.0,5.0,73,0.00,,,0.00,0.00,VWS V14.00,2013-11-08 13:06:00,
2013-11-08 06:07:00,40.1,32.5,30.83,SSE,161,0.0,5.0,74,0.00,,,0.00,0.00,VWS V14.00,2013-11-08 13:07:00,
2013-11-08 06:08:00,40.1,32.8,30.83,SSE,161,0.0,5.0,75,0.00,,,0.00,0.00,VWS V14.00,2013-11-08 13:08:00,
2013-11-08 06:09:00,40.1,32.8,30.83,SSE,161,0.0,5.0,75,0.00,,,0.00,0.00,VWS V14.00,2013-11-08 13:09:00,
2013-11-08 06:10:00,40.0,32.7,30.82,SSE,161,0.0,5.0,75,0.00,,,0.00,0.00,VWS V14.00,2013-11-08 13:10:00,
2013-11-08 06:11:00,40.0,32.7,30.82,SSE,161,0.0,5.0,75,0.00,,,0.00,0.00,VWS V14.00,2013-11-08 13:11:00,
2013-11-08 06:12:00,39.9,32.6,30.82,SSE,161,0.0,5.0,75,0.00,,,0.00,0.00,VWS V14.00,2013-11-08 13:12:00,
2013-11-08 06:13:00,39.9,32.6,30.82,SSE,161,0.0,5.0,75,0.00,,,0.00,0.00,VWS V14.00,2013-11-08 13:13:00,
2013-11-08 06:14:00,39.8,32.5,30.82,SSE,161,0.0,5.0,75,0.00,,,0.00,0.00,VWS V14.00,2013-11-08 13:14:00,
2013-11-08 06:15:00,39.8,32.5,30.83,SSE,161,0.0,5.0,75,0.00,,,0.00,0.00,VWS V14.00,2013-11-08 13:15:00,
2013-11-08 06:16:00,39.8,32.9,30.83,SSE,161,0.0,0.0,76,0.00,,,0.00,0.00,VWS V14.00,2013-11-08 13:16:00,
2013-11-08 06:17:00,39.7,32.8,30.82,SSE,161,0.0,0.0,76,0.00,,,0.00,0.00,VWS V14.00,2013-11-08 13:17:00,
2013-11-08 06:18:00,39.7,32.8,30.82,SSE,161,0.0,0.0,76,0.00,,,0.00,0.00,VWS V14.00,2013-11-08 13:18:00,
2013-11-08 06:19:00,39.6,32.7,30.82,SSE,161,3.0,4.0,76,0.00,,,0.00,0.00,VWS V14.00,2013-11-08 13:19:00,
2013-11-08 06:20:00,39.5,32.9,30.82,SSE,161,2.0,4.0,77,0.00,,,0.00,0.00,VWS V14.00,2013-11-08 13:20:00,
2013-11-08 06:21:00,39.5,32.9,30.82,SSE,161,3.0,4.0,77,0.00,,,0.00,0.00,VWS V14.00,2013-11-08 13:21:00,
2013-11-08 06:22:00,39.4,32.8,30.82,SSE,161,1.0,4.0,77,0.00,,,0.00,0.00,VWS V14.00,2013-11-08 13:22:00,
2013-11-08 06:23:00,39.4,32.8,30.82,SSE,161,0.0,4.0,77,0.00,,,0.00,0.00,VWS V14.00,2013-11-08 13:23:00,
2013-11-08 06:24:00,39.3,32.7,30.82,SSE,161,3.0,4.0,77,0.00,,,0.00,0.00,VWS V14.00,2013-11-08 13:24:00,
2013-11-08 06:25:00,39.3,32.7,30.82,SSE,161,0.0,4.0,77,0.00,,,0.00,0.00,VWS V14.00,2013-11-08 13:25:00,
2013-11-08 06:26:00,39.2,32.9,30.82,SSE,161,0.0,4.0,78,0.00,,,0.00,0.00,VWS V14.00,2013-11-08 13:26:00,
2013-11-08 06:27:00,39.2,32.9,30.82,SSE,161,0.0,4.0,78,0.00,,,0.00,0.00,VWS V14.00,2013-11-08 13:27:00,
2013-11-08 06:28:00,39.1,32.8,30.82,SSE,161,0.0,4.0,78,0.00,,,0.00,0.00,VWS V14.00,2013-11-08 13:28:00,
2013-11-08 06:29:00,39.1,32.8,30.82,SSE,161,4.0,4.0,78,0.00,,,0.00,0.00,VWS V14.00,2013-11-08 13:29:00,
2013-11-08 06:30:00,39.1,32.8,30.82,SSE,161,1.0,4.0,78,0.00,,,0.00,0.00,VWS V14.00,2013-11-08 13:30:00,
2013-11-08 06:31:00,39.0,32.7,30.82,SSE,161,0.0,1.0,78,0.00,,,0.00,0.00,VWS V14.00,2013-11-08 13:31:00,
2013-11-08 06:32:00,39.0,32.7,30.82,SSE,162,1.0,5.0,78,0.00,,,0.00,0.00,VWS V14.00,2013-11-08 13:32:00,
2013-11-08 06:33:00,39.0,32.7,30.82,SSE,164,4.0,5.0,78,0.00,,,0.00,0.00,VWS V14.00,2013-11-08 13:33:00,
2013-11-08 06:34:00,38.9,32.6,30.82,SSE,167,2.0,5.0,78,0.00,,,0.00,0.00,VWS V14.00,2013-11-08 13:34:00,
2013-11-08 06:35:00,38.9,32.6,30.82,South,171,0.0,5.0,78,0.00,,,0.00,0.00,VWS V14.00,2013-11-08 13:35:00,
2013-11-08 06:36:00,38.9,32.6,30.82,South,171,0.0,5.0,78,0.00,,,0.00,0.00,VWS V14.00,2013-11-08 13:36:00,
2013-11-08 06:37:00,38.8,32.9,30.82,South,171,2.0,5.0,79,0.00,,,0.00,0.00,VWS V14.00,2013-11-08 13:37:00,
2013-11-08 06:38:00,38.8,32.9,30.82,South,171,3.0,5.0,79,0.00,,,0.00,0.00,VWS V14.00,2013-11-08 13:38:00,
2013-11-08 06:39:00,38.8,32.9,30.82,South,171,2.0,5.0,79,0.00,,,0.00,0.00,VWS V14.00,2013-11-08 13:39:00,
2013-11-08 06:40:00,38.8,32.9,30.82,South,171,4.0,5.0,79,0.00,,,0.00,0.00,VWS V14.00,2013-11-08 13:40:00,
2013-11-08 06:41:00,38.7,32.8,30.82,South,171,0.0,5.0,79,0.00,,,0.00,0.00,VWS V14.00,2013-11-08 13:41:00,
2013-11-08 06:42:00,38.7,32.8,30.82,South,171,0.0,5.0,79,0.00,,,0.00,0.00,VWS V14.00,2013-11-08 13:42:00,
2013-11-08 06:43:00,38.7,32.8,30.82,South,171,0.0,5.0,79,0.00,,,0.00,0.00,VWS V14.00,2013-11-08 13:43:00,
2013-11-08 06:44:00,38.7,33.1,30.82,South,171,0.0,5.0,80,0.00,,,0.00,0.00,VWS V14.00,2013-11-08 13:44:00,
2013-11-08 06:45:00,38.7,33.1,30.82,South,171,0.0,5.0,80,0.00,,,0.00,0.00,VWS V14.00,2013-11-08 13:45:00,
2013-11-08 06:46:00,38.6,33.0,30.82,South,171,2.0,3.0,80,0.00,,,0.00,0.00,VWS V14.00,2013-11-08 13:46:00,
2013-11-08 06:47:00,38.6,33.0,30.82,South,171,3.0,3.0,80,0.00,,,0.00,0.00,VWS V14.00,2013-11-08 13:47:00,
2013-11-08 06:48:00,38.6,33.0,30.83,South,171,1.0,3.0,80,0.00,,,0.00,0.00,VWS V14.00,2013-11-08 13:48:00,
2013-11-08 06:49:00,38.5,32.9,30.83,South,171,3.0,4.0,80,0.00,,,0.00,0.00,VWS V14.00,2013-11-08 13:49:00,
2013-11-08 06:50:00,38.5,32.9,30.83,South,171,4.0,4.0,80,0.00,,,0.00,0.00,VWS V14.00,2013-11-08 13:50:00,
2013-11-08 06:51:00,38.5,32.9,30.83,South,171,4.0,4.0,80,0.00,,,0.00,0.00,VWS V14.00,2013-11-08 13:51:00,
2013-11-08 06:52:00,38.5,32.9,30.83,South,171,3.0,4.0,80,0.00,,,0.00,0.00,VWS V14.00,2013-11-08 13:52:00,
2013-11-08 06:53:00,38.4,33.1,30.83,South,171,3.0,4.0,81,0.00,,,0.00,0.00,VWS V14.00,2013-11-08 13:53:00,
2013-11-08 06:54:00,38.4,33.1,30.83,South,171,5.0,6.0,81,0.00,,,0.00,0.00,VWS V14.00,2013-11-08 13:54:00,
2013-11-08 06:55:00,38.4,33.1,30.83,South,169,6.0,7.0,81,0.00,,,0.00,0.00,VWS V14.00,2013-11-08 13:55:00,
2013-11-08 06:56:00,38.4,33.1,30.83,SSE,165,6.0,7.0,81,0.00,,,0.00,0.00,VWS V14.00,2013-11-08 13:56:00,
2013-11-08 06:57:00,38.4,33.1,30.83,SSE,162,5.0,7.0,81,0.00,,,0.00,0.00,VWS V14.00,2013-11-08 13:57:00,
2013-11-08 06:58:00,38.4,33.1,30.83,SSE,162,4.0,7.0,81,0.00,,,0.00,0.00,VWS V14.00,2013-11-08 13:58:00,
2013-11-08 06:59:00,38.3,33.0,30.83,SSE,162,5.0,7.0,81,0.00,,,0.00,0.00,VWS V14.00,2013-11-08 13:59:00,
2013-11-08 07:00:00,38.3,33.0,30.83,SSE,161,2.0,7.0,81,0.00,,,0.00,0.00,VWS V14.00,2013-11-08 14:00:00,
2013-11-08 07:01:00,38.3,33.0,30.83,SSE,161,2.0,3.0,81,0.00,,,0.00,0.00,VWS V14.00,2013-11-08 14:01:00,
2013-11-08 07:02:00,38.3,33.0,30.85,SSE,161,3.0,5.0,81,0.00,,,0.00,0.00,VWS V14.00,2013-11-08 14:02:00,
2013-11-08 07:03:00,38.3,33.0,30.85,SSE,161,3.0,5.0,81,0.00,,,0.00,0.00,VWS V14.00,2013-11-08 14:03:00,
2013-11-08 07:04:00,38.3,33.0,30.85,SSE,162,2.0,5.0,81,0.00,,,0.00,0.00,VWS V14.00,2013-11-08 14:04:00,
2013-11-08 07:05:00,38.3,33.0,30.85,SSE,162,0.0,5.0,81,0.00,,,0.00,0.00,VWS V14.00,2013-11-08 14:05:00,
2013-11-08 07:06:00,38.3,33.0,30.86,SSE,162,0.0,5.0,81,0.00,,,0.00,0.00,VWS V14.00,2013-11-08 14:06:00,
2013-11-08 07:07:00,38.3,33.0,30.86,SSE,162,0.0,5.0,81,0.00,,,0.00,0.00,VWS V14.00,2013-11-08 14:07:00,
2013-11-08 07:08:00,38.3,33.0,30.86,SSE,161,0.0,5.0,81,0.00,,,0.00,0.00,VWS V14.00,2013-11-08 14:08:00,
2013-11-08 07:09:00,38.3,33.0,30.86,SSE,162,0.0,5.0,81,0.00,,,0.00,0.00,VWS V14.00,2013-11-08 14:09:00,
2013-11-08 07:10:00,38.3,33.3,30.86,SSE,161,0.0,5.0,82,0.00,,,0.00,0.00,VWS V14.00,2013-11-08 14:10:00,
2013-11-08 07:11:00,38.3,33.3,30.85,SSE,161,0.0,5.0,82,0.00,,,0.00,0.00,VWS V14.00,2013-11-08 14:11:00,
2013-11-08 07:12:00,38.3,33.3,30.85,SSE,161,0.0,5.0,82,0.00,,,0.00,0.00,VWS V14.00,2013-11-08 14:12:00,
2013-11-08 07:13:00,38.3,33.3,30.85,SSE,162,0.0,5.0,82,0.00,,,0.00,0.00,VWS V14.00,2013-11-08 14:13:00,
2013-11-08 07:14:00,38.2,33.2,30.86,SSE,162,2.0,5.0,82,0.00,,,0.00,0.00,VWS V14.00,2013-11-08 14:14:00,
2013-11-08 07:15:00,38.2,33.2,30.86,SSE,162,0.0,5.0,82,0.00,,,0.00,0.00,VWS V14.00,2013-11-08 14:15:00,
2013-11-08 07:16:00,38.2,33.2,30.86,SSE,161,0.0,0.0,82,0.00,,,0.00,0.00,VWS V14.00,2013-11-08 14:16:00,
2013-11-08 07:17:00,38.2,33.2,30.86,SSE,161,0.0,0.0,82,0.00,,,0.00,0.00,VWS V14.00,2013-11-08 14:17:00,
2013-11-08 07:18:00,38.2,33.2,30.86,SSE,161,0.0,0.0,82,0.00,,,0.00,0.00,VWS V14.00,2013-11-08 14:18:00,
2013-11-08 07:19:00,38.2,33.2,30.86,SSE,162,0.0,0.0,82,0.00,,,0.00,0.00,VWS V14.00,2013-11-08 14:19:00,
2013-11-08 07:20:00,38.2,33.2,30.86,SSE,162,0.0,0.0,82,0.00,,,0.00,0.00,VWS V14.00,2013-11-08 14:20:00,
2013-11-08 07:21:00,38.2,33.2,30.86,SSE,162,0.0,0.0,82,0.00,,,0.00,0.00,VWS V14.00,2013-11-08 14:21:00,
2013-11-08 07:22:00,38.2,33.2,30.86,SSE,162,0.0,0.0,82,0.00,,,0.00,0.00,VWS V14.00,2013-11-08 14:22:00,
2013-11-08 07:23:00,38.2,33.2,30.86,SSE,161,0.0,0.0,82,0.00,,,0.00,0.00,VWS V14.00,2013-11-08 14:23:00,
2013-11-08 07:24:00,38.2,33.2,30.86,SSE,161,0.0,0.0,82,0.00,,,0.00,0.00,VWS V14.00,2013-11-08 14:24:00,
2013-11-08 07:25:00,38.2,33.2,30.86,SSE,162,0.0,0.0,82,0.00,,,0.00,0.00,VWS V14.00,2013-11-08 14:25:00,
2013-11-08 07:26:00,38.2,33.2,30.86,SSE,162,0.0,2.0,82,0.00,,,0.00,0.00,VWS V14.00,2013-11-08 14:26:00,
2013-11-08 07:27:00,38.2,33.2,30.86,SSE,162,0.0,2.0,82,0.00,,,0.00,0.00,VWS V14.00,2013-11-08 14:27:00,
2013-11-08 07:28:00,38.2,33.2,30.86,SSE,161,3.0,4.0,82,0.00,,,0.00,0.00,VWS V14.00,2013-11-08 14:28:00,
2013-11-08 07:29:00,38.1,33.4,30.86,SSE,161,2.0,5.0,83,0.00,,,0.00,0.00,VWS V14.00,2013-11-08 14:29:00,
2013-11-08 07:30:00,38.1,33.4,30.86,South,169,2.0,6.0,83,0.00,,,0.00,0.00,VWS V14.00,2013-11-08 14:30:00,
2013-11-08 07:31:00,38.1,33.4,30.86,South,169,5.0,5.0,83,0.00,,,0.00,0.00,VWS V14.00,2013-11-08 14:31:00,
2013-11-08 07:32:00,38.1,33.4,30.86,South,169,4.0,5.0,83,0.00,,,0.00,5.00,VWS V14.00,2013-11-08 14:32:00,
2013-11-08 07:33:00,38.1,33.4,30.86,South,169,3.0,6.0,83,0.00,,,0.00,5.00,VWS V14.00,2013-11-08 14:33:00,
2013-11-08 07:34:00,38.1,33.4,30.86,South,169,0.0,6.0,83,0.00,,,0.00,5.00,VWS V14.00,2013-11-08 14:34:00,
2013-11-08 07:35:00,38.1,33.4,30.86,South,169,3.0,6.0,83,0.00,,,0.00,5.00,VWS V14.00,2013-11-08 14:35:00,
2013-11-08 07:36:00,38.1,33.4,30.86,South,169,0.0,6.0,83,0.00,,,0.00,7.00,VWS V14.00,2013-11-08 14:36:00,
2013-11-08 07:37:00,38.1,33.4,30.86,South,169,3.0,6.0,83,0.00,,,0.00,7.00,VWS V14.00,2013-11-08 14:37:00,
2013-11-08 07:38:00,38.1,33.4,30.86,South,169,4.0,6.0,83,0.00,,,0.00,9.00,VWS V14.00,2013-11-08 14:38:00,
2013-11-08 07:39:00,38.1,33.4,30.86,South,169,3.0,6.0,83,0.00,,,0.00,9.00,VWS V14.00,2013-11-08 14:39:00,
2013-11-08 07:40:00,38.1,33.4,30.86,SSE,165,4.0,9.0,83,0.00,,,0.00,9.00,VWS V14.00,2013-11-08 14:40:00,
2013-11-08 07:41:00,38.1,33.4,30.86,SSE,165,2.0,9.0,83,0.00,,,0.00,9.00,VWS V14.00,2013-11-08 14:41:00,
2013-11-08 07:42:00,38.2,33.5,30.86,SSE,165,3.0,9.0,83,0.00,,,0.00,11.00,VWS V14.00,2013-11-08 14:42:00,
2013-11-08 07:43:00,38.2,33.5,30.86,SSE,163,3.0,9.0,83,0.00,,,0.00,11.00,VWS V14.00,2013-11-08 14:43:00,
2013-11-08 07:44:00,38.2,33.5,30.86,SSE,164,4.0,9.0,83,0.00,,,0.00,12.00,VWS V14.00,2013-11-08 14:44:00,
2013-11-08 07:45:00,38.2,33.5,30.86,SSE,164,4.0,9.0,83,0.00,,,0.00,12.00,VWS V14.00,2013-11-08 14:45:00,
2013-11-08 07:46:00,38.2,33.5,30.86,SSE,164,3.0,4.0,83,0.00,,,0.00,12.00,VWS V14.00,2013-11-08 14:46:00,
2013-11-08 07:47:00,38.2,33.5,30.86,SSE,164,2.0,4.0,83,0.00,,,0.00,14.00,VWS V14.00,2013-11-08 14:47:00,
2013-11-08 07:48:00,38.2,33.5,30.86,SSE,164,2.0,4.0,83,0.00,,,0.00,14.00,VWS V14.00,2013-11-08 14:48:00,
2013-11-08 07:49:00,38.2,33.5,30.86,SSE,164,2.0,4.0,83,0.00,,,0.00,14.00,VWS V14.00,2013-11-08 14:49:00,
2013-11-08 07:50:00,38.2,33.5,30.86,SSE,164,2.0,4.0,83,0.00,,,0.00,14.00,VWS V14.00,2013-11-08 14:50:00,
2013-11-08 07:51:00,38.3,33.6,30.86,SSE,164,3.0,4.0,83,0.00,,,0.00,14.00,VWS V14.00,2013-11-08 14:51:00,
2013-11-08 07:52:00,38.3,33.6,30.86,SSE,164,2.0,4.0,83,0.00,,,0.00,14.00,VWS V14.00,2013-11-08 14:52:00,
2013-11-08 07:53:00,38.3,33.6,30.86,SSE,164,2.0,5.0,83,0.00,,,0.00,14.00,VWS V14.00,2013-11-08 14:53:00,
2013-11-08 07:54:00,38.3,33.6,30.86,SSE,164,3.0,5.0,83,0.00,,,0.00,14.00,VWS V14.00,2013-11-08 14:54:00,
2013-11-08 07:55:00,38.3,33.6,30.86,SSE,162,4.0,7.0,83,0.00,,,0.00,16.00,VWS V14.00,2013-11-08 14:55:00,
2013-11-08 07:56:00,38.3,33.6,30.86,SSE,161,2.0,7.0,83,0.00,,,0.00,14.00,VWS V14.00,2013-11-08 14:56:00,
2013-11-08 07:57:00,38.3,33.6,30.86,SSE,161,0.0,7.0,83,0.00,,,0.00,14.00,VWS V14.00,2013-11-08 14:57:00,
2013-11-08 07:58:00,38.3,33.6,30.86,SSE,161,3.0,7.0,83,0.00,,,0.00,16.00,VWS V14.00,2013-11-08 14:58:00,
2013-11-08 07:59:00,38.3,33.6,30.87,SSE,161,1.0,7.0,83,0.00,,,0.00,14.00,VWS V14.00,2013-11-08 14:59:00,
2013-11-08 08:00:00,38.3,33.6,30.87,SSE,161,0.0,7.0,83,0.00,,,0.00,14.00,VWS V14.00,2013-11-08 15:00:00,
2013-11-08 08:01:00,38.3,33.6,30.88,SSE,162,0.0,0.0,83,0.00,,,0.00,16.00,VWS V14.00,2013-11-08 15:01:00,
2013-11-08 08:02:00,38.3,33.6,30.88,SSE,162,0.0,0.0,83,0.00,,,0.00,16.00,VWS V14.00,2013-11-08 15:02:00,
2013-11-08 08:03:00,38.3,33.6,30.88,SSE,162,0.0,1.0,83,0.00,,,0.00,16.00,VWS V14.00,2013-11-08 15:03:00,
2013-11-08 08:04:00,38.3,33.6,30.88,SSE,161,0.0,1.0,83,0.00,,,0.00,16.00,VWS V14.00,2013-11-08 15:04:00,
2013-11-08 08:05:00,38.3,33.6,30.88,SSE,161,0.0,1.0,83,0.00,,,0.00,16.00,VWS V14.00,2013-11-08 15:05:00,
2013-11-08 08:06:00,38.3,33.6,30.88,SSE,161,0.0,1.0,83,0.00,,,0.00,16.00,VWS V14.00,2013-11-08 15:06:00,
2013-11-08 08:07:00,38.3,33.6,30.88,SSE,162,0.0,1.0,83,0.00,,,0.00,18.00,VWS V14.00,2013-11-08 15:07:00,
2013-11-08 08:08:00,38.3,33.6,30.88,SSE,162,4.0,4.0,83,0.00,,,0.00,18.00,VWS V14.00,2013-11-08 15:08:00,
2013-11-08 08:09:00,38.3,33.6,30.88,SSE,161,3.0,4.0,83,0.00,,,0.00,18.00,VWS V14.00,2013-11-08 15:09:00,
2013-11-08 08:10:00,38.3,33.6,30.88,SSE,161,2.0,6.0,83,0.00,,,0.00,19.00,VWS V14.00,2013-11-08 15:10:00,
2013-11-08 08:11:00,38.3,33.6,30.88,SSE,161,2.0,6.0,83,0.00,,,0.00,21.00,VWS V14.00,2013-11-08 15:11:00,
2013-11-08 08:12:00,38.3,33.6,30.88,SSE,162,0.0,6.0,83,0.00,,,0.00,21.00,VWS V14.00,2013-11-08 15:12:00,
2013-11-08 08:13:00,38.3,33.6,30.88,SSE,162,0.0,6.0,83,0.00,,,0.00,21.00,VWS V14.00,2013-11-08 15:13:00,
2013-11-08 08:14:00,38.3,33.6,30.88,SSE,162,3.0,6.0,83,0.00,,,0.00,21.00,VWS V14.00,2013-11-08 15:14:00,
2013-11-08 08:15:00,38.3,33.6,30.88,SSE,161,5.0,6.0,83,0.00,,,0.00,21.00,VWS V14.00,2013-11-08 15:15:00,
2013-11-08 08:16:00,38.3,33.6,30.88,SSE,161,4.0,5.0,83,0.00,,,0.00,21.00,VWS V14.00,2013-11-08 15:16:00,
2013-11-08 08:17:00,38.3,33.6,30.88,SSE,160,4.0,5.0,83,0.00,,,0.00,21.00,VWS V14.00,2013-11-08 15:17:00,
2013-11-08 08:18:00,38.4,33.7,30.88,SSE,160,2.0,5.0,83,0.00,,,0.00,23.00,VWS V14.00,2013-11-08 15:18:00,
2013-11-08 08:19:00,38.4,33.7,30.88,SSE,161,4.0,5.0,83,0.00,,,0.00,25.00,VWS V14.00,2013-11-08 15:19:00,
2013-11-08 08:20:00,38.4,33.7,30.88,SSE,161,4.0,5.0,83,0.00,,,0.00,25.00,VWS V14.00,2013-11-08 15:20:00,
2013-11-08 08:21:00,38.4,33.7,30.88,SSE,159,3.0,5.0,83,0.00,,,0.00,26.00,VWS V14.00,2013-11-08 15:21:00,
2013-11-08 08:22:00,38.4,33.7,30.88,SSE,159,3.0,5.0,83,0.00,,,0.00,26.00,VWS V14.00,2013-11-08 15:22:00,
2013-11-08 08:23:00,38.4,33.7,30.88,SSE,159,2.0,5.0,83,0.00,,,0.00,28.00,VWS V14.00,2013-11-08 15:23:00,
2013-11-08 08:24:00,38.4,33.7,30.88,SSE,159,4.0,5.0,83,0.00,,,0.00,28.00,VWS V14.00,2013-11-08 15:24:00,
2013-11-08 08:25:00,38.4,33.7,30.88,SSE,159,3.0,5.0,83,0.00,,,0.00,30.00,VWS V14.00,2013-11-08 15:25:00,
2013-11-08 08:26:00,38.4,33.7,30.88,SSE,159,4.0,5.0,83,0.00,,,0.00,30.00,VWS V14.00,2013-11-08 15:26:00,
2013-11-08 08:27:00,38.4,33.7,30.88,SSE,159,3.0,5.0,83,0.00,,,0.00,30.00,VWS V14.00,2013-11-08 15:27:00,
2013-11-08 08:28:00,38.4,33.7,30.88,SSE,159,3.0,5.0,83,0.00,,,0.00,32.00,VWS V14.00,2013-11-08 15:28:00,
2013-11-08 08:29:00,38.4,33.7,30.88,SSE,159,3.0,5.0,83,0.00,,,0.00,32.00,VWS V14.00,2013-11-08 15:29:00,
2013-11-08 08:30:00,38.4,33.7,30.88,SSE,159,4.0,5.0,83,0.00,,,0.00,33.00,VWS V14.00,2013-11-08 15:30:00,
2013-11-08 08:31:00,38.4,33.7,30.88,SSE,159,3.0,5.0,83,0.00,,,0.00,35.00,VWS V14.00,2013-11-08 15:31:00,
2013-11-08 08:32:00,38.5,33.8,30.88,SSE,159,2.0,5.0,83,0.00,,,0.00,35.00,VWS V14.00,2013-11-08 15:32:00,
2013-11-08 08:33:00,38.5,33.8,30.87,SSE,159,0.0,5.0,83,0.00,,,0.00,35.00,VWS V14.00,2013-11-08 15:33:00,
2013-11-08 08:34:00,38.5,33.8,30.87,SSE,159,0.0,5.0,83,0.00,,,0.00,35.00,VWS V14.00,2013-11-08 15:34:00,
2013-11-08 08:35:00,38.5,33.8,30.87,SSE,159,0.0,5.0,83,0.00,,,0.00,35.00,VWS V14.00,2013-11-08 15:35:00,
2013-11-08 08:36:00,38.5,33.8,30.87,SSE,159,0.0,5.0,83,0.00,,,0.00,39.00,VWS V14.00,2013-11-08 15:36:00,
2013-11-08 08:37:00,38.5,33.8,30.87,SSE,159,0.0,5.0,83,0.00,,,0.00,39.00,VWS V14.00,2013-11-08 15:37:00,
2013-11-08 08:38:00,38.5,33.8,30.87,SSE,159,0.0,5.0,83,0.00,,,0.00,40.00,VWS V14.00,2013-11-08 15:38:00,
2013-11-08 08:39:00,38.5,33.8,30.88,SSE,159,0.0,5.0,83,0.00,,,0.00,40.00,VWS V14.00,2013-11-08 15:39:00,
2013-11-08 08:40:00,38.6,33.9,30.88,SSE,159,0.0,5.0,83,0.00,,,0.00,42.00,VWS V14.00,2013-11-08 15:40:00,
2013-11-08 08:41:00,38.6,33.9,30.88,SSE,159,0.0,5.0,83,0.00,,,0.00,40.00,VWS V14.00,2013-11-08 15:41:00,
2013-11-08 08:42:00,38.6,33.9,30.88,SSE,159,0.0,5.0,83,0.00,,,0.00,39.00,VWS V14.00,2013-11-08 15:42:00,
2013-11-08 08:43:00,38.6,33.6,30.88,SSE,159,0.0,5.0,82,0.00,,,0.00,37.00,VWS V14.00,2013-11-08 15:43:00,
2013-11-08 08:44:00,38.6,33.9,30.88,SSE,159,0.0,5.0,83,0.00,,,0.00,37.00,VWS V14.00,2013-11-08 15:44:00,
2013-11-08 08:45:00,38.6,33.9,30.88,SSE,159,0.0,5.0,83,0.00,,,0.00,37.00,VWS V14.00,2013-11-08 15:45:00,
2013-11-08 08:46:00,38.6,33.9,30.88,SSE,159,0.0,0.0,83,0.00,,,0.00,39.00,VWS V14.00,2013-11-08 15:46:00,
2013-11-08 08:47:00,38.7,34.0,30.88,SSE,159,0.0,0.0,83,0.00,,,0.00,40.00,VWS V14.00,2013-11-08 15:47:00,
2013-11-08 08:48:00,38.7,34.0,30.88,SSE,159,2.0,4.0,83,0.00,,,0.00,44.00,VWS V14.00,2013-11-08 15:48:00,
2013-11-08 08:49:00,38.7,33.7,30.88,SSE,159,1.0,5.0,82,0.00,,,0.00,46.00,VWS V14.00,2013-11-08 15:49:00,
2013-11-08 08:50:00,38.8,33.8,30.88,SSE,159,2.0,5.0,82,0.00,,,0.00,47.00,VWS V14.00,2013-11-08 15:50:00,
2013-11-08 08:51:00,38.8,33.8,30.88,SSE,159,5.0,5.0,82,0.00,,,0.00,49.00,VWS V14.00,2013-11-08 15:51:00,
2013-11-08 08:52:00,38.8,33.8,30.88,SSE,159,3.0,5.0,82,0.00,,,0.00,53.00,VWS V14.00,2013-11-08 15:52:00,
2013-11-08 08:53:00,38.8,33.8,30.88,SSE,159,2.0,5.0,82,0.00,,,0.00,51.00,VWS V14.00,2013-11-08 15:53:00,
2013-11-08 08:54:00,38.9,33.9,30.88,SSE,159,2.0,5.0,82,0.00,,,0.00,51.00,VWS V14.00,2013-11-08 15:54:00,
2013-11-08 08:55:00,38.9,33.9,30.88,SSE,159,3.0,5.0,82,0.00,,,0.00,53.00,VWS V14.00,2013-11-08 15:55:00,
2013-11-08 08:56:00,38.9,33.9,30.88,SSE,159,3.0,5.0,82,0.00,,,0.00,53.00,VWS V14.00,2013-11-08 15:56:00,
2013-11-08 08:57:00,39.0,34.0,30.88,SSE,159,3.0,5.0,82,0.00,,,0.00,53.00,VWS V14.00,2013-11-08 15:57:00,
2013-11-08 08:58:00,39.0,34.0,30.88,SSE,159,3.0,5.0,82,0.00,,,0.00,51.00,VWS V14.00,2013-11-08 15:58:00,
2013-11-08 08:59:00,39.1,34.1,30.88,SSE,159,2.0,5.0,82,0.00,,,0.00,47.00,VWS V14.00,2013-11-08 15:59:00,
2013-11-08 09:00:00,39.1,34.1,30.88,SSE,159,0.0,5.0,82,0.00,,,0.00,46.00,VWS V14.00,2013-11-08 16:00:00,
2013-11-08 09:01:00,39.1,34.1,30.88,SSE,159,0.0,0.0,82,0.00,,,0.00,44.00,VWS V14.00,2013-11-08 16:01:00,
2013-11-08 09:02:00,39.1,34.1,30.88,SSE,159,0.0,0.0,82,0.00,,,0.00,44.00,VWS V14.00,2013-11-08 16:02:00,
2013-11-08 09:03:00,39.2,34.2,30.88,SSE,159,0.0,0.0,82,0.00,,,0.00,46.00,VWS V14.00,2013-11-08 16:03:00,
2013-11-08 09:04:00,39.2,34.2,30.88,SSE,159,2.0,4.0,82,0.00,,,0.00,46.00,VWS V14.00,2013-11-08 16:04:00,
2013-11-08 09:05:00,39.2,33.9,30.88,SSE,159,2.0,4.0,81,0.00,,,0.00,51.00,VWS V14.00,2013-11-08 16:05:00,
2013-11-08 09:06:00,39.2,33.9,30.88,SSE,159,1.0,4.0,81,0.00,,,0.00,51.00,VWS V14.00,2013-11-08 16:06:00,
2013-11-08 09:07:00,39.2,33.9,30.88,SSE,159,0.0,4.0,81,0.00,,,0.00,49.00,VWS V14.00,2013-11-08 16:07:00,
2013-11-08 09:08:00,39.3,34.0,30.88,SSE,159,2.0,4.0,81,0.00,,,0.00,49.00,VWS V14.00,2013-11-08 16:08:00,
2013-11-08 09:09:00,39.3,34.0,30.88,SSE,159,4.0,5.0,81,0.00,,,0.00,47.00,VWS V14.00,2013-11-08 16:09:00,
2013-11-08 09:10:00,39.3,34.0,30.88,SSE,159,4.0,6.0,81,0.00,,,0.00,47.00,VWS V14.00,2013-11-08 16:10:00,
2013-11-08 09:11:00,39.4,34.1,30.88,SSE,159,4.0,6.0,81,0.00,,,0.00,49.00,VWS V14.00,2013-11-08 16:11:00,
2013-11-08 09:12:00,39.4,34.1,30.88,SSE,159,4.0,6.0,81,0.00,,,0.00,49.00,VWS V14.00,2013-11-08 16:12:00,
2013-11-08 09:13:00,39.4,34.1,30.88,SSE,164,3.0,6.0,81,0.00,,,0.00,47.00,VWS V14.00,2013-11-08 16:13:00,
2013-11-08 09:14:00,39.4,34.1,30.88,South,190,3.0,6.0,81,0.00,,,0.00,46.00,VWS V14.00,2013-11-08 16:14:00,
2013-11-08 09:15:00,39.5,34.2,30.88,South,191,2.0,6.0,81,0.00,,,0.00,44.00,VWS V14.00,2013-11-08 16:15:00,
2013-11-08 09:16:00,39.5,34.2,30.87,SSE,159,5.0,6.0,81,0.00,,,0.00,42.00,VWS V14.00,2013-11-08 16:16:00,
2013-11-08 09:17:00,39.5,34.2,30.87,South,176,4.0,6.0,81,0.00,,,0.00,42.00,VWS V14.00,2013-11-08 16:17:00,
2013-11-08 09:18:00,39.5,34.2,30.87,SSE,165,4.0,6.0,81,0.00,,,0.00,44.00,VWS V14.00,2013-11-08 16:18:00,
2013-11-08 09:19:00,39.5,34.2,30.87,SSE,165,4.0,7.0,81,0.00,,,0.00,46.00,VWS V14.00,2013-11-08 16:19:00,
2013-11-08 09:20:00,39.5,34.2,30.87,SSE,165,4.0,7.0,81,0.00,,,0.00,46.00,VWS V14.00,2013-11-08 16:20:00,
2013-11-08 09:21:00,39.6,34.3,30.87,SSE,165,3.0,7.0,81,0.00,,,0.00,44.00,VWS V14.00,2013-11-08 16:21:00,
2013-11-08 09:22:00,39.6,34.3,30.87,SSE,165,5.0,7.0,81,0.00,,,0.00,44.00,VWS V14.00,2013-11-08 16:22:00,
2013-11-08 09:23:00,39.6,34.3,30.87,SSE,162,3.0,8.0,81,0.00,,,0.00,42.00,VWS V14.00,2013-11-08 16:23:00,
2013-11-08 09:24:00,39.6,34.3,30.87,SSE,163,4.0,8.0,81,0.00,,,0.00,42.00,VWS V14.00,2013-11-08 16:24:00,
2013-11-08 09:25:00,39.6,34.0,30.87,SSE,160,6.0,8.0,80,0.00,,,0.00,42.00,VWS V14.00,2013-11-08 16:25:00,
2013-11-08 09:26:00,39.6,34.0,30.87,SSE,160,4.0,8.0,80,0.00,,,0.00,42.00,VWS V14.00,2013-11-08 16:26:00,
2013-11-08 09:27:00,39.6,34.0,30.87,SSE,157,4.0,8.0,80,0.00,,,0.00,44.00,VWS V14.00,2013-11-08 16:27:00,
2013-11-08 09:28:00,39.6,34.0,30.87,SSE,158,5.0,8.0,80,0.00,,,0.00,53.00,VWS V14.00,2013-11-08 16:28:00,
2013-11-08 09:29:00,39.6,34.3,30.87,SSE,159,2.0,8.0,81,0.00,,,0.00,53.00,VWS V14.00,2013-11-08 16:29:00,
2013-11-08 09:30:00,39.6,34.3,30.87,South,182,3.0,8.0,81,0.00,,,0.00,51.00,VWS V14.00,2013-11-08 16:30:00,
2013-11-08 09:31:00,39.7,34.4,30.88,South,173,4.0,6.0,81,0.00,,,0.00,51.00,VWS V14.00,2013-11-08 16:31:00,
2013-11-08 09:32:00,39.7,34.0,30.87,South,171,5.0,6.0,80,0.00,,,0.00,53.00,VWS V14.00,2013-11-08 16:32:00,
2013-11-08 09:33:00,39.7,34.0,30.87,SSE,167,7.0,7.0,80,0.00,,,0.00,54.00,VWS V14.00,2013-11-08 16:33:00,
2013-11-08 09:34:00,39.6,34.0,30.88,SSE,165,5.0,7.0,80,0.00,,,0.00,53.00,VWS V14.00,2013-11-08 16:34:00,
2013-11-08 09:35:00,39.7,34.0,30.88,SSE,165,5.0,7.0,80,0.00,,,0.00,53.00,VWS V14.00,2013-11-08 16:35:00,
2013-11-08 09:36:00,39.6,34.3,30.88,SSE,165,5.0,7.0,81,0.00,,,0.00,54.00,VWS V14.00,2013-11-08 16:36:00,
2013-11-08 09:37:00,39.7,34.0,30.87,SSE,161,4.0,8.0,80,0.00,,,0.00,58.00,VWS V14.00,2013-11-08 16:37:00,
2013-11-08 09:38:00,39.7,34.4,30.88,SSE,165,5.0,8.0,81,0.00,,,0.00,63.00,VWS V14.00,2013-11-08 16:38:00,
2013-11-08 09:39:00,39.7,34.4,30.88,SSE,161,6.0,8.0,81,0.00,,,0.00,70.00,VWS V14.00,2013-11-08 16:39:00,
2013-11-08 09:40:00,39.7,34.0,30.87,SSE,165,5.0,8.0,80,0.00,,,0.00,81.00,VWS V14.00,2013-11-08 16:40:00,
2013-11-08 09:41:00,39.7,34.0,30.87,SSE,159,6.0,8.0,80,0.00,,,0.00,98.00,VWS V14.00,2013-11-08 16:41:00,
2013-11-08 09:42:00,39.7,34.4,30.87,SSE,159,5.0,8.0,81,0.00,,,0.00,109.00,VWS V14.00,2013-11-08 16:42:00,
2013-11-08 09:43:00,39.8,34.5,30.87,SSE,159,3.0,8.0,81,0.00,,,0.00,118.00,VWS V14.00,2013-11-08 16:43:00,
2013-11-08 09:44:00,39.8,34.5,30.87,SSE,159,3.0,8.0,81,0.00,,,0.00,120.00,VWS V14.00,2013-11-08 16:44:00,
2013-11-08 09:45:00,39.8,34.5,30.87,SSE,159,5.0,8.0,81,0.00,,,0.00,116.00,VWS V14.00,2013-11-08 16:45:00,
2013-11-08 09:46:00,39.8,34.5,30.87,SSE,159,4.0,5.0,81,0.00,,,0.00,102.00,VWS V14.00,2013-11-08 16:46:00,
2013-11-08 09:47:00,39.9,34.5,30.87,SSE,158,5.0,7.0,81,0.00,,,0.00,102.00,VWS V14.00,2013-11-08 16:47:00,
2013-11-08 09:48:00,39.9,34.5,30.87,SSE,156,4.0,8.0,81,0.00,,,0.00,104.00,VWS V14.00,2013-11-08 16:48:00,
2013-11-08 09:49:00,40.0,34.3,30.87,SSE,160,5.0,8.0,80,0.00,,,0.00,107.00,VWS V14.00,2013-11-08 16:49:00,
2013-11-08 09:50:00,40.0,34.3,30.87,SSE,160,5.0,8.0,80,0.00,,,0.00,93.00,VWS V14.00,2013-11-08 16:50:00,
2013-11-08 09:51:00,40.0,34.3,30.87,SSE,161,3.0,8.0,80,0.00,,,0.00,76.00,VWS V14.00,2013-11-08 16:51:00,
2013-11-08 09:52:00,40.1,34.4,30.87,SSE,160,4.0,8.0,80,0.00,,,0.00,74.00,VWS V14.00,2013-11-08 16:52:00,
2013-11-08 09:53:00,40.1,34.8,30.87,SSE,160,5.0,8.0,81,0.00,,,0.00,79.00,VWS V14.00,2013-11-08 16:53:00,
2013-11-08 09:54:00,40.1,34.4,30.87,SSE,161,2.0,8.0,80,0.00,,,0.00,83.00,VWS V14.00,2013-11-08 16:54:00,
2013-11-08 09:55:00,40.2,34.5,30.87,SSE,161,4.0,8.0,80,0.00,,,0.00,86.00,VWS V14.00,2013-11-08 16:55:00,
2013-11-08 09:56:00,40.2,34.8,30.87,SSE,160,0.0,8.0,81,0.00,,,0.00,86.00,VWS V14.00,2013-11-08 16:56:00,
2013-11-08 09:57:00,40.2,34.8,30.88,South,173,1.0,8.0,81,0.00,,,0.00,84.00,VWS V14.00,2013-11-08 16:57:00,
2013-11-08 09:58:00,40.2,34.8,30.87,SSE,157,6.0,8.0,81,0.00,,,0.00,83.00,VWS V14.00,2013-11-08 16:58:00,
2013-11-08 09:59:00,40.3,34.6,30.88,South,169,4.0,8.0,80,0.00,,,0.00,83.00,VWS V14.00,2013-11-08 16:59:00,
2013-11-08 10:00:00,40.3,34.6,30.88,South,175,2.0,8.0,80,0.00,,,0.00,83.00,VWS V14.00,2013-11-08 17:00:00,
2013-11-08 10:01:00,40.4,35.0,30.90,South,179,5.0,5.0,81,0.00,,,0.00,84.00,VWS V14.00,2013-11-08 17:01:00,
2013-11-08 10:02:00,40.4,35.0,30.89,South,184,8.0,8.0,81,0.00,,,0.00,88.00,VWS V14.00,2013-11-08 17:02:00,
2013-11-08 10:03:00,40.4,35.0,30.90,SSW,195,6.0,10.0,81,0.00,,,0.00,81.00,VWS V14.00,2013-11-08 17:03:00,
2013-11-08 10:04:00,40.5,35.1,30.90,SSW,195,3.0,10.0,81,0.00,,,0.00,79.00,VWS V14.00,2013-11-08 17:04:00,
2013-11-08 10:05:00,40.5,35.1,30.90,SSW,194,5.0,10.0,81,0.00,,,0.00,79.00,VWS V14.00,2013-11-08 17:05:00,
2013-11-08 10:06:00,40.5,35.1,30.90,SSW,195,8.0,10.0,81,0.00,,,0.00,77.00,VWS V14.00,2013-11-08 17:06:00,
2013-11-08 10:07:00,40.5,34.8,30.90,SSW,198,4.0,15.0,80,0.00,,,0.00,74.00,VWS V14.00,2013-11-08 17:07:00,
2013-11-08 10:08:00,40.5,34.8,30.90,South,190,6.0,15.0,80,0.00,,,0.00,69.00,VWS V14.00,2013-11-08 17:08:00,
2013-11-08 10:09:00,40.6,34.9,30.90,South,173,2.0,15.0,80,0.00,,,0.00,70.00,VWS V14.00,2013-11-08 17:09:00,
2013-11-08 10:10:00,40.6,34.9,30.90,SSE,165,4.0,15.0,80,0.00,,,0.00,74.00,VWS V14.00,2013-11-08 17:10:00,
2013-11-08 10:11:00,40.6,34.9,30.90,SSE,165,4.0,15.0,80,0.00,,,0.00,77.00,VWS V14.00,2013-11-08 17:11:00,
2013-11-08 10:12:00,40.6,34.9,30.90,SSE,160,6.0,15.0,80,0.00,,,0.00,81.00,VWS V14.00,2013-11-08 17:12:00,
2013-11-08 10:13:00,40.6,34.9,30.90,South,175,5.0,15.0,80,0.00,,,0.00,81.00,VWS V14.00,2013-11-08 17:13:00,
2013-11-08 10:14:00,40.6,34.9,30.90,South,179,3.0,15.0,80,0.00,,,0.00,83.00,VWS V14.00,2013-11-08 17:14:00,
2013-11-08 10:15:00,40.7,35.0,30.90,South,185,4.0,15.0,80,0.00,,,0.00,91.00,VWS V14.00,2013-11-08 17:15:00,
2013-11-08 10:16:00,40.7,35.0,30.90,South,175,4.0,10.0,80,0.00,,,0.00,93.00,VWS V14.00,2013-11-08 17:16:00,
2013-11-08 10:17:00,40.7,35.0,30.90,South,170,5.0,10.0,80,0.00,,,0.00,95.00,VWS V14.00,2013-11-08 17:17:00,
2013-11-08 10:18:00,40.7,35.0,30.90,SSW,202,10.0,10.0,80,0.00,,,0.00,97.00,VWS V14.00,2013-11-08 17:18:00,
2013-11-08 10:19:00,40.8,35.1,30.90,South,188,4.0,10.0,80,0.00,,,0.00,97.00,VWS V14.00,2013-11-08 17:19:00,
2013-11-08 10:20:00,40.8,35.1,30.90,South,171,2.0,10.0,80,0.00,,,0.00,95.00,VWS V14.00,2013-11-08 17:20:00,
2013-11-08 10:21:00,40.8,35.1,30.90,SSE,159,7.0,11.0,80,0.00,,,0.00,100.00,VWS V14.00,2013-11-08 17:21:00,
2013-11-08 10:22:00,40.9,34.9,30.90,SSE,155,11.0,11.0,79,0.00,,,0.00,102.00,VWS V14.00,2013-11-08 17:22:00,
2013-11-08 10:23:00,40.9,34.9,30.90,South,169,6.0,11.0,79,0.00,,,0.00,100.00,VWS V14.00,2013-11-08 17:23:00,
2013-11-08 10:24:00,40.9,34.9,30.90,SSE,166,10.0,11.0,79,0.00,,,0.00,100.00,VWS V14.00,2013-11-08 17:24:00,
2013-11-08 10:25:00,41.0,35.0,30.90,SSE,158,6.0,11.0,79,0.00,,,0.00,100.00,VWS V14.00,2013-11-08 17:25:00,
2013-11-08 10:26:00,41.0,34.7,30.90,SSE,160,6.0,11.0,78,0.00,,,0.00,102.00,VWS V14.00,2013-11-08 17:26:00,
2013-11-08 10:27:00,41.0,35.0,30.90,South,171,4.0,11.0,79,0.00,,,0.00,104.00,VWS V14.00,2013-11-08 17:27:00,
2013-11-08 10:28:00,41.1,35.1,30.90,SSE,161,6.0,11.0,79,0.00,,,0.00,105.00,VWS V14.00,2013-11-08 17:28:00,
2013-11-08 10:29:00,41.1,35.1,30.90,SSE,168,10.0,11.0,79,0.00,,,0.00,111.00,VWS V14.00,2013-11-08 17:29:00,
2013-11-08 10:30:00,41.1,34.8,30.90,South,169,4.0,11.0,78,0.00,,,0.00,114.00,VWS V14.00,2013-11-08 17:30:00,
2013-11-08 10:31:00,41.2,34.9,30.90,SSW,201,6.0,13.0,78,0.00,,,0.00,120.00,VWS V14.00,2013-11-08 17:31:00,
2013-11-08 10:32:00,41.2,34.9,30.90,South,190,12.0,13.0,78,0.00,,,0.00,123.00,VWS V14.00,2013-11-08 17:32:00,
2013-11-08 10:33:00,41.3,35.0,30.90,South,171,4.0,18.0,78,0.00,,,0.00,120.00,VWS V14.00,2013-11-08 17:33:00,
2013-11-08 10:34:00,41.3,35.0,30.91,SSE,149,9.0,18.0,78,0.00,,,0.00,120.00,VWS V14.00,2013-11-08 17:34:00,
2013-11-08 10:35:00,41.4,35.1,30.91,South,170,6.0,18.0,78,0.00,,,0.00,118.00,VWS V14.00,2013-11-08 17:35:00,
2013-11-08 10:36:00,41.4,35.1,30.91,SSE,161,5.0,18.0,78,0.00,,,0.00,118.00,VWS V14.00,2013-11-08 17:36:00,
2013-11-08 10:37:00,41.5,35.2,30.90,SSE,163,6.0,18.0,78,0.00,,,0.00,118.00,VWS V14.00,2013-11-08 17:37:00,
2013-11-08 10:38:00,41.5,35.2,30.89,South,174,6.0,18.0,78,0.00,,,0.00,120.00,VWS V14.00,2013-11-08 17:38:00,
2013-11-08 10:39:00,41.5,34.8,30.89,SSE,161,5.0,18.0,77,0.00,,,0.00,113.00,VWS V14.00,2013-11-08 17:39:00,
2013-11-08 10:40:00,41.6,35.3,30.89,South,172,4.0,18.0,78,0.00,,,0.00,109.00,VWS V14.00,2013-11-08 17:40:00,
2013-11-08 10:41:00,41.6,35.3,30.90,SE,146,10.0,18.0,78,0.00,,,0.00,104.00,VWS V14.00,2013-11-08 17:41:00,
2013-11-08 10:42:00,41.6,35.3,30.90,SSE,166,9.0,18.0,78,0.00,,,0.00,98.00,VWS V14.00,2013-11-08 17:42:00,
2013-11-08 10:43:00,41.6,34.9,30.90,SSE,160,6.0,18.0,77,0.00,,,0.00,91.00,VWS V14.00,2013-11-08 17:43:00,
2013-11-08 10:44:00,41.7,35.0,30.90,SSE,167,4.0,18.0,77,0.00,,,0.00,90.00,VWS V14.00,2013-11-08 17:44:00,
2013-11-08 10:45:00,41.7,35.0,30.90,SSE,166,5.0,18.0,77,0.00,,,0.00,86.00,VWS V14.00,2013-11-08 17:45:00,
2013-11-08 10:46:00,41.7,35.0,30.90,South,189,4.0,7.0,77,0.00,,,0.00,88.00,VWS V14.00,2013-11-08 17:46:00,
2013-11-08 10:47:00,41.7,35.0,30.90,South,180,5.0,7.0,77,0.00,,,0.00,84.00,VWS V14.00,2013-11-08 17:47:00,
2013-11-08 10:48:00,41.8,35.5,30.90,South,186,4.0,7.0,78,0.00,,,0.00,81.00,VWS V14.00,2013-11-08 17:48:00,
2013-11-08 10:49:00,41.8,35.5,30.90,South,173,4.0,8.0,78,0.00,,,0.00,81.00,VWS V14.00,2013-11-08 17:49:00,
2013-11-08 10:50:00,41.8,35.5,30.90,SSE,163,5.0,8.0,78,0.00,,,0.00,77.00,VWS V14.00,2013-11-08 17:50:00,
2013-11-08 10:51:00,41.8,35.5,30.90,South,175,4.0,8.0,78,0.00,,,0.00,76.00,VWS V14.00,2013-11-08 17:51:00,
2013-11-08 10:52:00,41.8,35.1,30.90,SSE,168,4.0,8.0,77,0.00,,,0.00,72.00,VWS V14.00,2013-11-08 17:52:00,
2013-11-08 10:53:00,41.8,35.5,30.90,SSE,157,8.0,9.0,78,0.00,,,0.00,70.00,VWS V14.00,2013-11-08 17:53:00,
2013-11-08 10:54:00,41.8,35.1,30.90,South,176,2.0,10.0,77,0.00,,,0.00,69.00,VWS V14.00,2013-11-08 17:54:00,
2013-11-08 10:55:00,41.8,35.1,30.90,South,182,4.0,10.0,77,0.00,,,0.00,69.00,VWS V14.00,2013-11-08 17:55:00,
2013-11-08 10:56:00,41.8,35.1,30.90,SSE,164,6.0,10.0,77,0.00,,,0.00,72.00,VWS V14.00,2013-11-08 17:56:00,
2013-11-08 10:57:00,41.8,35.1,30.90,South,175,3.0,11.0,77,0.00,,,0.00,76.00,VWS V14.00,2013-11-08 17:57:00,
2013-11-08 10:58:00,41.8,35.1,30.90,South,180,4.0,11.0,77,0.00,,,0.00,69.00,VWS V14.00,2013-11-08 17:58:00,
2013-11-08 10:59:00,41.8,35.1,30.90,SSE,164,3.0,11.0,77,0.00,,,0.00,67.00,VWS V14.00,2013-11-08 17:59:00,
2013-11-08 11:00:00,41.8,35.1,30.90,SSE,163,4.0,11.0,77,0.00,,,0.00,63.00,VWS V14.00,2013-11-08 18:00:00,
2013-11-08 11:01:00,41.8,35.1,30.91,SSE,167,2.0,6.0,77,0.00,,,0.00,60.00,VWS V14.00,2013-11-08 18:01:00,
2013-11-08 11:02:00,41.8,35.1,30.91,South,172,4.0,6.0,77,0.00,,,0.00,62.00,VWS V14.00,2013-11-08 18:02:00,
2013-11-08 11:03:00,41.8,35.1,30.91,SSE,168,5.0,9.0,77,0.00,,,0.00,63.00,VWS V14.00,2013-11-08 18:03:00,
2013-11-08 11:04:00,41.8,35.1,30.91,SSE,165,5.0,9.0,77,0.00,,,0.00,65.00,VWS V14.00,2013-11-08 18:04:00,
2013-11-08 11:05:00,41.8,34.8,30.91,South,175,3.0,9.0,76,0.00,,,0.00,65.00,VWS V14.00,2013-11-08 18:05:00,
2013-11-08 11:06:00,41.8,34.8,30.92,SSE,162,4.0,9.0,76,0.00,,,0.00,70.00,VWS V14.00,2013-11-08 18:06:00,
2013-11-08 11:07:00,41.8,35.1,30.91,SSE,160,5.0,9.0,77,0.00,,,0.00,77.00,VWS V14.00,2013-11-08 18:07:00,
2013-11-08 11:08:00,41.8,35.1,30.91,South,191,6.0,9.0,77,0.00,,,0.00,88.00,VWS V14.00,2013-11-08 18:08:00,
2013-11-08 11:09:00,41.9,34.9,30.91,SSE,165,5.0,9.0,76,0.00,,,0.00,86.00,VWS V14.00,2013-11-08 18:09:00,
2013-11-08 11:10:00,41.8,35.1,30.91,SSE,165,7.0,11.0,77,0.00,,,0.00,84.00,VWS V14.00,2013-11-08 18:10:00,
2013-11-08 11:11:00,41.9,35.2,30.91,SSW,207,6.0,11.0,77,0.00,,,0.00,84.00,VWS V14.00,2013-11-08 18:11:00,
2013-11-08 11:12:00,41.9,35.2,30.91,South,169,5.0,11.0,77,0.00,,,0.00,88.00,VWS V14.00,2013-11-08 18:12:00,
2013-11-08 11:13:00,41.9,35.2,30.92,SSE,165,3.0,11.0,77,0.00,,,0.00,91.00,VWS V14.00,2013-11-08 18:13:00,
2013-11-08 11:14:00,41.9,35.2,30.91,SSE,165,5.0,11.0,77,0.00,,,0.00,100.00,VWS V14.00,2013-11-08 18:14:00,
2013-11-08 11:15:00,41.9,35.2,30.91,SSE,155,4.0,11.0,77,0.00,,,0.00,104.00,VWS V14.00,2013-11-08 18:15:00,
2013-11-08 11:16:00,41.9,35.2,30.91,South,190,5.0,5.0,77,0.00,,,0.00,107.00,VWS V14.00,2013-11-08 18:16:00,
2013-11-08 11:17:00,41.9,35.2,30.91,South,184,3.0,7.0,77,0.00,,,0.00,113.00,VWS V14.00,2013-11-08 18:17:00,
2013-11-08 11:18:00,41.9,35.2,30.91,South,181,5.0,10.0,77,0.00,,,0.00,118.00,VWS V14.00,2013-11-08 18:18:00,
2013-11-08 11:19:00,42.0,35.3,30.91,SSE,163,6.0,10.0,77,0.00,,,0.00,118.00,VWS V14.00,2013-11-08 18:19:00,
2013-11-08 11:20:00,42.0,35.3,30.91,South,169,5.0,10.0,77,0.00,,,0.00,98.00,VWS V14.00,2013-11-08 18:20:00,
2013-11-08 11:21:00,42.0,35.0,30.91,SSE,165,5.0,10.0,76,0.00,,,0.00,88.00,VWS V14.00,2013-11-08 18:21:00,
2013-11-08 11:22:00,42.0,35.3,30.91,South,188,6.0,10.0,77,0.00,,,0.00,81.00,VWS V14.00,2013-11-08 18:22:00,
2013-11-08 11:23:00,42.0,35.0,30.91,SSE,167,6.0,10.0,76,0.00,,,0.00,77.00,VWS V14.00,2013-11-08 18:23:00,
2013-11-08 11:24:00,42.1,35.1,30.91,SSE,164,4.0,10.0,76,0.00,,,0.00,77.00,VWS V14.00,2013-11-08 18:24:00,
2013-11-08 11:25:00,42.1,35.1,30.91,South,185,3.0,10.0,76,0.00,,,0.00,79.00,VWS V14.00,2013-11-08 18:25:00,
2013-11-08 11:26:00,42.1,35.1,30.92,South,184,6.0,10.0,76,0.00,,,0.00,79.00,VWS V14.00,2013-11-08 18:26:00,
2013-11-08 11:27:00,42.1,34.8,30.92,SSE,161,9.0,12.0,75,0.00,,,0.00,79.00,VWS V14.00,2013-11-08 18:27:00,
2013-11-08 11:28:00,42.1,34.8,30.92,South,176,7.0,12.0,75,0.00,,,0.00,77.00,VWS V14.00,2013-11-08 18:28:00,
2013-11-08 11:29:00,42.1,34.8,30.91,SSE,168,5.0,12.0,75,0.00,,,0.00,74.00,VWS V14.00,2013-11-08 18:29:00,
2013-11-08 11:30:00,42.1,34.8,30.92,SSE,165,7.0,12.0,75,0.00,,,0.00,70.00,VWS V14.00,2013-11-08 18:30:00,
2013-11-08 11:31:00,42.1,34.8,30.92,South,170,4.0,8.0,75,0.00,,,0.00,69.00,VWS V14.00,2013-11-08 18:31:00,
2013-11-08 11:32:00,42.2,34.9,30.92,SSE,161,7.0,10.0,75,0.00,,,0.00,69.00,VWS V14.00,2013-11-08 18:32:00,
2013-11-08 11:33:00,42.2,34.9,30.92,South,184,3.0,10.0,75,0.00,,,0.00,72.00,VWS V14.00,2013-11-08 18:33:00,
2013-11-08 11:34:00,42.2,35.2,30.92,South,174,4.0,10.0,76,0.00,,,0.00,74.00,VWS V14.00,2013-11-08 18:34:00,
2013-11-08 11:35:00,42.2,35.2,30.92,SSE,165,6.0,10.0,76,0.00,,,0.00,72.00,VWS V14.00,2013-11-08 18:35:00,
2013-11-08 11:36:00,42.2,35.2,30.92,South,176,3.0,10.0,76,0.00,,,0.00,69.00,VWS V14.00,2013-11-08 18:36:00,
2013-11-08 11:37:00,42.2,35.2,30.92,SSE,168,6.0,10.0,76,0.00,,,0.00,65.00,VWS V14.00,2013-11-08 18:37:00,
2013-11-08 11:38:00,42.2,35.2,30.92,South,171,2.0,10.0,76,0.00,,,0.00,63.00,VWS V14.00,2013-11-08 18:38:00,
2013-11-08 11:39:00,42.2,35.2,30.92,SSW,196,6.0,10.0,76,0.00,,,0.00,63.00,VWS V14.00,2013-11-08 18:39:00,
2013-11-08 11:40:00,42.2,35.2,30.92,SSE,158,6.0,10.0,76,0.00,,,0.00,65.00,VWS V14.00,2013-11-08 18:40:00,
2013-11-08 11:41:00,42.2,35.2,30.91,South,169,3.0,10.0,76,0.00,,,0.00,70.00,VWS V14.00,2013-11-08 18:41:00,
2013-11-08 11:42:00,42.2,35.2,30.91,SSE,167,4.0,10.0,76,0.00,,,0.00,74.00,VWS V14.00,2013-11-08 18:42:00,
2013-11-08 11:43:00,42.2,35.2,30.92,South,179,4.0,10.0,76,0.00,,,0.00,79.00,VWS V14.00,2013-11-08 18:43:00,
2013-11-08 11:44:00,42.2,35.2,30.92,SSE,165,4.0,10.0,76,0.00,,,0.00,86.00,VWS V14.00,2013-11-08 18:44:00,
2013-11-08 11:45:00,42.2,35.2,30.91,SSE,166,5.0,10.0,76,0.00,,,0.00,86.00,VWS V14.00,2013-11-08 18:45:00,
2013-11-08 11:46:00,42.2,34.9,30.91,South,183,6.0,9.0,75,0.00,,,0.00,76.00,VWS V14.00,2013-11-08 18:46:00,
2013-11-08 11:47:00,42.2,34.9,30.91,SSE,157,11.0,11.0,75,0.00,,,0.00,69.00,VWS V14.00,2013-11-08 18:47:00,
2013-11-08 11:48:00,42.2,34.9,30.91,SSE,165,5.0,11.0,75,0.00,,,0.00,69.00,VWS V14.00,2013-11-08 18:48:00,
2013-11-08 11:49:00,42.3,35.0,30.91,South,190,3.0,11.0,75,0.00,,,0.00,74.00,VWS V14.00,2013-11-08 18:49:00,
2013-11-08 11:50:00,42.3,35.0,30.91,SSE,156,11.0,13.0,75,0.00,,,0.00,81.00,VWS V14.00,2013-11-08 18:50:00,
2013-11-08 11:51:00,42.3,35.0,30.91,SSE,164,9.0,13.0,75,0.00,,,0.00,91.00,VWS V14.00,2013-11-08 18:51:00,
2013-11-08 11:52:00,42.3,35.0,30.92,SSW,202,6.0,13.0,75,0.00,,,0.00,102.00,VWS V14.00,2013-11-08 18:52:00,
2013-11-08 11:53:00,42.3,35.0,30.91,SSW,193,7.0,13.0,75,0.00,,,0.00,105.00,VWS V14.00,2013-11-08 18:53:00,
2013-11-08 11:54:00,42.3,35.0,30.91,SSE,166,5.0,13.0,75,0.00,,,0.00,111.00,VWS V14.00,2013-11-08 18:54:00,
2013-11-08 11:55:00,42.4,35.0,30.92,SSE,167,5.0,13.0,75,0.00,,,0.00,120.00,VWS V14.00,2013-11-08 18:55:00,
2013-11-08 11:56:00,42.4,35.0,30.91,SSE,164,9.0,13.0,75,0.00,,,0.00,125.00,VWS V14.00,2013-11-08 18:56:00,
2013-11-08 11:57:00,42.4,35.0,30.91,South,171,6.0,13.0,75,0.00,,,0.00,134.00,VWS V14.00,2013-11-08 18:57:00,
2013-11-08 11:58:00,42.5,34.8,30.91,SSE,153,7.0,13.0,74,0.00,,,0.00,141.00,VWS V14.00,2013-11-08 18:58:00,
2013-11-08 11:59:00,42.5,34.8,30.90,SSE,166,5.0,13.0,74,0.00,,,0.00,144.00,VWS V14.00,2013-11-08 18:59:00,
2013-11-08 12:00:00,42.6,34.9,30.90,SSE,162,5.0,13.0,74,0.00,,,0.00,142.00,VWS V14.00,2013-11-08 19:00:00,
2013-11-08 12:01:00,42.7,35.0,30.89,South,190,10.0,10.0,74,0.00,,,0.00,139.00,VWS V14.00,2013-11-08 19:01:00,
2013-11-08 12:02:00,42.7,35.0,30.89,South,178,4.0,11.0,74,0.00,,,0.00,141.00,VWS V14.00,2013-11-08 19:02:00,
2013-11-08 12:03:00,42.7,35.0,30.89,SE,144,10.0,14.0,74,0.00,,,0.00,146.00,VWS V14.00,2013-11-08 19:03:00,
2013-11-08 12:04:00,42.8,34.8,30.89,SSE,163,6.0,14.0,73,0.00,,,0.00,156.00,VWS V14.00,2013-11-08 19:04:00,
2013-11-08 12:05:00,42.9,34.8,30.89,SSE,156,6.0,14.0,73,0.00,,,0.00,160.00,VWS V14.00,2013-11-08 19:05:00,
2013-11-08 12:06:00,42.9,34.8,30.89,South,173,9.0,14.0,73,0.00,,,0.00,153.00,VWS V14.00,2013-11-08 19:06:00,
2013-11-08 12:07:00,43.0,35.0,30.89,South,175,5.0,14.0,73,0.00,,,0.00,142.00,VWS V14.00,2013-11-08 19:07:00,
2013-11-08 12:08:00,43.1,35.0,30.89,SSW,208,12.0,14.0,73,0.00,,,0.00,139.00,VWS V14.00,2013-11-08 19:08:00,
2013-11-08 12:09:00,43.1,35.0,30.89,SSE,167,11.0,14.0,73,0.00,,,0.00,142.00,VWS V14.00,2013-11-08 19:09:00,
2013-11-08 12:10:00,43.2,34.8,30.89,South,169,7.0,14.0,72,0.00,,,0.00,160.00,VWS V14.00,2013-11-08 19:10:00,
2013-11-08 12:11:00,43.2,34.8,30.89,SSE,157,5.0,14.0,72,0.00,,,0.00,171.00,VWS V14.00,2013-11-08 19:11:00,
2013-11-08 12:12:00,43.3,34.9,30.89,SSE,165,4.0,14.0,72,0.00,,,0.00,174.00,VWS V14.00,2013-11-08 19:12:00,
2013-11-08 12:13:00,43.3,34.9,30.89,SSE,167,5.0,14.0,72,0.00,,,0.00,169.00,VWS V14.00,2013-11-08 19:13:00,
2013-11-08 12:14:00,43.4,35.3,30.89,South,176,10.0,14.0,73,0.00,,,0.00,156.00,VWS V14.00,2013-11-08 19:14:00,
2013-11-08 12:15:00,43.4,34.6,30.89,SSE,163,3.0,14.0,71,0.00,,,0.00,165.00,VWS V14.00,2013-11-08 19:15:00,
2013-11-08 12:16:00,43.5,35.1,30.89,South,181,5.0,10.0,72,0.00,,,0.00,174.00,VWS V14.00,2013-11-08 19:16:00,
2013-11-08 12:17:00,43.5,35.1,30.89,South,179,10.0,11.0,72,0.00,,,0.00,174.00,VWS V14.00,2013-11-08 19:17:00,
2013-11-08 12:18:00,43.6,34.8,30.89,SSE,165,5.0,11.0,71,0.00,,,0.00,248.00,VWS V14.00,2013-11-08 19:18:00,
2013-11-08 12:19:00,43.7,35.3,30.89,SSE,165,7.0,11.0,72,0.00,,,0.00,148.00,VWS V14.00,2013-11-08 19:19:00,
2013-11-08 12:20:00,43.7,34.9,30.89,SSE,155,7.0,11.0,71,0.00,,,0.00,148.00,VWS V14.00,2013-11-08 19:20:00,
2013-11-08 12:21:00,43.7,34.6,30.89,South,188,5.0,11.0,70,0.00,,,0.00,146.00,VWS V14.00,2013-11-08 19:21:00,
2013-11-08 12:22:00,43.8,35.0,30.89,South,172,2.0,11.0,71,0.00,,,0.00,142.00,VWS V14.00,2013-11-08 19:22:00,
2013-11-08 12:23:00,43.8,35.0,30.89,South,182,4.0,11.0,71,0.00,,,0.00,149.00,VWS V14.00,2013-11-08 19:23:00,
2013-11-08 12:24:00,43.9,34.8,30.89,South,170,5.0,12.0,70,0.00,,,0.00,141.00,VWS V14.00,2013-11-08 19:24:00,
2013-11-08 12:25:00,43.9,34.4,30.89,SSE,164,5.0,12.0,69,0.00,,,0.00,134.00,VWS V14.00,2013-11-08 19:25:00,
2013-11-08 12:26:00,43.9,34.4,30.89,SSE,167,4.0,12.0,69,0.00,,,0.00,132.00,VWS V14.00,2013-11-08 19:26:00,
2013-11-08 12:27:00,44.0,34.5,30.89,SSW,199,11.0,12.0,69,0.00,,,0.00,137.00,VWS V14.00,2013-11-08 19:27:00,
2013-11-08 12:28:00,44.0,34.5,30.89,South,173,3.0,12.0,69,0.00,,,0.00,141.00,VWS V14.00,2013-11-08 19:28:00,
2013-11-08 12:29:00,44.0,34.9,30.89,South,172,8.0,12.0,70,0.00,,,0.00,144.00,VWS V14.00,2013-11-08 19:29:00,
2013-11-08 12:30:00,44.0,34.5,30.89,South,190,6.0,12.0,69,0.00,,,0.00,125.00,VWS V14.00,2013-11-08 19:30:00,
2013-11-08 12:31:00,44.0,34.1,30.89,South,169,10.0,13.0,68,0.00,,,0.00,120.00,VWS V14.00,2013-11-08 19:31:00,
2013-11-08 12:32:00,44.0,34.1,30.89,SSE,167,6.0,13.0,68,0.00,,,0.00,123.00,VWS V14.00,2013-11-08 19:32:00,
2013-11-08 12:33:00,44.0,34.1,30.89,SSE,163,3.0,13.0,68,0.00,,,0.00,128.00,VWS V14.00,2013-11-08 19:33:00,
2013-11-08 12:34:00,44.0,34.5,30.89,South,188,6.0,13.0,69,0.00,,,0.00,127.00,VWS V14.00,2013-11-08 19:34:00,
2013-11-08 12:35:00,44.1,34.6,30.89,South,180,6.0,13.0,69,0.00,,,0.00,121.00,VWS V14.00,2013-11-08 19:35:00,
2013-11-08 12:36:00,44.1,34.6,30.89,South,173,5.0,13.0,69,0.00,,,0.00,111.00,VWS V14.00,2013-11-08 19:36:00,
2013-11-08 12:37:00,44.1,34.6,30.89,SSE,157,7.0,13.0,69,0.00,,,0.00,118.00,VWS V14.00,2013-11-08 19:37:00,
2013-11-08 12:38:00,44.1,34.6,30.89,SSE,157,7.0,13.0,69,0.00,,,0.00,132.00,VWS V14.00,2013-11-08 19:38:00,
2013-11-08 12:39:00,44.1,34.2,30.89,South,172,4.0,13.0,68,0.00,,,0.00,142.00,VWS V14.00,2013-11-08 19:39:00,
2013-11-08 12:40:00,44.0,34.1,30.89,SSE,161,3.0,13.0,68,0.00,,,0.00,155.00,VWS V14.00,2013-11-08 19:40:00,
2013-11-08 12:41:00,44.1,34.2,30.89,South,174,4.0,13.0,68,0.00,,,0.00,171.00,VWS V14.00,2013-11-08 19:41:00,
2013-11-08 12:42:00,44.1,34.6,30.89,South,190,9.0,13.0,69,0.00,,,0.00,193.00,VWS V14.00,2013-11-08 19:42:00,
2013-11-08 12:43:00,44.1,35.0,30.89,South,191,12.0,15.0,70,0.00,,,0.00,234.00,VWS V14.00,2013-11-08 19:43:00,
2013-11-08 12:44:00,44.2,34.7,30.89,South,173,4.0,15.0,69,0.00,,,0.00,199.00,VWS V14.00,2013-11-08 19:44:00,
2013-11-08 12:45:00,44.2,34.3,30.89,South,169,14.0,15.0,68,0.00,,,0.00,199.00,VWS V14.00,2013-11-08 19:45:00,
2013-11-08 12:46:00,44.2,34.3,30.89,South,188,11.0,14.0,68,0.00,,,0.00,200.00,VWS V14.00,2013-11-08 19:46:00,
2013-11-08 12:47:00,44.2,34.7,30.89,South,184,3.0,14.0,69,0.00,,,0.00,202.00,VWS V14.00,2013-11-08 19:47:00,
2013-11-08 12:48:00,44.3,35.2,30.89,South,184,5.0,14.0,70,0.00,,,0.00,202.00,VWS V14.00,2013-11-08 19:48:00,
2013-11-08 12:49:00,44.3,35.2,30.89,SSE,166,6.0,14.0,70,0.00,,,0.00,206.00,VWS V14.00,2013-11-08 19:49:00,
2013-11-08 12:50:00,44.4,34.5,30.89,South,180,3.0,14.0,68,0.00,,,0.00,202.00,VWS V14.00,2013-11-08 19:50:00,
2013-11-08 12:51:00,44.5,35.0,30.89,SSE,165,5.0,14.0,69,0.00,,,0.00,213.00,VWS V14.00,2013-11-08 19:51:00,
2013-11-08 12:52:00,44.5,35.0,30.88,SSW,205,3.0,14.0,69,0.00,,,0.00,218.00,VWS V14.00,2013-11-08 19:52:00,
2013-11-08 12:53:00,44.5,35.0,30.88,South,171,6.0,14.0,69,0.00,,,0.00,232.00,VWS V14.00,2013-11-08 19:53:00,
2013-11-08 12:54:00,44.6,35.1,30.88,South,175,6.0,14.0,69,0.00,,,0.00,262.00,VWS V14.00,2013-11-08 19:54:00,
2013-11-08 12:55:00,44.7,34.8,30.88,SSW,196,11.0,14.0,68,0.00,,,0.00,234.00,VWS V14.00,2013-11-08 19:55:00,
2013-11-08 12:56:00,44.7,35.2,30.88,SSW,195,5.0,14.0,69,0.00,,,0.00,227.00,VWS V14.00,2013-11-08 19:56:00,
2013-11-08 12:57:00,44.9,35.4,30.88,South,178,6.0,14.0,69,0.00,,,0.00,221.00,VWS V14.00,2013-11-08 19:57:00,
2013-11-08 12:58:00,44.9,35.0,30.88,SSE,159,7.0,14.0,68,0.00,,,0.00,237.00,VWS V14.00,2013-11-08 19:58:00,
2013-11-08 12:59:00,45.0,34.7,30.88,SSE,163,5.0,14.0,67,0.00,,,0.00,260.00,VWS V14.00,2013-11-08 19:59:00,
2013-11-08 13:00:00,45.0,35.1,30.88,SSW,199,7.0,14.0,68,0.00,,,0.00,239.00,VWS V14.00,2013-11-08 20:00:00,
2013-11-08 13:01:00,45.0,35.1,30.88,SSW,200,10.0,10.0,68,0.00,,,0.00,221.00,VWS V14.00,2013-11-08 20:01:00,
2013-11-08 13:02:00,45.1,35.2,30.88,SSE,165,12.0,12.0,68,0.00,,,0.00,216.00,VWS V14.00,2013-11-08 20:02:00,
2013-11-08 13:03:00,45.2,34.9,30.88,SSE,161,9.0,12.0,67,0.00,,,0.00,218.00,VWS V14.00,2013-11-08 20:03:00,
2013-11-08 13:04:00,45.2,34.9,30.88,South,175,4.0,12.0,67,0.00,,,0.00,211.00,VWS V14.00,2013-11-08 20:04:00,
2013-11-08 13:05:00,45.3,34.6,30.88,South,182,5.0,12.0,66,0.00,,,0.00,185.00,VWS V14.00,2013-11-08 20:05:00,
2013-11-08 13:06:00,45.3,34.6,30.88,South,178,6.0,12.0,66,0.00,,,0.00,172.00,VWS V14.00,2013-11-08 20:06:00,
2013-11-08 13:07:00,45.4,34.3,30.88,South,169,4.0,12.0,65,0.00,,,0.00,171.00,VWS V14.00,2013-11-08 20:07:00,
2013-11-08 13:08:00,45.4,34.7,30.88,South,171,5.0,12.0,66,0.00,,,0.00,179.00,VWS V14.00,2013-11-08 20:08:00,
2013-11-08 13:09:00,45.4,34.3,30.88,South,184,9.0,12.0,65,0.00,,,0.00,193.00,VWS V14.00,2013-11-08 20:09:00,
2013-11-08 13:10:00,45.4,34.3,30.88,SSW,196,10.0,12.0,65,0.00,,,0.00,207.00,VWS V14.00,2013-11-08 20:10:00,
2013-11-08 13:11:00,45.4,34.3,30.88,South,185,6.0,13.0,65,0.00,,,0.00,206.00,VWS V14.00,2013-11-08 20:11:00,
2013-11-08 13:12:00,45.4,34.7,30.88,South,170,4.0,13.0,66,0.00,,,0.00,197.00,VWS V14.00,2013-11-08 20:12:00,
2013-11-08 13:13:00,45.5,34.8,30.88,SSE,164,6.0,15.0,66,0.00,,,0.00,188.00,VWS V14.00,2013-11-08 20:13:00,
2013-11-08 13:14:00,45.4,34.3,30.88,SSE,165,6.0,15.0,65,0.00,,,0.00,178.00,VWS V14.00,2013-11-08 20:14:00,
2013-11-08 13:15:00,45.4,34.3,30.88,South,180,5.0,15.0,65,0.00,,,0.00,172.00,VWS V14.00,2013-11-08 20:15:00,
2013-11-08 13:16:00,45.4,34.3,30.88,South,175,3.0,13.0,65,0.00,,,0.00,171.00,VWS V14.00,2013-11-08 20:16:00,
2013-11-08 13:17:00,45.3,34.2,30.88,SSE,168,9.0,13.0,65,0.00,,,0.00,160.00,VWS V14.00,2013-11-08 20:17:00,
2013-11-08 13:18:00,45.3,34.2,30.88,South,187,6.0,13.0,65,0.00,,,0.00,151.00,VWS V14.00,2013-11-08 20:18:00,
2013-11-08 13:19:00,45.3,34.6,30.88,SSW,199,10.0,15.0,66,0.00,,,0.00,144.00,VWS V14.00,2013-11-08 20:19:00,
2013-11-08 13:20:00,45.2,34.5,30.88,SSW,204,9.0,15.0,66,0.00,,,0.00,144.00,VWS V14.00,2013-11-08 20:20:00,
2013-11-08 13:21:00,45.2,34.5,30.88,SSW,200,8.0,15.0,66,0.00,,,0.00,144.00,VWS V14.00,2013-11-08 20:21:00,
2013-11-08 13:22:00,45.2,34.5,30.88,SSW,203,3.0,15.0,66,0.00,,,0.00,144.00,VWS V14.00,2013-11-08 20:22:00,
2013-11-08 13:23:00,45.2,34.9,30.88,SSE,157,10.0,15.0,67,0.00,,,0.00,134.00,VWS V14.00,2013-11-08 20:23:00,
2013-11-08 13:24:00,45.1,34.4,30.88,SSE,162,3.0,15.0,66,0.00,,,0.00,134.00,VWS V14.00,2013-11-08 20:24:00,
2013-11-08 13:25:00,45.1,34.4,30.88,SSE,163,5.0,15.0,66,0.00,,,0.00,135.00,VWS V14.00,2013-11-08 20:25:00,
2013-11-08 13:26:00,45.0,34.3,30.88,South,190,7.0,15.0,66,0.00,,,0.00,139.00,VWS V14.00,2013-11-08 20:26:00,
2013-11-08 13:27:00,45.0,34.3,30.88,South,191,4.0,15.0,66,0.00,,,0.00,149.00,VWS V14.00,2013-11-08 20:27:00,
2013-11-08 13:28:00,45.0,34.3,30.88,South,170,4.0,15.0,66,0.00,,,0.00,162.00,VWS V14.00,2013-11-08 20:28:00,
2013-11-08 13:29:00,45.0,34.7,30.88,SSW,198,3.0,15.0,67,0.00,,,0.00,167.00,VWS V14.00,2013-11-08 20:29:00,
2013-11-08 13:30:00,45.0,34.7,30.88,South,179,4.0,15.0,67,0.00,,,0.00,167.00,VWS V14.00,2013-11-08 20:30:00,
2013-11-08 13:31:00,45.0,34.7,30.88,South,186,4.0,10.0,67,0.00,,,0.00,167.00,VWS V14.00,2013-11-08 20:31:00,
2013-11-08 13:32:00,45.0,34.7,30.88,SSE,160,10.0,10.0,67,0.00,,,0.00,162.00,VWS V14.00,2013-11-08 20:32:00,
2013-11-08 13:33:00,45.0,34.7,30.88,SSW,205,7.0,10.0,67,0.00,,,0.00,160.00,VWS V14.00,2013-11-08 20:33:00,
2013-11-08 13:34:00,45.0,34.7,30.88,SSE,165,4.0,10.0,67,0.00,,,0.00,160.00,VWS V14.00,2013-11-08 20:34:00,
2013-11-08 13:35:00,45.0,34.7,30.88,SSE,167,4.0,10.0,67,0.00,,,0.00,158.00,VWS V14.00,2013-11-08 20:35:00,
2013-11-08 13:36:00,45.0,35.1,30.88,South,186,5.0,10.0,68,0.00,,,0.00,158.00,VWS V14.00,2013-11-08 20:36:00,
2013-11-08 13:37:00,45.0,34.7,30.88,South,190,5.0,10.0,67,0.00,,,0.00,162.00,VWS V14.00,2013-11-08 20:37:00,
2013-11-08 13:38:00,45.0,34.7,30.88,SSE,159,4.0,10.0,67,0.00,,,0.00,165.00,VWS V14.00,2013-11-08 20:38:00,
2013-11-08 13:39:00,45.0,34.7,30.88,SSE,160,5.0,11.0,67,0.00,,,0.00,167.00,VWS V14.00,2013-11-08 20:39:00,
2013-11-08 13:40:00,45.0,34.7,30.88,SSE,166,5.0,11.0,67,0.00,,,0.00,169.00,VWS V14.00,2013-11-08 20:40:00,
2013-11-08 13:41:00,45.0,34.7,30.88,South,173,4.0,11.0,67,0.00,,,0.00,169.00,VWS V14.00,2013-11-08 20:41:00,
2013-11-08 13:42:00,45.0,34.7,30.88,SSE,167,3.0,11.0,67,0.00,,,0.00,167.00,VWS V14.00,2013-11-08 20:42:00,
2013-11-08 13:43:00,44.9,34.6,30.88,SSW,200,4.0,11.0,67,0.00,,,0.00,167.00,VWS V14.00,2013-11-08 20:43:00,
2013-11-08 13:44:00,44.9,34.6,30.88,South,177,3.0,11.0,67,0.00,,,0.00,167.00,VWS V14.00,2013-11-08 20:44:00,
2013-11-08 13:45:00,44.9,34.6,30.88,South,172,5.0,11.0,67,0.00,,,0.00,165.00,VWS V14.00,2013-11-08 20:45:00,
2013-11-08 13:46:00,44.9,34.2,30.88,South,173,3.0,10.0,66,0.00,,,0.00,172.00,VWS V14.00,2013-11-08 20:46:00,
2013-11-08 13:47:00,45.0,34.7,30.88,South,171,5.0,10.0,67,0.00,,,0.00,183.00,VWS V14.00,2013-11-08 20:47:00,
2013-11-08 13:48:00,45.0,34.7,30.89,South,171,5.0,10.0,67,0.00,,,0.00,193.00,VWS V14.00,2013-11-08 20:48:00,
2013-11-08 13:49:00,45.0,34.7,30.88,SSE,165,6.0,11.0,67,0.00,,,0.00,192.00,VWS V14.00,2013-11-08 20:49:00,
2013-11-08 13:50:00,45.0,34.7,30.88,SSE,162,3.0,11.0,67,0.00,,,0.00,181.00,VWS V14.00,2013-11-08 20:50:00,
2013-11-08 13:51:00,45.0,35.1,30.88,SSE,165,5.0,11.0,68,0.00,,,0.00,185.00,VWS V14.00,2013-11-08 20:51:00,
2013-11-08 13:52:00,45.0,34.7,30.88,SSE,160,8.0,11.0,67,0.00,,,0.00,202.00,VWS V14.00,2013-11-08 20:52:00,
2013-11-08 13:53:00,45.0,34.7,30.88,SSE,160,2.0,11.0,67,0.00,,,0.00,211.00,VWS V14.00,2013-11-08 20:53:00,
2013-11-08 13:54:00,45.0,34.3,30.88,South,171,5.0,11.0,66,0.00,,,0.00,218.00,VWS V14.00,2013-11-08 20:54:00,
2013-11-08 13:55:00,45.0,34.0,30.88,SSE,159,5.0,11.0,65,0.00,,,0.00,211.00,VWS V14.00,2013-11-08 20:55:00,
2013-11-08 13:56:00,45.0,34.0,30.88,South,171,7.0,11.0,65,0.00,,,0.00,193.00,VWS V14.00,2013-11-08 20:56:00,
2013-11-08 13:57:00,45.0,34.0,30.88,South,182,4.0,11.0,65,0.00,,,0.00,190.00,VWS V14.00,2013-11-08 20:57:00,
2013-11-08 13:58:00,45.1,34.4,30.88,SSW,199,5.0,11.0,66,0.00,,,0.00,199.00,VWS V14.00,2013-11-08 20:58:00,
2013-11-08 13:59:00,45.1,34.8,30.88,SSW,196,5.0,13.0,67,0.00,,,0.00,200.00,VWS V14.00,2013-11-08 20:59:00,
2013-11-08 14:00:00,45.1,34.4,30.88,South,182,4.0,13.0,66,0.00,,,0.00,200.00,VWS V14.00,2013-11-08 21:00:00,
2013-11-08 14:01:00,45.2,34.5,30.88,SSE,159,7.0,11.0,66,0.00,,,0.00,209.00,VWS V14.00,2013-11-08 21:01:00,
2013-11-08 14:02:00,45.2,34.5,30.88,SSE,157,6.0,11.0,66,0.00,,,0.00,239.00,VWS V14.00,2013-11-08 21:02:00,
2013-11-08 14:03:00,45.2,34.5,30.88,SSE,159,10.0,11.0,66,0.00,,,0.00,220.00,VWS V14.00,2013-11-08 21:03:00,
2013-11-08 14:04:00,45.2,34.2,30.88,South,169,6.0,11.0,65,0.00,,,0.00,171.00,VWS V14.00,2013-11-08 21:04:00,
2013-11-08 14:05:00,45.2,34.2,30.88,South,169,6.0,11.0,65,0.00,,,0.00,158.00,VWS V14.00,2013-11-08 21:05:00,
2013-11-08 14:06:00,45.2,34.2,30.88,South,181,11.0,11.0,65,0.00,,,0.00,156.00,VWS V14.00,2013-11-08 21:06:00,
2013-11-08 14:07:00,45.2,34.2,30.88,SSE,168,6.0,11.0,65,0.00,,,0.00,183.00,VWS V14.00,2013-11-08 21:07:00,
2013-11-08 14:08:00,45.2,34.2,30.88,South,171,6.0,11.0,65,0.00,,,0.00,174.00,VWS V14.00,2013-11-08 21:08:00,
2013-11-08 14:09:00,45.2,34.2,30.88,SSE,149,10.0,11.0,65,0.00,,,0.00,213.00,VWS V14.00,2013-11-08 21:09:00,
2013-11-08 14:10:00,45.3,34.2,30.88,SSW,193,9.0,11.0,65,0.00,,,0.00,213.00,VWS V14.00,2013-11-08 21:10:00,
2013-11-08 14:11:00,45.3,33.9,30.88,SSE,162,6.0,11.0,64,0.00,,,0.00,255.00,VWS V14.00,2013-11-08 21:11:00,
2013-11-08 14:12:00,45.4,34.3,30.88,SSW,192,10.0,11.0,65,0.00,,,0.00,253.00,VWS V14.00,2013-11-08 21:12:00,
2013-11-08 14:13:00,45.4,34.0,30.88,South,188,5.0,15.0,64,0.00,,,0.00,223.00,VWS V14.00,2013-11-08 21:13:00,
2013-11-08 14:14:00,45.4,34.0,30.89,SSW,199,7.0,15.0,64,0.00,,,0.00,221.00,VWS V14.00,2013-11-08 21:14:00,
2013-11-08 14:15:00,45.5,34.4,30.88,SSE,167,5.0,15.0,65,0.00,,,0.00,260.00,VWS V14.00,2013-11-08 21:15:00,
2013-11-08 14:16:00,45.5,34.0,30.87,SSE,166,10.0,11.0,64,0.00,,,0.00,311.00,VWS V14.00,2013-11-08 21:16:00,
2013-11-08 14:17:00,45.6,34.1,30.88,SSE,159,6.0,11.0,64,0.00,,,0.00,309.00,VWS V14.00,2013-11-08 21:17:00,
2013-11-08 14:18:00,45.6,34.1,30.87,South,172,7.0,12.0,64,0.00,,,0.00,301.00,VWS V14.00,2013-11-08 21:18:00,
2013-11-08 14:19:00,45.6,33.3,30.88,South,191,3.0,12.0,62,0.00,,,0.00,278.00,VWS V14.00,2013-11-08 21:19:00,
2013-11-08 14:20:00,45.7,33.4,30.88,South,188,4.0,12.0,62,0.00,,,0.00,239.00,VWS V14.00,2013-11-08 21:20:00,
2013-11-08 14:21:00,45.7,33.0,30.88,South,186,6.0,12.0,61,0.00,,,0.00,260.00,VWS V14.00,2013-11-08 21:21:00,
2013-11-08 14:22:00,45.8,33.1,30.88,South,187,2.0,12.0,61,0.00,,,0.00,264.00,VWS V14.00,2013-11-08 21:22:00,
2013-11-08 14:23:00,45.8,32.7,30.88,SSW,193,5.0,12.0,60,0.00,,,0.00,241.00,VWS V14.00,2013-11-08 21:23:00,
2013-11-08 14:24:00,45.9,33.2,30.88,SSE,165,5.0,12.0,61,0.00,,,0.00,229.00,VWS V14.00,2013-11-08 21:24:00,
2013-11-08 14:25:00,45.9,33.6,30.88,SSW,192,6.0,12.0,62,0.00,,,0.00,262.00,VWS V14.00,2013-11-08 21:25:00,
2013-11-08 14:26:00,46.0,34.1,30.88,SSE,164,5.0,12.0,63,0.00,,,0.00,260.00,VWS V14.00,2013-11-08 21:26:00,
2013-11-08 14:27:00,46.0,33.3,30.88,SSE,159,4.0,12.0,61,0.00,,,0.00,202.00,VWS V14.00,2013-11-08 21:27:00,
2013-11-08 14:28:00,46.0,32.9,30.88,South,174,3.0,12.0,60,0.00,,,0.00,276.00,VWS V14.00,2013-11-08 21:28:00,
2013-11-08 14:29:00,46.1,33.8,30.88,SSW,197,5.0,12.0,62,0.00,,,0.00,241.00,VWS V14.00,2013-11-08 21:29:00,
2013-11-08 14:30:00,46.1,33.4,30.88,South,178,1.0,12.0,61,0.00,,,0.00,229.00,VWS V14.00,2013-11-08 21:30:00,
2013-11-08 14:31:00,46.1,33.8,30.89,South,189,3.0,4.0,62,0.00,,,0.00,283.00,VWS V14.00,2013-11-08 21:31:00,
2013-11-08 14:32:00,46.2,33.9,30.89,South,184,1.0,5.0,62,0.00,,,0.00,209.00,VWS V14.00,2013-11-08 21:32:00,
2013-11-08 14:33:00,46.2,33.9,30.89,South,186,3.0,6.0,62,0.00,,,0.00,295.00,VWS V14.00,2013-11-08 21:33:00,
2013-11-08 14:34:00,46.3,34.4,30.88,South,191,6.0,7.0,63,0.00,,,0.00,297.00,VWS V14.00,2013-11-08 21:34:00,
2013-11-08 14:35:00,46.4,34.1,30.89,SSW,200,6.0,9.0,62,0.00,,,0.00,295.00,VWS V14.00,2013-11-08 21:35:00,
2013-11-08 14:36:00,46.4,33.7,30.89,SSW,198,4.0,11.0,61,0.00,,,0.00,292.00,VWS V14.00,2013-11-08 21:36:00,
2013-11-08 14:37:00,46.5,33.8,30.89,South,186,9.0,11.0,61,0.00,,,0.00,267.00,VWS V14.00,2013-11-08 21:37:00,
2013-11-08 14:38:00,46.6,33.0,30.89,SSW,195,11.0,15.0,59,0.00,,,0.00,288.00,VWS V14.00,2013-11-08 21:38:00,
2013-11-08 14:39:00,46.6,33.0,30.89,SSW,200,6.0,15.0,59,0.00,,,0.00,237.00,VWS V14.00,2013-11-08 21:39:00,
2013-11-08 14:40:00,46.7,33.6,30.89,South,186,4.0,15.0,60,0.00,,,0.00,209.00,VWS V14.00,2013-11-08 21:40:00,
2013-11-08 14:41:00,46.7,33.6,30.89,South,178,5.0,15.0,60,0.00,,,0.00,183.00,VWS V14.00,2013-11-08 21:41:00,
2013-11-08 14:42:00,46.6,33.0,30.89,SSE,148,12.0,16.0,59,0.00,,,0.00,171.00,VWS V14.00,2013-11-08 21:42:00,
2013-11-08 14:43:00,46.5,32.5,30.89,SSE,152,11.0,16.0,58,0.00,,,0.00,172.00,VWS V14.00,2013-11-08 21:43:00,
2013-11-08 14:44:00,46.5,33.0,30.89,South,184,7.0,16.0,59,0.00,,,0.00,167.00,VWS V14.00,2013-11-08 21:44:00,
2013-11-08 14:45:00,46.4,33.3,30.89,SSW,211,15.0,16.0,60,0.00,,,0.00,149.00,VWS V14.00,2013-11-08 21:45:00,
2013-11-08 14:46:00,46.3,33.2,30.89,South,186,10.0,14.0,60,0.00,,,0.00,139.00,VWS V14.00,2013-11-08 21:46:00,
2013-11-08 14:47:00,46.2,32.7,30.89,SSE,158,5.0,14.0,59,0.00,,,0.00,141.00,VWS V14.00,2013-11-08 21:47:00,
2013-11-08 14:48:00,46.1,33.0,30.89,SSW,202,11.0,14.0,60,0.00,,,0.00,146.00,VWS V14.00,2013-11-08 21:48:00,
2013-11-08 14:49:00,45.9,32.8,30.89,SSW,195,4.0,14.0,60,0.00,,,0.00,134.00,VWS V14.00,2013-11-08 21:49:00,
2013-11-08 14:50:00,45.9,33.2,30.89,SSW,198,5.0,14.0,61,0.00,,,0.00,142.00,VWS V14.00,2013-11-08 21:50:00,
2013-11-08 14:51:00,45.7,33.0,30.89,SSW,197,8.0,14.0,61,0.00,,,0.00,144.00,VWS V14.00,2013-11-08 21:51:00,
2013-11-08 14:52:00,45.6,32.9,30.89,South,184,4.0,14.0,61,0.00,,,0.00,144.00,VWS V14.00,2013-11-08 21:52:00,
2013-11-08 14:53:00,45.6,32.9,30.89,South,184,6.0,14.0,61,0.00,,,0.00,142.00,VWS V14.00,2013-11-08 21:53:00,
2013-11-08 14:54:00,45.5,32.8,30.89,South,180,6.0,14.0,61,0.00,,,0.00,146.00,VWS V14.00,2013-11-08 21:54:00,
2013-11-08 14:55:00,45.4,32.3,30.89,SSW,198,9.0,14.0,60,0.00,,,0.00,142.00,VWS V14.00,2013-11-08 21:55:00,
2013-11-08 14:56:00,45.4,31.9,30.91,South,188,9.0,14.0,59,0.00,,,0.00,144.00,VWS V14.00,2013-11-08 21:56:00,
2013-11-08 14:57:00,45.3,31.8,30.91,SSW,192,7.0,14.0,59,0.00,,,0.00,146.00,VWS V14.00,2013-11-08 21:57:00,
2013-11-08 14:58:00,45.2,32.2,30.90,SSW,194,4.0,14.0,60,0.00,,,0.00,144.00,VWS V14.00,2013-11-08 21:58:00,
2013-11-08 14:59:00,45.2,32.2,30.90,South,176,3.0,14.0,60,0.00,,,0.00,141.00,VWS V14.00,2013-11-08 21:59:00,
2013-11-08 15:00:00,45.1,32.1,30.90,SSW,198,10.0,14.0,60,0.00,,,0.00,135.00,VWS V14.00,2013-11-08 22:00:00,
2013-11-08 15:01:00,45.1,32.1,30.90,SSW,198,1.0,12.0,60,0.00,,,0.00,130.00,VWS V14.00,2013-11-08 22:01:00,
2013-11-08 15:02:00,45.1,31.6,30.91,SSW,198,3.0,12.0,59,0.00,,,0.00,153.00,VWS V14.00,2013-11-08 22:02:00,
2013-11-08 15:03:00,45.0,31.5,30.91,WNW,298,13.0,13.0,59,0.00,,,0.00,137.00,VWS V14.00,2013-11-08 22:03:00,
2013-11-08 15:04:00,45.0,32.8,30.92,NW,306,10.0,15.0,62,0.00,,,0.00,118.00,VWS V14.00,2013-11-08 22:04:00,
2013-11-08 15:05:00,44.9,33.9,30.91,WNW,283,10.0,15.0,65,0.00,,,0.00,116.00,VWS V14.00,2013-11-08 22:05:00,
2013-11-08 15:06:00,44.7,33.7,30.92,NW,316,14.0,15.0,65,0.00,,,0.00,105.00,VWS V14.00,2013-11-08 22:06:00,
2013-11-08 15:07:00,44.3,33.7,30.91,NW,316,11.0,16.0,66,0.00,,,0.00,100.00,VWS V14.00,2013-11-08 22:07:00,
2013-11-08 15:08:00,44.1,33.9,30.91,NW,321,10.0,16.0,67,0.00,,,0.00,98.00,VWS V14.00,2013-11-08 22:08:00,
2013-11-08 15:09:00,43.7,33.8,30.91,NNW,327,5.0,16.0,68,0.00,,,0.00,102.00,VWS V14.00,2013-11-08 22:09:00,
2013-11-08 15:10:00,43.4,33.9,30.91,NW,310,9.0,16.0,69,0.00,,,0.00,105.00,VWS V14.00,2013-11-08 22:10:00,
2013-11-08 15:11:00,43.2,33.4,30.92,NNW,329,5.0,16.0,68,0.00,,,0.00,105.00,VWS V14.00,2013-11-08 22:11:00,
2013-11-08 15:12:00,43.0,33.9,30.92,NNW,327,5.0,16.0,70,0.00,,,0.00,104.00,VWS V14.00,2013-11-08 22:12:00,
2013-11-08 15:13:00,42.8,33.3,30.92,NNW,344,5.0,16.0,69,0.00,,,0.00,102.00,VWS V14.00,2013-11-08 22:13:00,
2013-11-08 15:14:00,42.6,33.2,30.92,NW,309,7.0,16.0,69,0.00,,,0.00,95.00,VWS V14.00,2013-11-08 22:14:00,
2013-11-08 15:15:00,42.4,33.0,30.92,NW,315,9.0,16.0,69,0.00,,,0.00,93.00,VWS V14.00,2013-11-08 22:15:00,
2013-11-08 15:16:00,42.2,32.8,30.92,NW,325,6.0,9.0,69,0.00,,,0.00,90.00,VWS V14.00,2013-11-08 22:16:00,
2013-11-08 15:17:00,42.1,33.0,30.93,NW,324,5.0,9.0,70,0.00,,,0.00,86.00,VWS V14.00,2013-11-08 22:17:00,
2013-11-08 15:18:00,42.0,32.9,30.92,WNW,303,6.0,9.0,70,0.00,,,0.00,86.00,VWS V14.00,2013-11-08 22:18:00,
2013-11-08 15:19:00,41.9,32.8,30.93,WNW,297,6.0,9.0,70,0.00,,,0.00,86.00,VWS V14.00,2013-11-08 22:19:00,
2013-11-08 15:20:00,41.9,33.2,30.93,NW,323,5.0,10.0,71,0.00,,,0.00,86.00,VWS V14.00,2013-11-08 22:20:00,
2013-11-08 15:21:00,41.8,33.1,30.93,NW,304,7.0,10.0,71,0.00,,,0.00,84.00,VWS V14.00,2013-11-08 22:21:00,
2013-11-08 15:22:00,41.7,33.0,30.93,NW,317,5.0,10.0,71,0.00,,,0.00,81.00,VWS V14.00,2013-11-08 22:22:00,
2013-11-08 15:23:00,41.6,33.3,30.93,NNW,330,6.0,10.0,72,0.00,,,0.00,81.00,VWS V14.00,2013-11-08 22:23:00,
2013-11-08 15:24:00,41.5,33.2,30.93,NW,311,6.0,10.0,72,0.00,,,0.00,79.00,VWS V14.00,2013-11-08 22:24:00,
2013-11-08 15:25:00,41.4,33.1,30.93,NW,322,7.0,10.0,72,0.00,,,0.00,81.00,VWS V14.00,2013-11-08 22:25:00,
2013-11-08 15:26:00,41.3,32.6,30.94,NW,311,9.0,10.0,71,0.00,,,0.00,79.00,VWS V14.00,2013-11-08 22:26:00,
2013-11-08 15:27:00,41.3,32.6,30.94,NW,304,6.0,10.0,71,0.00,,,0.00,77.00,VWS V14.00,2013-11-08 22:27:00,
2013-11-08 15:28:00,41.2,32.2,30.94,NW,315,4.0,10.0,70,0.00,,,0.00,77.00,VWS V14.00,2013-11-08 22:28:00,
2013-11-08 15:29:00,41.2,32.5,30.94,NW,315,2.0,10.0,71,0.00,,,0.00,74.00,VWS V14.00,2013-11-08 22:29:00,
2013-11-08 15:30:00,41.1,32.8,30.94,NNW,327,3.0,10.0,72,0.00,,,0.00,70.00,VWS V14.00,2013-11-08 22:30:00,
2013-11-08 15:31:00,41.1,32.4,30.94,NW,318,3.0,5.0,71,0.00,,,0.00,62.00,VWS V14.00,2013-11-08 22:31:00,
2013-11-08 15:32:00,41.1,32.8,30.94,NW,315,3.0,5.0,72,0.00,,,0.00,56.00,VWS V14.00,2013-11-08 22:32:00,
2013-11-08 15:33:00,41.1,32.4,30.94,NW,323,5.0,9.0,71,0.00,,,0.00,53.00,VWS V14.00,2013-11-08 22:33:00,
2013-11-08 15:34:00,41.0,32.3,30.94,NW,321,2.0,9.0,71,0.00,,,0.00,49.00,VWS V14.00,2013-11-08 22:34:00,
2013-11-08 15:35:00,41.0,32.7,30.94,NNW,337,4.0,9.0,72,0.00,,,0.00,47.00,VWS V14.00,2013-11-08 22:35:00,
2013-11-08 15:36:00,41.0,32.7,30.94,NW,309,8.0,9.0,72,0.00,,,0.00,46.00,VWS V14.00,2013-11-08 22:36:00,
2013-11-08 15:37:00,40.9,32.6,30.94,NNW,334,8.0,10.0,72,0.00,,,0.00,40.00,VWS V14.00,2013-11-08 22:37:00,
2013-11-08 15:38:00,40.9,32.6,30.94,NW,311,7.0,10.0,72,0.00,,,0.00,39.00,VWS V14.00,2013-11-08 22:38:00,
2013-11-08 15:39:00,40.8,32.1,30.94,NW,315,5.0,10.0,71,0.00,,,0.00,37.00,VWS V14.00,2013-11-08 22:39:00,
2013-11-08 15:40:00,40.8,32.1,30.94,NW,310,10.0,10.0,71,0.00,,,0.00,37.00,VWS V14.00,2013-11-08 22:40:00,
2013-11-08 15:41:00,40.8,31.8,30.94,NW,315,6.0,11.0,70,0.00,,,0.00,35.00,VWS V14.00,2013-11-08 22:41:00,
2013-11-08 15:42:00,40.7,31.7,30.94,NW,316,5.0,11.0,70,0.00,,,0.00,35.00,VWS V14.00,2013-11-08 22:42:00,
2013-11-08 15:43:00,40.7,31.7,30.95,NW,319,6.0,12.0,70,0.00,,,0.00,33.00,VWS V14.00,2013-11-08 22:43:00,
2013-11-08 15:44:00,40.7,31.7,30.95,NW,313,7.0,12.0,70,0.00,,,0.00,35.00,VWS V14.00,2013-11-08 22:44:00,
2013-11-08 15:45:00,40.7,31.7,30.95,NW,317,10.0,12.0,70,0.00,,,0.00,33.00,VWS V14.00,2013-11-08 22:45:00,
2013-11-08 15:46:00,40.7,31.7,30.95,NW,317,4.0,10.0,70,0.00,,,0.00,32.00,VWS V14.00,2013-11-08 22:46:00,
2013-11-08 15:47:00,40.7,31.7,30.95,WNW,294,4.0,10.0,70,0.00,,,0.00,30.00,VWS V14.00,2013-11-08 22:47:00,
2013-11-08 15:48:00,40.7,31.7,30.95,WNW,302,6.0,11.0,70,0.00,,,0.00,26.00,VWS V14.00,2013-11-08 22:48:00,
2013-11-08 15:49:00,40.7,31.7,30.95,NW,315,5.0,11.0,70,0.00,,,0.00,26.00,VWS V14.00,2013-11-08 22:49:00,
2013-11-08 15:50:00,40.7,31.7,30.95,WNW,298,10.0,12.0,70,0.00,,,0.00,26.00,VWS V14.00,2013-11-08 22:50:00,
2013-11-08 15:51:00,40.7,31.7,30.95,NW,323,11.0,14.0,70,0.00,,,0.00,25.00,VWS V14.00,2013-11-08 22:51:00,
2013-11-08 15:52:00,40.7,31.7,30.95,NW,311,10.0,14.0,70,0.00,,,0.00,25.00,VWS V14.00,2013-11-08 22:52:00,
2013-11-08 15:53:00,40.6,31.6,30.95,NW,313,8.0,14.0,70,0.00,,,0.00,25.00,VWS V14.00,2013-11-08 22:53:00,
2013-11-08 15:54:00,40.6,31.6,30.95,NW,315,9.0,14.0,70,0.00,,,0.00,26.00,VWS V14.00,2013-11-08 22:54:00,
2013-11-08 15:55:00,40.6,31.6,30.95,WNW,300,13.0,16.0,70,0.00,,,0.00,26.00,VWS V14.00,2013-11-08 22:55:00,
2013-11-08 15:56:00,40.6,31.2,30.96,West,281,7.0,16.0,69,0.00,,,0.00,26.00,VWS V14.00,2013-11-08 22:56:00,
2013-11-08 15:57:00,40.6,31.2,30.95,WNW,298,7.0,16.0,69,0.00,,,0.00,26.00,VWS V14.00,2013-11-08 22:57:00,
2013-11-08 15:58:00,40.6,31.2,30.95,NW,311,9.0,16.0,69,0.00,,,0.00,26.00,VWS V14.00,2013-11-08 22:58:00,
2013-11-08 15:59:00,40.6,30.9,30.95,WNW,286,8.0,16.0,68,0.00,,,0.00,28.00,VWS V14.00,2013-11-08 22:59:00,
2013-11-08 16:00:00,40.6,31.2,30.95,NW,315,7.0,16.0,69,0.00,,,0.00,28.00,VWS V14.00,2013-11-08 23:00:00,
2013-11-08 16:01:00,40.6,31.2,30.94,NW,310,12.0,14.0,69,0.00,,,0.00,33.00,VWS V14.00,2013-11-08 23:01:00,
2013-11-08 16:02:00,40.6,31.2,30.94,WNW,294,8.0,14.0,69,0.00,,,0.00,35.00,VWS V14.00,2013-11-08 23:02:00,
2013-11-08 16:03:00,40.6,31.6,30.94,WNW,299,7.0,14.0,70,0.00,,,0.00,37.00,VWS V14.00,2013-11-08 23:03:00,
2013-11-08 16:04:00,40.6,31.6,30.94,WNW,293,5.0,14.0,70,0.00,,,0.00,40.00,VWS V14.00,2013-11-08 23:04:00,
2013-11-08 16:05:00,40.6,31.6,30.94,WNW,286,11.0,14.0,70,0.00,,,0.00,40.00,VWS V14.00,2013-11-08 23:05:00,
2013-11-08 16:06:00,40.6,31.6,30.94,WNW,283,11.0,14.0,70,0.00,,,0.00,39.00,VWS V14.00,2013-11-08 23:06:00,
2013-11-08 16:07:00,40.6,31.6,30.94,WNW,288,10.0,14.0,70,0.00,,,0.00,33.00,VWS V14.00,2013-11-08 23:07:00,
2013-11-08 16:08:00,40.5,31.9,30.94,WNW,294,10.0,16.0,71,0.00,,,0.00,32.00,VWS V14.00,2013-11-08 23:08:00,
2013-11-08 16:09:00,40.6,31.6,30.94,West,277,12.0,16.0,70,0.00,,,0.00,30.00,VWS V14.00,2013-11-08 23:09:00,
2013-11-08 16:10:00,40.6,31.6,30.95,NW,306,5.0,16.0,70,0.00,,,0.00,28.00,VWS V14.00,2013-11-08 23:10:00,
2013-11-08 16:11:00,40.6,31.6,30.95,WNW,291,5.0,16.0,70,0.00,,,0.00,26.00,VWS V14.00,2013-11-08 23:11:00,
2013-11-08 16:12:00,40.6,31.6,30.95,WNW,290,10.0,16.0,70,0.00,,,0.00,25.00,VWS V14.00,2013-11-08 23:12:00,
2013-11-08 16:13:00,40.6,31.2,30.95,WNW,293,6.0,16.0,69,0.00,,,0.00,25.00,VWS V14.00,2013-11-08 23:13:00,
2013-11-08 16:14:00,40.6,31.6,30.95,WNW,283,4.0,16.0,70,0.00,,,0.00,25.00,VWS V14.00,2013-11-08 23:14:00,
2013-11-08 16:15:00,40.6,31.6,30.96,WNW,286,6.0,16.0,70,0.00,,,0.00,25.00,VWS V14.00,2013-11-08 23:15:00,
2013-11-08 16:16:00,40.6,30.9,30.96,NW,304,3.0,5.0,68,0.00,,,0.00,26.00,VWS V14.00,2013-11-08 23:16:00,
2013-11-08 16:17:00,40.6,30.5,30.96,NW,304,2.0,5.0,67,0.00,,,0.00,28.00,VWS V14.00,2013-11-08 23:17:00,
2013-11-08 16:18:00,40.6,30.9,30.96,NW,304,3.0,5.0,68,0.00,,,0.00,33.00,VWS V14.00,2013-11-08 23:18:00,
2013-11-08 16:19:00,40.6,31.2,30.96,NW,304,5.0,5.0,69,0.00,,,0.00,33.00,VWS V14.00,2013-11-08 23:19:00,
2013-11-08 16:20:00,40.7,31.0,30.96,WNW,303,8.0,10.0,68,0.00,,,0.00,32.00,VWS V14.00,2013-11-08 23:20:00,
2013-11-08 16:21:00,40.7,30.6,30.96,West,278,3.0,10.0,67,0.00,,,0.00,30.00,VWS V14.00,2013-11-08 23:21:00,
2013-11-08 16:22:00,40.7,31.0,30.96,WNW,290,4.0,10.0,68,0.00,,,0.00,30.00,VWS V14.00,2013-11-08 23:22:00,
2013-11-08 16:23:00,40.7,31.0,30.96,WNW,290,4.0,10.0,68,0.00,,,0.00,30.00,VWS V14.00,2013-11-08 23:23:00,
2013-11-08 16:24:00,40.7,31.0,30.96,WNW,286,7.0,10.0,68,0.00,,,0.00,26.00,VWS V14.00,2013-11-08 23:24:00,
2013-11-08 16:25:00,40.7,31.0,30.96,WNW,288,4.0,10.0,68,0.00,,,0.00,25.00,VWS V14.00,2013-11-08 23:25:00,
2013-11-08 16:26:00,40.7,31.3,30.95,West,266,3.0,10.0,69,0.00,,,0.00,23.00,VWS V14.00,2013-11-08 23:26:00,
2013-11-08 16:27:00,40.7,31.3,30.96,West,281,9.0,10.0,69,0.00,,,0.00,21.00,VWS V14.00,2013-11-08 23:27:00,
2013-11-08 16:28:00,40.7,30.6,30.96,West,281,5.0,10.0,67,0.00,,,0.00,19.00,VWS V14.00,2013-11-08 23:28:00,
2013-11-08 16:29:00,40.7,30.2,30.96,West,259,4.0,10.0,66,0.00,,,0.00,19.00,VWS V14.00,2013-11-08 23:29:00,
2013-11-08 16:30:00,40.7,29.9,30.96,WSW,257,8.0,10.0,65,0.00,,,0.00,19.00,VWS V14.00,2013-11-08 23:30:00,
2013-11-08 16:31:00,40.8,30.0,30.96,West,273,4.0,9.0,65,0.00,,,0.00,19.00,VWS V14.00,2013-11-08 23:31:00,
2013-11-08 16:32:00,40.8,30.7,30.96,West,275,2.0,9.0,67,0.00,,,0.00,16.00,VWS V14.00,2013-11-08 23:32:00,
2013-11-08 16:33:00,40.8,31.1,30.96,WSW,254,5.0,9.0,68,0.00,,,0.00,14.00,VWS V14.00,2013-11-08 23:33:00,
2013-11-08 16:34:00,40.8,31.4,30.96,West,275,2.0,9.0,69,0.00,,,0.00,14.00,VWS V14.00,2013-11-08 23:34:00,
2013-11-08 16:35:00,40.8,31.4,30.96,West,261,2.0,9.0,69,0.00,,,0.00,14.00,VWS V14.00,2013-11-08 23:35:00,
2013-11-08 16:36:00,40.8,31.4,30.96,West,265,3.0,9.0,69,0.00,,,0.00,14.00,VWS V14.00,2013-11-08 23:36:00,
2013-11-08 16:37:00,40.8,31.4,30.96,WSW,250,3.0,9.0,69,0.00,,,0.00,14.00,VWS V14.00,2013-11-08 23:37:00,
2013-11-08 16:38:00,40.8,31.1,30.96,WSW,252,3.0,9.0,68,0.00,,,0.00,14.00,VWS V14.00,2013-11-08 23:38:00,
2013-11-08 16:39:00,40.7,31.3,30.96,WSW,251,3.0,9.0,69,0.00,,,0.00,14.00,VWS V14.00,2013-11-08 23:39:00,
2013-11-08 16:40:00,40.7,31.7,30.96,WSW,250,0.0,9.0,70,0.00,,,0.00,14.00,VWS V14.00,2013-11-08 23:40:00,
2013-11-08 16:41:00,40.7,31.7,30.96,West,270,4.0,9.0,70,0.00,,,0.00,12.00,VWS V14.00,2013-11-08 23:41:00,
2013-11-08 16:42:00,40.7,31.7,30.96,West,269,3.0,9.0,70,0.00,,,0.00,12.00,VWS V14.00,2013-11-08 23:42:00,
2013-11-08 16:43:00,40.7,31.3,30.96,West,269,4.0,9.0,69,0.00,,,0.00,12.00,VWS V14.00,2013-11-08 23:43:00,
2013-11-08 16:44:00,40.7,31.0,30.96,West,269,2.0,9.0,68,0.00,,,0.00,11.00,VWS V14.00,2013-11-08 23:44:00,
2013-11-08 16:45:00,40.7,31.0,30.96,West,269,2.0,9.0,68,0.00,,,0.00,11.00,VWS V14.00,2013-11-08 23:45:00,
2013-11-08 16:46:00,40.7,31.0,30.96,West,269,0.0,0.0,68,0.00,,,0.00,9.00,VWS V14.00,2013-11-08 23:46:00,
2013-11-08 16:47:00,40.6,30.9,30.96,West,269,0.0,0.0,68,0.00,,,0.00,9.00,VWS V14.00,2013-11-08 23:47:00,
2013-11-08 16:48:00,40.7,31.0,30.96,West,269,0.0,2.0,68,0.00,,,0.00,7.00,VWS V14.00,2013-11-08 23:48:00,
2013-11-08 16:49:00,40.7,31.3,30.96,West,269,0.0,2.0,69,0.00,,,0.00,5.00,VWS V14.00,2013-11-08 23:49:00,
2013-11-08 16:50:00,40.6,31.2,30.97,West,269,0.0,2.0,69,0.00,,,0.00,5.00,VWS V14.00,2013-11-08 23:50:00,
2013-11-08 16:51:00,40.7,31.3,30.97,West,269,0.0,2.0,69,0.00,,,0.00,0.00,VWS V14.00,2013-11-08 23:51:00,
2013-11-08 16:52:00,40.6,31.2,30.96,West,269,0.0,2.0,69,0.00,,,0.00,0.00,VWS V14.00,2013-11-08 23:52:00,
2013-11-08 16:53:00,40.6,30.9,30.96,West,269,0.0,2.0,68,0.00,,,0.00,0.00,VWS V14.00,2013-11-08 23:53:00,
2013-11-08 16:54:00,40.6,30.9,30.96,West,269,2.0,3.0,68,0.00,,,0.00,0.00,VWS V14.00,2013-11-08 23:54:00,
2013-11-08 16:55:00,40.6,30.5,30.96,West,269,0.0,3.0,67,0.00,,,0.00,0.00,VWS V14.00,2013-11-08 23:55:00,
2013-11-08 16:56:00,40.6,30.5,30.96,West,269,0.0,3.0,67,0.00,,,0.00,0.00,VWS V14.00,2013-11-08 23:56:00,
2013-11-08 16:57:00,40.6,30.1,30.96,West,269,0.0,3.0,66,0.00,,,0.00,0.00,VWS V14.00,2013-11-08 23:57:00,
2013-11-08 16:58:00,40.6,30.1,30.96,West,269,0.0,3.0,66,0.00,,,0.00,0.00,VWS V14.00,2013-11-08 23:58:00,
2013-11-08 16:59:00,40.6,29.8,30.96,West,269,0.0,3.0,65,0.00,,,0.00,0.00,VWS V14.00,2013-11-08 23:59:00,
2013-11-08 17:00:00,40.6,29.4,30.96,West,269,0.0,3.0,64,0.00,,,0.00,0.00,VWS V14.00,2013-11-09 00:00:00,
2013-11-08 17:01:00,40.6,29.4,30.97,West,269,0.0,0.0,64,0.00,,,0.00,0.00,VWS V14.00,2013-11-09 00:01:00,
2013-11-08 17:02:00,40.6,29.4,30.97,West,269,0.0,0.0,64,0.00,,,0.00,0.00,VWS V14.00,2013-11-09 00:02:00,
2013-11-08 17:03:00,40.5,29.7,30.97,West,269,0.0,0.0,65,0.00,,,0.00,0.00,VWS V14.00,2013-11-09 00:03:00,
2013-11-08 17:04:00,40.5,29.7,30.97,West,269,0.0,0.0,65,0.00,,,0.00,0.00,VWS V14.00,2013-11-09 00:04:00,
2013-11-08 17:05:00,40.5,29.7,30.97,West,269,2.0,3.0,65,0.00,,,0.00,0.00,VWS V14.00,2013-11-09 00:05:00,
2013-11-08 17:06:00,40.5,29.7,30.97,West,269,1.0,3.0,65,0.00,,,0.00,0.00,VWS V14.00,2013-11-09 00:06:00,
2013-11-08 17:07:00,40.5,29.7,30.97,West,269,0.0,3.0,65,0.00,,,0.00,0.00,VWS V14.00,2013-11-09 00:07:00,
2013-11-08 17:08:00,40.5,30.0,30.97,West,269,0.0,3.0,66,0.00,,,0.00,0.00,VWS V14.00,2013-11-09 00:08:00,
2013-11-08 17:09:00,40.5,31.1,30.97,West,269,0.0,3.0,69,0.00,,,0.00,0.00,VWS V14.00,2013-11-09 00:09:00,
2013-11-08 17:10:00,40.5,31.5,30.97,West,269,0.0,3.0,70,0.00,,,0.00,0.00,VWS V14.00,2013-11-09 00:10:00,
2013-11-08 17:11:00,40.5,31.5,30.97,West,269,0.0,3.0,70,0.00,,,0.00,0.00,VWS V14.00,2013-11-09 00:11:00,
2013-11-08 17:12:00,40.5,31.9,30.97,West,269,2.0,3.0,71,0.00,,,0.00,0.00,VWS V14.00,2013-11-09 00:12:00,
2013-11-08 17:13:00,40.4,31.8,30.97,SSW,207,2.0,4.0,71,0.00,,,0.00,0.00,VWS V14.00,2013-11-09 00:13:00,
2013-11-08 17:14:00,40.4,31.8,30.97,SSW,196,2.0,4.0,71,0.00,,,0.00,0.00,VWS V14.00,2013-11-09 00:14:00,
2013-11-08 17:15:00,40.3,32.0,30.97,SSW,196,3.0,4.0,72,0.00,,,0.00,0.00,VWS V14.00,2013-11-09 00:15:00,
2013-11-08 17:16:00,40.2,31.9,30.98,SE,144,4.0,4.0,72,0.00,,,0.00,0.00,VWS V14.00,2013-11-09 00:16:00,
2013-11-08 17:17:00,40.2,31.9,30.98,SE,144,2.0,4.0,72,0.00,,,0.00,0.00,VWS V14.00,2013-11-09 00:17:00,
2013-11-08 17:18:00,40.1,31.8,30.98,SE,144,2.0,4.0,72,0.00,,,0.00,0.00,VWS V14.00,2013-11-09 00:18:00,
2013-11-08 17:19:00,40.1,31.8,30.98,SE,144,3.0,4.0,72,0.00,,,0.00,0.00,VWS V14.00,2013-11-09 00:19:00,
2013-11-08 17:20:00,40.0,31.7,30.98,SE,144,2.0,4.0,72,0.00,,,0.00,0.00,VWS V14.00,2013-11-09 00:20:00,
2013-11-08 17:21:00,40.0,32.1,30.98,SE,144,1.0,4.0,73,0.00,,,0.00,0.00,VWS V14.00,2013-11-09 00:21:00,
2013-11-08 17:22:00,39.9,32.0,30.98,SE,144,2.0,4.0,73,0.00,,,0.00,0.00,VWS V14.00,2013-11-09 00:22:00,
2013-11-08 17:23:00,39.8,31.9,30.98,SE,144,1.0,4.0,73,0.00,,,0.00,0.00,VWS V14.00,2013-11-09 00:23:00,
2013-11-08 17:24:00,39.8,31.9,30.98,SE,144,2.0,4.0,73,0.00,,,0.00,0.00,VWS V14.00,2013-11-09 00:24:00,
2013-11-08 17:25:00,39.7,31.8,30.98,SE,144,4.0,4.0,73,0.00,,,0.00,0.00,VWS V14.00,2013-11-09 00:25:00,
2013-11-08 17:26:00,39.7,31.8,30.98,SE,144,3.0,4.0,73,0.00,,,0.00,0.00,VWS V14.00,2013-11-09 00:26:00,
2013-11-08 17:27:00,39.7,31.8,30.98,SE,144,0.0,4.0,73,0.00,,,0.00,0.00,VWS V14.00,2013-11-09 00:27:00,
2013-11-08 17:28:00,39.6,31.7,30.98,SE,144,0.0,4.0,73,0.00,,,0.00,0.00,VWS V14.00,2013-11-09 00:28:00,
2013-11-08 17:29:00,39.6,31.7,30.98,SE,144,0.0,4.0,73,0.00,,,0.00,0.00,VWS V14.00,2013-11-09 00:29:00,
2013-11-08 17:30:00,39.5,31.6,30.98,SE,144,0.0,4.0,73,0.00,,,0.00,0.00,VWS V14.00,2013-11-09 00:30:00,
2013-11-08 17:31:00,39.5,31.9,30.98,SE,144,2.0,2.0,74,0.00,,,0.00,0.00,VWS V14.00,2013-11-09 00:31:00,
2013-11-08 17:32:00,39.5,31.6,30.98,SE,144,0.0,2.0,73,0.00,,,0.00,0.00,VWS V14.00,2013-11-09 00:32:00,
2013-11-08 17:33:00,39.4,31.8,30.98,SE,144,1.0,3.0,74,0.00,,,0.00,0.00,VWS V14.00,2013-11-09 00:33:00,
2013-11-08 17:34:00,39.4,31.5,30.99,SE,144,2.0,4.0,73,0.00,,,0.00,0.00,VWS V14.00,2013-11-09 00:34:00,
2013-11-08 17:35:00,39.3,31.7,30.99,SE,144,1.0,4.0,74,0.00,,,0.00,0.00,VWS V14.00,2013-11-09 00:35:00,
2013-11-08 17:36:00,39.3,31.7,30.99,SE,144,0.0,4.0,74,0.00,,,0.00,0.00,VWS V14.00,2013-11-09 00:36:00,
2013-11-08 17:37:00,39.3,31.7,30.99,SE,144,0.0,4.0,74,0.00,,,0.00,0.00,VWS V14.00,2013-11-09 00:37:00,
2013-11-08 17:38:00,39.3,31.7,31.00,SE,144,0.0,4.0,74,0.00,,,0.00,0.00,VWS V14.00,2013-11-09 00:38:00,
2013-11-08 17:39:00,39.3,31.7,31.00,SE,144,0.0,4.0,74,0.00,,,0.00,0.00,VWS V14.00,2013-11-09 00:39:00,
2013-11-08 17:40:00,39.2,31.3,31.00,SE,144,0.0,4.0,73,0.00,,,0.00,0.00,VWS V14.00,2013-11-09 00:40:00,
2013-11-08 17:41:00,39.2,31.3,31.00,SE,144,0.0,4.0,73,0.00,,,0.00,0.00,VWS V14.00,2013-11-09 00:41:00,
2013-11-08 17:42:00,39.2,31.6,31.00,SE,144,0.0,4.0,74,0.00,,,0.00,0.00,VWS V14.00,2013-11-09 00:42:00,
2013-11-08 17:43:00,39.1,31.2,31.00,SE,144,0.0,4.0,73,0.00,,,0.00,0.00,VWS V14.00,2013-11-09 00:43:00,
2013-11-08 17:44:00,39.1,31.5,31.00,SE,144,0.0,4.0,74,0.00,,,0.00,0.00,VWS V14.00,2013-11-09 00:44:00,
2013-11-08 17:45:00,39.1,31.2,31.00,SE,144,0.0,4.0,73,0.00,,,0.00,0.00,VWS V14.00,2013-11-09 00:45:00,
2013-11-08 17:46:00,39.1,31.2,31.00,SE,144,0.0,0.0,73,0.00,,,0.00,0.00,VWS V14.00,2013-11-09 00:46:00,
2013-11-08 17:47:00,39.0,31.1,31.00,SE,144,0.0,0.0,73,0.00,,,0.00,0.00,VWS V14.00,2013-11-09 00:47:00,
2013-11-08 17:48:00,39.0,31.1,31.00,SE,144,0.0,0.0,73,0.00,,,0.00,0.00,VWS V14.00,2013-11-09 00:48:00,
2013-11-08 17:49:00,39.0,31.1,31.00,SE,144,0.0,0.0,73,0.00,,,0.00,0.00,VWS V14.00,2013-11-09 00:49:00,
2013-11-08 17:50:00,39.0,31.4,31.00,SE,144,0.0,0.0,74,0.00,,,0.00,0.00,VWS V14.00,2013-11-09 00:50:00,
2013-11-08 17:51:00,38.9,31.3,31.00,SE,144,0.0,0.0,74,0.00,,,0.00,0.00,VWS V14.00,2013-11-09 00:51:00,
2013-11-08 17:52:00,38.9,31.3,31.00,SE,144,0.0,0.0,74,0.00,,,0.00,0.00,VWS V14.00,2013-11-09 00:52:00,
2013-11-08 17:53:00,38.9,31.3,31.00,SE,144,0.0,0.0,74,0.00,,,0.00,0.00,VWS V14.00,2013-11-09 00:53:00,
2013-11-08 17:54:00,38.9,31.3,31.00,SE,144,0.0,0.0,74,0.00,,,0.00,0.00,VWS V14.00,2013-11-09 00:54:00,
2013-11-08 17:55:00,38.8,31.2,31.00,SE,144,0.0,0.0,74,0.00,,,0.00,0.00,VWS V14.00,2013-11-09 00:55:00,
2013-11-08 17:56:00,38.8,31.2,31.00,SE,144,0.0,0.0,74,0.00,,,0.00,0.00,VWS V14.00,2013-11-09 00:56:00,
2013-11-08 17:57:00,38.8,31.6,31.00,SE,144,0.0,0.0,75,0.00,,,0.00,0.00,VWS V14.00,2013-11-09 00:57:00,
2013-11-08 17:58:00,38.7,31.1,31.00,SE,144,0.0,0.0,74,0.00,,,0.00,0.00,VWS V14.00,2013-11-09 00:58:00,
2013-11-08 17:59:00,38.7,31.5,31.00,SE,144,0.0,0.0,75,0.00,,,0.00,0.00,VWS V14.00,2013-11-09 00:59:00,
2013-11-08 18:00:00,38.7,31.1,31.00,SE,144,0.0,0.0,74,0.00,,,0.00,0.00,VWS V14.00,2013-11-09 01:00:00,
2013-11-08 18:01:00,38.6,31.4,31.01,SE,144,0.0,0.0,75,0.00,,,0.00,0.00,VWS V14.00,2013-11-09 01:01:00,
2013-11-08 18:02:00,38.6,31.4,31.01,SE,144,0.0,0.0,75,0.00,,,0.00,0.00,VWS V14.00,2013-11-09 01:02:00,
2013-11-08 18:03:00,38.6,31.4,31.01,SE,144,0.0,0.0,75,0.00,,,0.00,0.00,VWS V14.00,2013-11-09 01:03:00,
2013-11-08 18:04:00,38.6,31.4,31.01,SE,144,0.0,0.0,75,0.00,,,0.00,0.00,VWS V14.00,2013-11-09 01:04:00,
2013-11-08 18:05:00,38.5,31.3,31.01,SE,144,0.0,0.0,75,0.00,,,0.00,0.00,VWS V14.00,2013-11-09 01:05:00,
2013-11-08 18:06:00,38.5,31.3,31.01,SE,144,0.0,0.0,75,0.00,,,0.00,0.00,VWS V14.00,2013-11-09 01:06:00,
2013-11-08 18:07:00,38.5,31.3,31.01,SE,144,0.0,0.0,75,0.00,,,0.00,0.00,VWS V14.00,2013-11-09 01:07:00,
2013-11-08 18:08:00,38.5,31.3,31.01,SE,144,0.0,0.0,75,0.00,,,0.00,0.00,VWS V14.00,2013-11-09 01:08:00,
2013-11-08 18:09:00,38.4,31.2,31.01,SE,144,0.0,0.0,75,0.00,,,0.00,0.00,VWS V14.00,2013-11-09 01:09:00,
2013-11-08 18:10:00,38.4,31.2,31.01,SE,144,0.0,0.0,75,0.00,,,0.00,0.00,VWS V14.00,2013-11-09 01:10:00,
2013-11-08 18:11:00,38.4,30.9,31.02,SE,144,0.0,0.0,74,0.00,,,0.00,0.00,VWS V14.00,2013-11-09 01:11:00,
2013-11-08 18:12:00,38.4,30.9,31.01,SE,144,0.0,0.0,74,0.00,,,0.00,0.00,VWS V14.00,2013-11-09 01:12:00,
2013-11-08 18:13:00,38.4,30.9,31.01,SE,144,0.0,0.0,74,0.00,,,0.00,0.00,VWS V14.00,2013-11-09 01:13:00,
2013-11-08 18:14:00,38.4,30.9,31.01,SE,144,0.0,0.0,74,0.00,,,0.00,0.00,VWS V14.00,2013-11-09 01:14:00,
2013-11-08 18:15:00,38.3,30.4,31.01,SE,144,0.0,0.0,73,0.00,,,0.00,0.00,VWS V14.00,2013-11-09 01:15:00,
2013-11-08 18:16:00,38.3,30.8,31.01,SE,144,0.0,0.0,74,0.00,,,0.00,0.00,VWS V14.00,2013-11-09 01:16:00,
2013-11-08 18:17:00,38.2,30.3,31.01,SE,144,0.0,0.0,73,0.00,,,0.00,0.00,VWS V14.00,2013-11-09 01:17:00,
2013-11-08 18:18:00,38.2,30.3,31.01,SE,144,0.0,0.0,73,0.00,,,0.00,0.00,VWS V14.00,2013-11-09 01:18:00,
2013-11-08 18:19:00,38.2,30.7,31.02,SE,144,0.0,0.0,74,0.00,,,0.00,0.00,VWS V14.00,2013-11-09 01:19:00,
2013-11-08 18:20:00,38.1,30.6,31.02,SE,144,0.0,0.0,74,0.00,,,0.00,0.00,VWS V14.00,2013-11-09 01:20:00,
2013-11-08 18:21:00,38.1,30.6,31.02,SE,144,0.0,0.0,74,0.00,,,0.00,0.00,VWS V14.00,2013-11-09 01:21:00,
2013-11-08 18:22:00,38.1,30.6,31.02,SE,144,0.0,0.0,74,0.00,,,0.00,0.00,VWS V14.00,2013-11-09 01:22:00,
2013-11-08 18:23:00,38.0,30.5,31.02,SE,144,0.0,0.0,74,0.00,,,0.00,0.00,VWS V14.00,2013-11-09 01:23:00,
2013-11-08 18:24:00,38.0,30.5,31.02,SE,144,0.0,0.0,74,0.00,,,0.00,0.00,VWS V14.00,2013-11-09 01:24:00,
2013-11-08 18:25:00,38.0,30.5,31.02,SE,144,0.0,1.0,74,0.00,,,0.00,0.00,VWS V14.00,2013-11-09 01:25:00,
2013-11-08 18:26:00,37.9,30.4,31.02,SE,144,0.0,1.0,74,0.00,,,0.00,0.00,VWS V14.00,2013-11-09 01:26:00,
2013-11-08 18:27:00,37.8,30.3,31.02,SE,144,0.0,1.0,74,0.00,,,0.00,0.00,VWS V14.00,2013-11-09 01:27:00,
2013-11-08 18:28:00,37.8,30.6,31.02,SE,144,0.0,1.0,75,0.00,,,0.00,0.00,VWS V14.00,2013-11-09 01:28:00,
2013-11-08 18:29:00,37.7,30.5,31.02,SE,144,0.0,1.0,75,0.00,,,0.00,0.00,VWS V14.00,2013-11-09 01:29:00,
2013-11-08 18:30:00,37.7,30.5,31.02,SE,144,0.0,1.0,75,0.00,,,0.00,0.00,VWS V14.00,2013-11-09 01:30:00,
2013-11-08 18:31:00,37.6,30.4,31.02,SE,144,2.0,3.0,75,0.00,,,0.00,0.00,VWS V14.00,2013-11-09 01:31:00,
2013-11-08 18:32:00,37.6,30.1,31.02,SE,144,3.0,3.0,74,0.00,,,0.00,0.00,VWS V14.00,2013-11-09 01:32:00,
2013-11-08 18:33:00,37.5,30.0,31.02,SE,144,3.0,4.0,74,0.00,,,0.00,0.00,VWS V14.00,2013-11-09 01:33:00,
2013-11-08 18:34:00,37.5,30.0,31.02,SE,144,3.0,4.0,74,0.00,,,0.00,0.00,VWS V14.00,2013-11-09 01:34:00,
2013-11-08 18:35:00,37.4,29.9,31.02,SE,144,4.0,5.0,74,0.00,,,0.00,0.00,VWS V14.00,2013-11-09 01:35:00,
2013-11-08 18:36:00,37.4,29.9,31.02,SE,144,2.0,5.0,74,0.00,,,0.00,0.00,VWS V14.00,2013-11-09 01:36:00,
2013-11-08 18:37:00,37.4,29.9,31.04,SE,144,3.0,5.0,74,0.00,,,0.00,0.00,VWS V14.00,2013-11-09 01:37:00,
2013-11-08 18:38:00,37.4,29.9,31.03,SE,144,4.0,5.0,74,0.00,,,0.00,0.00,VWS V14.00,2013-11-09 01:38:00,
2013-11-08 18:39:00,37.4,29.9,31.04,SE,144,2.0,5.0,74,0.00,,,0.00,0.00,VWS V14.00,2013-11-09 01:39:00,
2013-11-08 18:40:00,37.4,29.9,31.04,SE,144,0.0,5.0,74,0.00,,,0.00,0.00,VWS V14.00,2013-11-09 01:40:00,
2013-11-08 18:41:00,37.3,29.8,31.04,SE,144,2.0,5.0,74,0.00,,,0.00,0.00,VWS V14.00,2013-11-09 01:41:00,
2013-11-08 18:42:00,37.3,29.8,31.04,SE,144,4.0,5.0,74,0.00,,,0.00,0.00,VWS V14.00,2013-11-09 01:42:00,
2013-11-08 18:43:00,37.3,29.8,31.04,SE,144,4.0,5.0,74,0.00,,,0.00,0.00,VWS V14.00,2013-11-09 01:43:00,
2013-11-08 18:44:00,37.3,29.8,31.04,SE,144,5.0,5.0,74,0.00,,,0.00,0.00,VWS V14.00,2013-11-09 01:44:00,
2013-11-08 18:45:00,37.3,29.8,31.04,SE,144,5.0,5.0,74,0.00,,,0.00,0.00,VWS V14.00,2013-11-09 01:45:00,
2013-11-08 18:46:00,37.3,29.8,31.04,SE,144,4.0,6.0,74,0.00,,,0.00,0.00,VWS V14.00,2013-11-09 01:46:00,
2013-11-08 18:47:00,37.3,29.8,31.04,SE,144,3.0,6.0,74,0.00,,,0.00,0.00,VWS V14.00,2013-11-09 01:47:00,
2013-11-08 18:48:00,37.3,29.8,31.04,SE,144,3.0,6.0,74,0.00,,,0.00,0.00,VWS V14.00,2013-11-09 01:48:00,
2013-11-08 18:49:00,37.3,29.8,31.04,SE,144,2.0,6.0,74,0.00,,,0.00,0.00,VWS V14.00,2013-11-09 01:49:00,
2013-11-08 18:50:00,37.3,29.8,31.04,SE,144,3.0,6.0,74,0.00,,,0.00,0.00,VWS V14.00,2013-11-09 01:50:00,
2013-11-08 18:51:00,37.3,29.8,31.04,SE,144,3.0,6.0,74,0.00,,,0.00,0.00,VWS V14.00,2013-11-09 01:51:00,
2013-11-08 18:52:00,37.3,29.8,31.04,SE,144,3.0,6.0,74,0.00,,,0.00,0.00,VWS V14.00,2013-11-09 01:52:00,
2013-11-08 18:53:00,37.4,29.9,31.04,SE,144,4.0,6.0,74,0.00,,,0.00,0.00,VWS V14.00,2013-11-09 01:53:00,
2013-11-08 18:54:00,37.4,29.9,31.04,SE,144,4.0,6.0,74,0.00,,,0.00,0.00,VWS V14.00,2013-11-09 01:54:00,
2013-11-08 18:55:00,37.4,29.9,31.04,SE,144,3.0,6.0,74,0.00,,,0.00,0.00,VWS V14.00,2013-11-09 01:55:00,
2013-11-08 18:56:00,37.4,29.5,31.04,SE,144,2.0,6.0,73,0.00,,,0.00,0.00,VWS V14.00,2013-11-09 01:56:00,
2013-11-08 18:57:00,37.4,29.9,31.04,SE,144,0.0,6.0,74,0.00,,,0.00,0.00,VWS V14.00,2013-11-09 01:57:00,
2013-11-08 18:58:00,37.4,29.9,31.04,SE,144,0.0,6.0,74,0.00,,,0.00,0.00,VWS V14.00,2013-11-09 01:58:00,
2013-11-08 18:59:00,37.5,30.0,31.04,SE,144,0.0,6.0,74,0.00,,,0.00,0.00,VWS V14.00,2013-11-09 01:59:00,
2013-11-08 19:00:00,37.5,30.0,31.03,SE,144,0.0,6.0,74,0.00,,,0.00,0.00,VWS V14.00,2013-11-09 02:00:00,
2013-11-08 19:01:00,37.5,30.0,31.03,SE,144,0.0,0.0,74,0.00,,,0.00,0.00,VWS V14.00,2013-11-09 02:01:00,
2013-11-08 19:02:00,37.5,30.0,31.03,SE,144,0.0,0.0,74,0.00,,,0.00,0.00,VWS V14.00,2013-11-09 02:02:00,
2013-11-08 19:03:00,37.5,30.0,31.03,SE,144,0.0,0.0,74,0.00,,,0.00,0.00,VWS V14.00,2013-11-09 02:03:00,
2013-11-08 19:04:00,37.5,30.0,31.03,SE,144,0.0,0.0,74,0.00,,,0.00,0.00,VWS V14.00,2013-11-09 02:04:00,
2013-11-08 19:05:00,37.5,29.6,31.03,SE,144,0.0,0.0,73,0.00,,,0.00,0.00,VWS V14.00,2013-11-09 02:05:00,
2013-11-08 19:06:00,37.5,30.0,31.04,SE,144,0.0,0.0,74,0.00,,,0.00,0.00,VWS V14.00,2013-11-09 02:06:00,
2013-11-08 19:07:00,37.5,30.0,31.04,SE,144,0.0,0.0,74,0.00,,,0.00,0.00,VWS V14.00,2013-11-09 02:07:00,
2013-11-08 19:08:00,37.5,30.0,31.04,SE,144,0.0,0.0,74,0.00,,,0.00,0.00,VWS V14.00,2013-11-09 02:08:00,
2013-11-08 19:09:00,37.4,29.9,31.04,SE,144,0.0,0.0,74,0.00,,,0.00,0.00,VWS V14.00,2013-11-09 02:09:00,
2013-11-08 19:10:00,37.4,29.9,31.05,SE,144,0.0,0.0,74,0.00,,,0.00,0.00,VWS V14.00,2013-11-09 02:10:00,
2013-11-08 19:11:00,37.4,29.5,31.05,SE,144,0.0,0.0,73,0.00,,,0.00,0.00,VWS V14.00,2013-11-09 02:11:00,
2013-11-08 19:12:00,37.4,29.9,31.05,SE,144,0.0,0.0,74,0.00,,,0.00,0.00,VWS V14.00,2013-11-09 02:12:00,
2013-11-08 19:13:00,37.4,29.9,31.05,SE,144,0.0,0.0,74,0.00,,,0.00,0.00,VWS V14.00,2013-11-09 02:13:00,
2013-11-08 19:14:00,37.4,29.9,31.05,SE,144,0.0,0.0,74,0.00,,,0.00,0.00,VWS V14.00,2013-11-09 02:14:00,
2013-11-08 19:15:00,37.4,29.5,31.05,SE,144,0.0,0.0,73,0.00,,,0.00,0.00,VWS V14.00,2013-11-09 02:15:00,
2013-11-08 19:16:00,37.4,29.5,31.05,SE,144,0.0,0.0,73,0.00,,,0.00,0.00,VWS V14.00,2013-11-09 02:16:00,
2013-11-08 19:17:00,37.4,29.5,31.05,SE,144,0.0,0.0,73,0.00,,,0.00,0.00,VWS V14.00,2013-11-09 02:17:00,
2013-11-08 19:18:00,37.4,29.9,31.04,SE,144,0.0,0.0,74,0.00,,,0.00,0.00,VWS V14.00,2013-11-09 02:18:00,
2013-11-08 19:19:00,37.4,29.9,31.04,SE,144,0.0,0.0,74,0.00,,,0.00,0.00,VWS V14.00,2013-11-09 02:19:00,
2013-11-08 19:20:00,37.4,29.9,31.04,SE,144,0.0,0.0,74,0.00,,,0.00,0.00,VWS V14.00,2013-11-09 02:20:00,
2013-11-08 19:21:00,37.4,29.9,31.04,SE,144,0.0,0.0,74,0.00,,,0.00,0.00,VWS V14.00,2013-11-09 02:21:00,
2013-11-08 19:22:00,37.4,29.9,31.05,SE,144,0.0,0.0,74,0.00,,,0.00,0.00,VWS V14.00,2013-11-09 02:22:00,
2013-11-08 19:23:00,37.4,29.9,31.05,SE,144,0.0,0.0,74,0.00,,,0.00,0.00,VWS V14.00,2013-11-09 02:23:00,
2013-11-08 19:24:00,37.4,29.9,31.05,SE,144,0.0,0.0,74,0.00,,,0.00,0.00,VWS V14.00,2013-11-09 02:24:00,
2013-11-08 19:25:00,37.4,29.9,31.05,SE,144,0.0,0.0,74,0.00,,,0.00,0.00,VWS V14.00,2013-11-09 02:25:00,
2013-11-08 19:26:00,37.4,29.9,31.05,SE,144,0.0,0.0,74,0.00,,,0.00,0.00,VWS V14.00,2013-11-09 02:26:00,
2013-11-08 19:27:00,37.4,30.2,31.05,SE,144,0.0,0.0,75,0.00,,,0.00,0.00,VWS V14.00,2013-11-09 02:27:00,
2013-11-08 19:28:00,37.4,30.2,31.05,SE,144,0.0,0.0,75,0.00,,,0.00,0.00,VWS V14.00,2013-11-09 02:28:00,
2013-11-08 19:29:00,37.4,30.2,31.05,SE,144,0.0,0.0,75,0.00,,,0.00,0.00,VWS V14.00,2013-11-09 02:29:00,
2013-11-08 19:30:00,37.4,30.2,31.05,SE,144,0.0,0.0,75,0.00,,,0.00,0.00,VWS V14.00,2013-11-09 02:30:00,
2013-11-08 19:31:00,37.3,30.1,31.05,SE,144,0.0,0.0,75,0.00,,,0.00,0.00,VWS V14.00,2013-11-09 02:31:00,
2013-11-08 19:32:00,37.3,30.1,31.05,SE,144,0.0,0.0,75,0.00,,,0.00,0.00,VWS V14.00,2013-11-09 02:32:00,
2013-11-08 19:33:00,37.3,30.1,31.05,SE,144,0.0,0.0,75,0.00,,,0.00,0.00,VWS V14.00,2013-11-09 02:33:00,
2013-11-08 19:34:00,37.3,30.1,31.05,SE,144,0.0,0.0,75,0.00,,,0.00,0.00,VWS V14.00,2013-11-09 02:34:00,
2013-11-08 19:35:00,37.3,30.1,31.05,SE,144,0.0,0.0,75,0.00,,,0.00,0.00,VWS V14.00,2013-11-09 02:35:00,
2013-11-08 19:36:00,37.3,29.8,31.05,SE,144,0.0,0.0,74,0.00,,,0.00,0.00,VWS V14.00,2013-11-09 02:36:00,
2013-11-08 19:37:00,37.3,29.8,31.05,SE,144,0.0,0.0,74,0.00,,,0.00,0.00,VWS V14.00,2013-11-09 02:37:00,
2013-11-08 19:38:00,37.3,29.8,31.05,SE,144,0.0,0.0,74,0.00,,,0.00,0.00,VWS V14.00,2013-11-09 02:38:00,
2013-11-08 19:39:00,37.3,29.8,31.05,SE,144,0.0,0.0,74,0.00,,,0.00,0.00,VWS V14.00,2013-11-09 02:39:00,
2013-11-08 19:40:00,37.3,29.8,31.05,SE,144,0.0,0.0,74,0.00,,,0.00,0.00,VWS V14.00,2013-11-09 02:40:00,
2013-11-08 19:41:00,37.3,29.8,31.05,SE,144,0.0,0.0,74,0.00,,,0.00,0.00,VWS V14.00,2013-11-09 02:41:00,
2013-11-08 19:42:00,37.3,29.8,31.05,SE,144,0.0,0.0,74,0.00,,,0.00,0.00,VWS V14.00,2013-11-09 02:42:00,
2013-11-08 19:43:00,37.3,29.8,31.05,SE,144,0.0,0.0,74,0.00,,,0.00,0.00,VWS V14.00,2013-11-09 02:43:00,
2013-11-08 19:44:00,37.3,29.8,31.05,SE,144,0.0,0.0,74,0.00,,,0.00,0.00,VWS V14.00,2013-11-09 02:44:00,
2013-11-08 19:45:00,37.3,29.8,31.05,SE,144,0.0,0.0,74,0.00,,,0.00,0.00,VWS V14.00,2013-11-09 02:45:00,
2013-11-08 19:46:00,37.3,29.8,31.05,SE,144,0.0,1.0,74,0.00,,,0.00,0.00,VWS V14.00,2013-11-09 02:46:00,
2013-11-08 19:47:00,37.3,30.1,31.05,SE,144,0.0,1.0,75,0.00,,,0.00,0.00,VWS V14.00,2013-11-09 02:47:00,
2013-11-08 19:48:00,37.3,30.1,31.05,SE,144,0.0,1.0,75,0.00,,,0.00,0.00,VWS V14.00,2013-11-09 02:48:00,
2013-11-08 19:49:00,37.3,30.1,31.05,SE,144,0.0,1.0,75,0.00,,,0.00,0.00,VWS V14.00,2013-11-09 02:49:00,
2013-11-08 19:50:00,37.3,30.1,31.05,SE,144,0.0,1.0,75,0.00,,,0.00,0.00,VWS V14.00,2013-11-09 02:50:00,
2013-11-08 19:51:00,37.3,30.1,31.05,SE,144,0.0,1.0,75,0.00,,,0.00,0.00,VWS V14.00,2013-11-09 02:51:00,
2013-11-08 19:52:00,37.3,30.1,31.05,SE,144,0.0,1.0,75,0.00,,,0.00,0.00,VWS V14.00,2013-11-09 02:52:00,
2013-11-08 19:53:00,37.3,30.1,31.05,SE,144,0.0,1.0,75,0.00,,,0.00,0.00,VWS V14.00,2013-11-09 02:53:00,
2013-11-08 19:54:00,37.3,30.1,31.05,SE,144,0.0,1.0,75,0.00,,,0.00,0.00,VWS V14.00,2013-11-09 02:54:00,
2013-11-08 19:55:00,37.3,30.1,31.05,SE,144,0.0,1.0,75,0.00,,,0.00,0.00,VWS V14.00,2013-11-09 02:55:00,
2013-11-08 19:56:00,37.3,30.1,31.04,SE,144,0.0,1.0,75,0.00,,,0.00,0.00,VWS V14.00,2013-11-09 02:56:00,
2013-11-08 19:57:00,37.3,30.1,31.05,SE,144,0.0,1.0,75,0.00,,,0.00,0.00,VWS V14.00,2013-11-09 02:57:00,
2013-11-08 19:58:00,37.3,29.8,31.05,SE,144,2.0,2.0,74,0.00,,,0.00,0.00,VWS V14.00,2013-11-09 02:58:00,
2013-11-08 19:59:00,37.3,29.8,31.05,SE,144,1.0,2.0,74,0.00,,,0.00,0.00,VWS V14.00,2013-11-09 02:59:00,
2013-11-08 20:00:00,37.3,29.8,31.05,SE,144,2.0,2.0,74,0.00,,,0.00,0.00,VWS V14.00,2013-11-09 03:00:00,
2013-11-08 20:01:00,37.3,29.8,31.04,SE,144,0.0,2.0,74,0.00,,,0.00,0.00,VWS V14.00,2013-11-09 03:01:00,
2013-11-08 20:02:00,37.4,30.2,31.03,SE,144,0.0,2.0,75,0.00,,,0.00,0.00,VWS V14.00,2013-11-09 03:02:00,
2013-11-08 20:03:00,37.3,30.1,31.04,SE,144,0.0,2.0,75,0.00,,,0.00,0.00,VWS V14.00,2013-11-09 03:03:00,
2013-11-08 20:04:00,37.4,30.2,31.04,SE,144,0.0,2.0,75,0.00,,,0.00,0.00,VWS V14.00,2013-11-09 03:04:00,
2013-11-08 20:05:00,37.4,30.2,31.03,SE,144,0.0,2.0,75,0.00,,,0.00,0.00,VWS V14.00,2013-11-09 03:05:00,
2013-11-08 20:06:00,37.4,30.2,31.04,SE,144,0.0,2.0,75,0.00,,,0.00,0.00,VWS V14.00,2013-11-09 03:06:00,
2013-11-08 20:07:00,37.4,30.2,31.04,SE,144,0.0,2.0,75,0.00,,,0.00,0.00,VWS V14.00,2013-11-09 03:07:00,
2013-11-08 20:08:00,37.4,30.2,31.04,SE,144,0.0,2.0,75,0.00,,,0.00,0.00,VWS V14.00,2013-11-09 03:08:00,
2013-11-08 20:09:00,37.4,30.2,31.04,SE,144,2.0,2.0,75,0.00,,,0.00,0.00,VWS V14.00,2013-11-09 03:09:00,
2013-11-08 20:10:00,37.4,30.2,31.04,SE,144,1.0,2.0,75,0.00,,,0.00,0.00,VWS V14.00,2013-11-09 03:10:00,
2013-11-08 20:11:00,37.3,30.1,31.04,SE,144,2.0,2.0,75,0.00,,,0.00,0.00,VWS V14.00,2013-11-09 03:11:00,
2013-11-08 20:12:00,37.3,30.4,31.04,SE,144,0.0,2.0,76,0.00,,,0.00,0.00,VWS V14.00,2013-11-09 03:12:00,
2013-11-08 20:13:00,37.3,30.4,31.04,SE,144,0.0,2.0,76,0.00,,,0.00,0.00,VWS V14.00,2013-11-09 03:13:00,
2013-11-08 20:14:00,37.3,30.4,31.04,SE,144,0.0,2.0,76,0.00,,,0.00,0.00,VWS V14.00,2013-11-09 03:14:00,
2013-11-08 20:15:00,37.3,30.4,31.04,SE,144,0.0,2.0,76,0.00,,,0.00,0.00,VWS V14.00,2013-11-09 03:15:00,
2013-11-08 20:16:00,37.3,30.4,31.04,SE,144,0.0,0.0,76,0.00,,,0.00,0.00,VWS V14.00,2013-11-09 03:16:00,
2013-11-08 20:17:00,37.3,30.4,31.04,SE,144,0.0,0.0,76,0.00,,,0.00,0.00,VWS V14.00,2013-11-09 03:17:00,
2013-11-08 20:18:00,37.3,30.4,31.04,SE,144,0.0,0.0,76,0.00,,,0.00,0.00,VWS V14.00,2013-11-09 03:18:00,
2013-11-08 20:19:00,37.2,30.4,31.04,SE,144,0.0,0.0,76,0.00,,,0.00,0.00,VWS V14.00,2013-11-09 03:19:00,
2013-11-08 20:20:00,37.2,30.4,31.04,SE,144,0.0,0.0,76,0.00,,,0.00,0.00,VWS V14.00,2013-11-09 03:20:00,
2013-11-08 20:21:00,37.2,30.4,31.04,SE,144,0.0,0.0,76,0.00,,,0.00,0.00,VWS V14.00,2013-11-09 03:21:00,
2013-11-08 20:22:00,37.2,30.0,31.04,SE,144,0.0,0.0,75,0.00,,,0.00,0.00,VWS V14.00,2013-11-09 03:22:00,
2013-11-08 20:23:00,37.2,30.0,31.04,SE,144,0.0,0.0,75,0.00,,,0.00,0.00,VWS V14.00,2013-11-09 03:23:00,
2013-11-08 20:24:00,37.1,29.9,31.04,SE,144,0.0,0.0,75,0.00,,,0.00,0.00,VWS V14.00,2013-11-09 03:24:00,
2013-11-08 20:25:00,37.1,29.9,31.04,SE,144,0.0,0.0,75,0.00,,,0.00,0.00,VWS V14.00,2013-11-09 03:25:00,
2013-11-08 20:26:00,37.1,29.6,31.04,SE,144,0.0,0.0,74,0.00,,,0.00,0.00,VWS V14.00,2013-11-09 03:26:00,
2013-11-08 20:27:00,37.1,29.9,31.04,SE,144,1.0,2.0,75,0.00,,,0.00,0.00,VWS V14.00,2013-11-09 03:27:00,
2013-11-08 20:28:00,37.1,29.9,31.04,SE,144,0.0,2.0,75,0.00,,,0.00,0.00,VWS V14.00,2013-11-09 03:28:00,
2013-11-08 20:29:00,37.1,29.9,31.04,SE,144,0.0,2.0,75,0.00,,,0.00,0.00,VWS V14.00,2013-11-09 03:29:00,
2013-11-08 20:30:00,37.1,30.2,31.04,SE,144,0.0,2.0,76,0.00,,,0.00,0.00,VWS V14.00,2013-11-09 03:30:00,
2013-11-08 20:31:00,37.1,30.2,31.04,SE,144,0.0,0.0,76,0.00,,,0.00,0.00,VWS V14.00,2013-11-09 03:31:00,
2013-11-08 20:32:00,37.1,30.2,31.04,SE,144,0.0,0.0,76,0.00,,,0.00,0.00,VWS V14.00,2013-11-09 03:32:00,
2013-11-08 20:33:00,37.0,30.5,31.04,SE,144,0.0,0.0,77,0.00,,,0.00,0.00,VWS V14.00,2013-11-09 03:33:00,
2013-11-08 20:34:00,37.0,30.5,31.04,SE,144,0.0,0.0,77,0.00,,,0.00,0.00,VWS V14.00,2013-11-09 03:34:00,
2013-11-08 20:35:00,37.0,30.5,31.04,SE,144,0.0,0.0,77,0.00,,,0.00,0.00,VWS V14.00,2013-11-09 03:35:00,
2013-11-08 20:36:00,36.9,30.4,31.04,SE,144,0.0,0.0,77,0.00,,,0.00,0.00,VWS V14.00,2013-11-09 03:36:00,
2013-11-08 20:37:00,36.9,30.4,31.04,SE,144,0.0,0.0,77,0.00,,,0.00,0.00,VWS V14.00,2013-11-09 03:37:00,
2013-11-08 20:38:00,36.9,30.4,31.04,SE,144,0.0,0.0,77,0.00,,,0.00,0.00,VWS V14.00,2013-11-09 03:38:00,
2013-11-08 20:39:00,36.9,30.4,31.04,SE,144,0.0,0.0,77,0.00,,,0.00,0.00,VWS V14.00,2013-11-09 03:39:00,
2013-11-08 20:40:00,36.9,30.4,31.04,SE,144,0.0,0.0,77,0.00,,,0.00,0.00,VWS V14.00,2013-11-09 03:40:00,
2013-11-08 20:41:00,36.8,30.3,31.04,SE,144,0.0,0.0,77,0.00,,,0.00,0.00,VWS V14.00,2013-11-09 03:41:00,
2013-11-08 20:42:00,36.8,30.3,31.04,SE,144,0.0,0.0,77,0.00,,,0.00,0.00,VWS V14.00,2013-11-09 03:42:00,
2013-11-08 20:43:00,36.8,30.3,31.04,SE,144,0.0,0.0,77,0.00,,,0.00,0.00,VWS V14.00,2013-11-09 03:43:00,
2013-11-08 20:44:00,36.8,30.3,31.04,SE,144,0.0,0.0,77,0.00,,,0.00,0.00,VWS V14.00,2013-11-09 03:44:00,
2013-11-08 20:45:00,36.7,30.2,31.04,SE,144,0.0,0.0,77,0.00,,,0.00,0.00,VWS V14.00,2013-11-09 03:45:00,
2013-11-08 20:46:00,36.7,30.2,31.04,SE,144,0.0,0.0,77,0.00,,,0.00,0.00,VWS V14.00,2013-11-09 03:46:00,
2013-11-08 20:47:00,36.7,30.2,31.04,SE,144,0.0,0.0,77,0.00,,,0.00,0.00,VWS V14.00,2013-11-09 03:47:00,
2013-11-08 20:48:00,36.7,30.2,31.04,SE,144,0.0,0.0,77,0.00,,,0.00,0.00,VWS V14.00,2013-11-09 03:48:00,
2013-11-08 20:49:00,36.7,30.2,31.04,SE,144,0.0,0.0,77,0.00,,,0.00,0.00,VWS V14.00,2013-11-09 03:49:00,
2013-11-08 20:50:00,36.7,30.2,31.04,SE,144,0.0,0.0,77,0.00,,,0.00,0.00,VWS V14.00,2013-11-09 03:50:00,
2013-11-08 20:51:00,36.6,30.1,31.04,SE,144,0.0,0.0,77,0.00,,,0.00,0.00,VWS V14.00,2013-11-09 03:51:00,
2013-11-08 20:52:00,36.6,30.1,31.04,SE,144,0.0,0.0,77,0.00,,,0.00,0.00,VWS V14.00,2013-11-09 03:52:00,
2013-11-08 20:53:00,36.6,30.1,31.04,SE,144,0.0,0.0,77,0.00,,,0.00,0.00,VWS V14.00,2013-11-09 03:53:00,
2013-11-08 20:54:00,36.6,30.1,31.04,SE,144,0.0,0.0,77,0.00,,,0.00,0.00,VWS V14.00,2013-11-09 03:54:00,
2013-11-08 20:55:00,36.6,30.1,31.04,SE,144,0.0,0.0,77,0.00,,,0.00,0.00,VWS V14.00,2013-11-09 03:55:00,
2013-11-08 20:56:00,36.6,30.4,31.05,SE,144,0.0,0.0,78,0.00,,,0.00,0.00,VWS V14.00,2013-11-09 03:56:00,
2013-11-08 20:57:00,36.5,30.3,31.05,SE,144,1.0,1.0,78,0.00,,,0.00,0.00,VWS V14.00,2013-11-09 03:57:00,
2013-11-08 20:58:00,36.5,30.3,31.05,SE,144,0.0,1.0,78,0.00,,,0.00,0.00,VWS V14.00,2013-11-09 03:58:00,
2013-11-08 20:59:00,36.5,30.3,31.05,SE,144,0.0,1.0,78,0.00,,,0.00,0.00,VWS V14.00,2013-11-09 03:59:00,
2013-11-08 21:00:00,36.4,30.2,31.05,SE,144,0.0,1.0,78,0.00,,,0.00,0.00,VWS V14.00,2013-11-09 04:00:00,
2013-11-08 21:01:00,36.4,30.2,31.05,SE,144,0.0,0.0,78,0.00,,,0.00,0.00,VWS V14.00,2013-11-09 04:01:00,
2013-11-08 21:02:00,36.3,30.1,31.05,SE,144,0.0,0.0,78,0.00,,,0.00,0.00,VWS V14.00,2013-11-09 04:02:00,
2013-11-08 21:03:00,36.3,30.1,31.05,SE,144,0.0,0.0,78,0.00,,,0.00,0.00,VWS V14.00,2013-11-09 04:03:00,
2013-11-08 21:04:00,36.2,30.0,31.05,SE,144,0.0,0.0,78,0.00,,,0.00,0.00,VWS V14.00,2013-11-09 04:04:00,
2013-11-08 21:05:00,36.2,30.0,31.05,SE,144,0.0,0.0,78,0.00,,,0.00,0.00,VWS V14.00,2013-11-09 04:05:00,
2013-11-08 21:06:00,36.1,29.9,31.05,SE,144,0.0,0.0,78,0.00,,,0.00,0.00,VWS V14.00,2013-11-09 04:06:00,
2013-11-08 21:07:00,36.1,29.9,31.05,SE,144,0.0,0.0,78,0.00,,,0.00,0.00,VWS V14.00,2013-11-09 04:07:00,
2013-11-08 21:08:00,36.1,29.9,31.05,SE,144,0.0,0.0,78,0.00,,,0.00,0.00,VWS V14.00,2013-11-09 04:08:00,
2013-11-08 21:09:00,36.0,29.5,31.05,SE,144,3.0,3.0,77,0.00,,,0.00,0.00,VWS V14.00,2013-11-09 04:09:00,
2013-11-08 21:10:00,36.0,29.5,31.06,SE,144,2.0,4.0,77,0.00,,,0.00,0.00,VWS V14.00,2013-11-09 04:10:00,
2013-11-08 21:11:00,36.0,29.5,31.06,SE,144,0.0,4.0,77,0.00,,,0.00,0.00,VWS V14.00,2013-11-09 04:11:00,
2013-11-08 21:12:00,36.0,29.5,31.05,SE,144,0.0,4.0,77,0.00,,,0.00,0.00,VWS V14.00,2013-11-09 04:12:00,
2013-11-08 21:13:00,35.9,29.4,31.05,SE,144,0.0,4.0,77,0.00,,,0.00,0.00,VWS V14.00,2013-11-09 04:13:00,
2013-11-08 21:14:00,35.9,29.4,31.06,SE,144,1.0,4.0,77,0.00,,,0.00,0.00,VWS V14.00,2013-11-09 04:14:00,
2013-11-08 21:15:00,35.9,29.4,31.05,SE,144,3.0,4.0,77,0.00,,,0.00,0.00,VWS V14.00,2013-11-09 04:15:00,
2013-11-08 21:16:00,35.9,29.1,31.06,SE,144,3.0,4.0,76,0.00,,,0.00,0.00,VWS V14.00,2013-11-09 04:16:00,
2013-11-08 21:17:00,35.9,28.8,31.05,SE,144,4.0,5.0,75,0.00,,,0.00,0.00,VWS V14.00,2013-11-09 04:17:00,
2013-11-08 21:18:00,36.0,28.9,31.05,SE,144,4.0,6.0,75,0.00,,,0.00,0.00,VWS V14.00,2013-11-09 04:18:00,
2013-11-08 21:19:00,36.0,28.9,31.06,SE,144,4.0,6.0,75,0.00,,,0.00,0.00,VWS V14.00,2013-11-09 04:19:00,
2013-11-08 21:20:00,36.1,29.3,31.06,SE,144,4.0,6.0,76,0.00,,,0.00,0.00,VWS V14.00,2013-11-09 04:20:00,
2013-11-08 21:21:00,36.1,29.0,31.05,SE,144,5.0,7.0,75,0.00,,,0.00,0.00,VWS V14.00,2013-11-09 04:21:00,
2013-11-08 21:22:00,36.2,29.0,31.05,SE,144,5.0,7.0,75,0.00,,,0.00,0.00,VWS V14.00,2013-11-09 04:22:00,
2013-11-08 21:23:00,36.2,28.7,31.05,SE,144,4.0,7.0,74,0.00,,,0.00,0.00,VWS V14.00,2013-11-09 04:23:00,
2013-11-08 21:24:00,36.2,28.7,31.05,SE,144,5.0,7.0,74,0.00,,,0.00,0.00,VWS V14.00,2013-11-09 04:24:00,
2013-11-08 21:25:00,36.3,28.8,31.05,SE,144,5.0,7.0,74,0.00,,,0.00,0.00,VWS V14.00,2013-11-09 04:25:00,
2013-11-08 21:26:00,36.3,28.8,31.05,SE,144,5.0,7.0,74,0.00,,,0.00,0.00,VWS V14.00,2013-11-09 04:26:00,
2013-11-08 21:27:00,36.3,28.8,31.05,SE,144,5.0,7.0,74,0.00,,,0.00,0.00,VWS V14.00,2013-11-09 04:27:00,
2013-11-08 21:28:00,36.3,28.8,31.05,SE,144,4.0,7.0,74,0.00,,,0.00,0.00,VWS V14.00,2013-11-09 04:28:00,
2013-11-08 21:29:00,36.4,28.9,31.05,SE,144,5.0,7.0,74,0.00,,,0.00,0.00,VWS V14.00,2013-11-09 04:29:00,
2013-11-08 21:30:00,36.4,28.9,31.05,SE,144,5.0,7.0,74,0.00,,,0.00,0.00,VWS V14.00,2013-11-09 04:30:00,
2013-11-08 21:31:00,36.4,28.6,31.05,SE,144,5.0,6.0,73,0.00,,,0.00,0.00,VWS V14.00,2013-11-09 04:31:00,
2013-11-08 21:32:00,36.4,28.6,31.05,SE,144,3.0,6.0,73,0.00,,,0.00,0.00,VWS V14.00,2013-11-09 04:32:00,
2013-11-08 21:33:00,36.4,28.6,31.05,SE,144,5.0,6.0,73,0.00,,,0.00,0.00,VWS V14.00,2013-11-09 04:33:00,
2013-11-08 21:34:00,36.4,28.6,31.05,SE,144,4.0,6.0,73,0.00,,,0.00,0.00,VWS V14.00,2013-11-09 04:34:00,
2013-11-08 21:35:00,36.5,28.7,31.05,SE,144,5.0,6.0,73,0.00,,,0.00,0.00,VWS V14.00,2013-11-09 04:35:00,
2013-11-08 21:36:00,36.5,28.7,31.05,SE,145,3.0,6.0,73,0.00,,,0.00,0.00,VWS V14.00,2013-11-09 04:36:00,
2013-11-08 21:37:00,36.5,28.7,31.05,SE,145,4.0,6.0,73,0.00,,,0.00,0.00,VWS V14.00,2013-11-09 04:37:00,
2013-11-08 21:38:00,36.5,29.0,31.05,SE,145,3.0,6.0,74,0.00,,,0.00,0.00,VWS V14.00,2013-11-09 04:38:00,
2013-11-08 21:39:00,36.5,28.7,31.05,SE,145,2.0,6.0,73,0.00,,,0.00,0.00,VWS V14.00,2013-11-09 04:39:00,
2013-11-08 21:40:00,36.5,28.7,31.05,SE,145,5.0,6.0,73,0.00,,,0.00,0.00,VWS V14.00,2013-11-09 04:40:00,
2013-11-08 21:41:00,36.5,28.7,31.05,SE,145,3.0,6.0,73,0.00,,,0.00,0.00,VWS V14.00,2013-11-09 04:41:00,
2013-11-08 21:42:00,36.5,28.7,31.05,SE,145,4.0,6.0,73,0.00,,,0.00,0.00,VWS V14.00,2013-11-09 04:42:00,
2013-11-08 21:43:00,36.6,28.4,31.05,SE,145,4.0,6.0,72,0.00,,,0.00,0.00,VWS V14.00,2013-11-09 04:43:00,
2013-11-08 21:44:00,36.6,28.4,31.05,SE,145,2.0,6.0,72,0.00,,,0.00,0.00,VWS V14.00,2013-11-09 04:44:00,
2013-11-08 21:45:00,36.6,28.4,31.05,SE,145,1.0,6.0,72,0.00,,,0.00,0.00,VWS V14.00,2013-11-09 04:45:00,
2013-11-08 21:46:00,36.6,28.4,31.05,SE,146,0.0,3.0,72,0.00,,,0.00,0.00,VWS V14.00,2013-11-09 04:46:00,
2013-11-08 21:47:00,36.6,28.4,31.05,SE,145,0.0,3.0,72,0.00,,,0.00,0.00,VWS V14.00,2013-11-09 04:47:00,
2013-11-08 21:48:00,36.6,28.4,31.05,SE,146,0.0,3.0,72,0.00,,,0.00,0.00,VWS V14.00,2013-11-09 04:48:00,
2013-11-08 21:49:00,36.6,28.4,31.05,SE,146,0.0,3.0,72,0.00,,,0.00,0.00,VWS V14.00,2013-11-09 04:49:00,
2013-11-08 21:50:00,36.7,28.5,31.05,SE,146,0.0,3.0,72,0.00,,,0.00,0.00,VWS V14.00,2013-11-09 04:50:00,
2013-11-08 21:51:00,36.7,28.5,31.05,SE,146,0.0,3.0,72,0.00,,,0.00,0.00,VWS V14.00,2013-11-09 04:51:00,
2013-11-08 21:52:00,36.7,28.5,31.05,SE,146,0.0,3.0,72,0.00,,,0.00,0.00,VWS V14.00,2013-11-09 04:52:00,
2013-11-08 21:53:00,36.7,28.5,31.05,SE,146,0.0,3.0,72,0.00,,,0.00,0.00,VWS V14.00,2013-11-09 04:53:00,
2013-11-08 21:54:00,36.7,28.5,31.06,SE,146,0.0,3.0,72,0.00,,,0.00,0.00,VWS V14.00,2013-11-09 04:54:00,
2013-11-08 21:55:00,36.7,28.5,31.06,SE,145,0.0,3.0,72,0.00,,,0.00,0.00,VWS V14.00,2013-11-09 04:55:00,
2013-11-08 21:56:00,36.7,28.5,31.05,SE,145,1.0,3.0,72,0.00,,,0.00,0.00,VWS V14.00,2013-11-09 04:56:00,
2013-11-08 21:57:00,36.7,28.5,31.06,SSE,147,1.0,4.0,72,0.00,,,0.00,0.00,VWS V14.00,2013-11-09 04:57:00,
2013-11-08 21:58:00,36.7,28.9,31.06,SE,146,0.0,4.0,73,0.00,,,0.00,0.00,VWS V14.00,2013-11-09 04:58:00,
2013-11-08 21:59:00,36.7,29.2,31.06,SSE,147,0.0,4.0,74,0.00,,,0.00,0.00,VWS V14.00,2013-11-09 04:59:00,
2013-11-08 22:00:00,36.7,29.2,31.06,WNW,285,0.0,5.0,74,0.00,,,0.00,0.00,VWS V14.00,2013-11-09 05:00:00,
2013-11-08 22:01:00,36.7,28.9,31.05,SE,134,4.0,4.0,73,0.00,,,0.00,0.00,VWS V14.00,2013-11-09 05:01:00,
2013-11-08 22:02:00,36.7,28.9,31.05,SE,136,1.0,4.0,73,0.00,,,0.00,0.00,VWS V14.00,2013-11-09 05:02:00,
2013-11-08 22:03:00,36.7,28.9,31.05,SSE,161,0.0,4.0,73,0.00,,,0.00,0.00,VWS V14.00,2013-11-09 05:03:00,
2013-11-08 22:04:00,36.7,28.9,31.05,SSE,161,2.0,4.0,73,0.00,,,0.00,0.00,VWS V14.00,2013-11-09 05:04:00,
2013-11-08 22:05:00,36.7,29.2,31.04,SSE,161,0.0,4.0,74,0.00,,,0.00,0.00,VWS V14.00,2013-11-09 05:05:00,
2013-11-08 22:06:00,36.7,29.2,31.05,SSE,161,0.0,4.0,74,0.00,,,0.00,0.00,VWS V14.00,2013-11-09 05:06:00,
2013-11-08 22:07:00,36.7,29.2,31.05,SSE,161,0.0,4.0,74,0.00,,,0.00,0.00,VWS V14.00,2013-11-09 05:07:00,
2013-11-08 22:08:00,36.7,29.2,31.05,SSE,161,1.0,4.0,74,0.00,,,0.00,0.00,VWS V14.00,2013-11-09 05:08:00,
2013-11-08 22:09:00,36.6,29.1,31.05,SSE,161,0.0,4.0,74,0.00,,,0.00,0.00,VWS V14.00,2013-11-09 05:09:00,
2013-11-08 22:10:00,36.6,28.8,31.05,SSE,161,0.0,4.0,73,0.00,,,0.00,0.00,VWS V14.00,2013-11-09 05:10:00,
2013-11-08 22:11:00,36.7,28.9,31.05,SSE,161,0.0,4.0,73,0.00,,,0.00,0.00,VWS V14.00,2013-11-09 05:11:00,
2013-11-08 22:12:00,36.6,28.8,31.05,SSE,161,0.0,4.0,73,0.00,,,0.00,0.00,VWS V14.00,2013-11-09 05:12:00,
2013-11-08 22:13:00,36.6,29.1,31.05,SSE,161,0.0,4.0,74,0.00,,,0.00,0.00,VWS V14.00,2013-11-09 05:13:00,
2013-11-08 22:14:00,36.6,29.1,31.05,SSE,161,3.0,4.0,74,0.00,,,0.00,0.00,VWS V14.00,2013-11-09 05:14:00,
2013-11-08 22:15:00,36.6,29.1,31.05,SSE,154,4.0,5.0,74,0.00,,,0.00,0.00,VWS V14.00,2013-11-09 05:15:00,
2013-11-08 22:16:00,36.6,29.1,31.05,SSE,161,3.0,6.0,74,0.00,,,0.00,0.00,VWS V14.00,2013-11-09 05:16:00,
2013-11-08 22:17:00,36.6,29.4,31.05,SSE,163,3.0,6.0,75,0.00,,,0.00,0.00,VWS V14.00,2013-11-09 05:17:00,
2013-11-08 22:18:00,36.6,29.4,31.05,SSE,155,5.0,6.0,75,0.00,,,0.00,0.00,VWS V14.00,2013-11-09 05:18:00,
2013-11-08 22:19:00,36.6,29.4,31.05,SSE,152,4.0,6.0,75,0.00,,,0.00,0.00,VWS V14.00,2013-11-09 05:19:00,
2013-11-08 22:20:00,36.6,29.4,31.05,SSE,152,4.0,6.0,75,0.00,,,0.00,0.00,VWS V14.00,2013-11-09 05:20:00,
2013-11-08 22:21:00,36.6,29.4,31.05,SSE,152,2.0,6.0,75,0.00,,,0.00,0.00,VWS V14.00,2013-11-09 05:21:00,
2013-11-08 22:22:00,36.7,29.5,31.05,SSE,152,3.0,6.0,75,0.00,,,0.00,0.00,VWS V14.00,2013-11-09 05:22:00,
2013-11-08 22:23:00,36.7,29.5,31.05,SSE,152,3.0,6.0,75,0.00,,,0.00,0.00,VWS V14.00,2013-11-09 05:23:00,
2013-11-08 22:24:00,36.7,29.5,31.05,SSE,152,3.0,6.0,75,0.00,,,0.00,0.00,VWS V14.00,2013-11-09 05:24:00,
2013-11-08 22:25:00,36.7,29.5,31.05,SSE,152,3.0,6.0,75,0.00,,,0.00,0.00,VWS V14.00,2013-11-09 05:25:00,
2013-11-08 22:26:00,36.7,29.5,31.05,SSE,152,4.0,6.0,75,0.00,,,0.00,0.00,VWS V14.00,2013-11-09 05:26:00,
2013-11-08 22:27:00,36.7,29.5,31.05,SSE,152,2.0,6.0,75,0.00,,,0.00,0.00,VWS V14.00,2013-11-09 05:27:00,
2013-11-08 22:28:00,36.7,29.5,31.05,SSE,152,3.0,6.0,75,0.00,,,0.00,0.00,VWS V14.00,2013-11-09 05:28:00,
2013-11-08 22:29:00,36.7,29.5,31.05,SSE,152,2.0,6.0,75,0.00,,,0.00,0.00,VWS V14.00,2013-11-09 05:29:00,
2013-11-08 22:30:00,36.7,29.5,31.06,SSE,152,2.0,6.0,75,0.00,,,0.00,0.00,VWS V14.00,2013-11-09 05:30:00,
2013-11-08 22:31:00,36.7,29.5,31.05,SSE,152,3.0,4.0,75,0.00,,,0.00,0.00,VWS V14.00,2013-11-09 05:31:00,
2013-11-08 22:32:00,36.7,29.5,31.05,SSE,152,3.0,4.0,75,0.00,,,0.00,0.00,VWS V14.00,2013-11-09 05:32:00,
2013-11-08 22:33:00,36.7,29.2,31.05,SSE,152,3.0,4.0,74,0.00,,,0.00,0.00,VWS V14.00,2013-11-09 05:33:00,
2013-11-08 22:34:00,36.7,29.2,31.06,SSE,152,2.0,6.0,74,0.00,,,0.00,0.00,VWS V14.00,2013-11-09 05:34:00,
2013-11-08 22:35:00,36.7,28.9,31.06,SSE,152,2.0,6.0,73,0.00,,,0.00,0.00,VWS V14.00,2013-11-09 05:35:00,
2013-11-08 22:36:00,36.7,28.9,31.06,SSE,152,1.0,6.0,73,0.00,,,0.00,0.00,VWS V14.00,2013-11-09 05:36:00,
2013-11-08 22:37:00,36.7,28.9,31.06,SSE,152,0.0,6.0,73,0.00,,,0.00,0.00,VWS V14.00,2013-11-09 05:37:00,
2013-11-08 22:38:00,36.7,28.9,31.06,SSE,152,0.0,6.0,73,0.00,,,0.00,0.00,VWS V14.00,2013-11-09 05:38:00,
2013-11-08 22:39:00,36.7,28.9,31.06,SSE,152,0.0,6.0,73,0.00,,,0.00,0.00,VWS V14.00,2013-11-09 05:39:00,
2013-11-08 22:40:00,36.7,28.9,31.05,SSE,152,0.0,6.0,73,0.00,,,0.00,0.00,VWS V14.00,2013-11-09 05:40:00,
2013-11-08 22:41:00,36.8,29.0,31.06,SSE,152,0.0,6.0,73,0.00,,,0.00,0.00,VWS V14.00,2013-11-09 05:41:00,
2013-11-08 22:42:00,36.8,29.0,31.06,SSE,152,0.0,6.0,73,0.00,,,0.00,0.00,VWS V14.00,2013-11-09 05:42:00,
2013-11-08 22:43:00,36.8,29.0,31.06,SSE,152,0.0,6.0,73,0.00,,,0.00,0.00,VWS V14.00,2013-11-09 05:43:00,
2013-11-08 22:44:00,36.8,29.0,31.06,SSE,152,0.0,6.0,73,0.00,,,0.00,0.00,VWS V14.00,2013-11-09 05:44:00,
2013-11-08 22:45:00,36.7,28.9,31.06,SSE,152,0.0,6.0,73,0.00,,,0.00,0.00,VWS V14.00,2013-11-09 05:45:00,
2013-11-08 22:46:00,36.7,28.9,31.06,SSE,152,0.0,0.0,73,0.00,,,0.00,0.00,VWS V14.00,2013-11-09 05:46:00,
2013-11-08 22:47:00,36.7,29.2,31.06,SSE,152,0.0,0.0,74,0.00,,,0.00,0.00,VWS V14.00,2013-11-09 05:47:00,
2013-11-08 22:48:00,36.7,29.2,31.06,SSE,152,0.0,0.0,74,0.00,,,0.00,0.00,VWS V14.00,2013-11-09 05:48:00,
2013-11-08 22:49:00,36.7,28.9,31.06,SSE,152,0.0,0.0,73,0.00,,,0.00,0.00,VWS V14.00,2013-11-09 05:49:00,
2013-11-08 22:50:00,36.7,28.9,31.06,SSE,152,0.0,0.0,73,0.00,,,0.00,0.00,VWS V14.00,2013-11-09 05:50:00,
2013-11-08 22:51:00,36.7,29.2,31.06,SSE,152,0.0,0.0,74,0.00,,,0.00,0.00,VWS V14.00,2013-11-09 05:51:00,
2013-11-08 22:52:00,36.6,29.1,31.06,SSE,152,0.0,0.0,74,0.00,,,0.00,0.00,VWS V14.00,2013-11-09 05:52:00,
2013-11-08 22:53:00,36.6,29.1,31.06,SSE,152,0.0,0.0,74,0.00,,,0.00,0.00,VWS V14.00,2013-11-09 05:53:00,
2013-11-08 22:54:00,36.6,29.1,31.06,SSE,152,0.0,0.0,74,0.00,,,0.00,0.00,VWS V14.00,2013-11-09 05:54:00,
2013-11-08 22:55:00,36.6,29.1,31.06,SSE,152,0.0,0.0,74,0.00,,,0.00,0.00,VWS V14.00,2013-11-09 05:55:00,
2013-11-08 22:56:00,36.6,29.1,31.06,SSE,152,0.0,0.0,74,0.00,,,0.00,0.00,VWS V14.00,2013-11-09 05:56:00,
2013-11-08 22:57:00,36.6,29.1,31.06,SSE,152,0.0,0.0,74,0.00,,,0.00,0.00,VWS V14.00,2013-11-09 05:57:00,
2013-11-08 22:58:00,36.5,29.0,31.06,SSE,152,0.0,0.0,74,0.00,,,0.00,0.00,VWS V14.00,2013-11-09 05:58:00,
2013-11-08 22:59:00,36.5,29.0,31.06,SSE,152,0.0,0.0,74,0.00,,,0.00,0.00,VWS V14.00,2013-11-09 05:59:00,
2013-11-08 23:00:00,36.5,28.7,31.06,SSE,152,0.0,0.0,73,0.00,,,0.00,0.00,VWS V14.00,2013-11-09 06:00:00,
2013-11-08 23:01:00,36.5,28.7,31.05,SSE,152,0.0,0.0,73,0.00,,,0.00,0.00,VWS V14.00,2013-11-09 06:01:00,
2013-11-08 23:02:00,36.5,28.7,31.05,SSE,152,0.0,0.0,73,0.00,,,0.00,0.00,VWS V14.00,2013-11-09 06:02:00,
2013-11-08 23:03:00,36.5,28.7,31.05,SSE,152,0.0,0.0,73,0.00,,,0.00,0.00,VWS V14.00,2013-11-09 06:03:00,
2013-11-08 23:04:00,36.5,28.7,31.05,SSE,152,0.0,0.0,73,0.00,,,0.00,0.00,VWS V14.00,2013-11-09 06:04:00,
2013-11-08 23:05:00,36.4,28.6,31.05,SSE,152,0.0,0.0,73,0.00,,,0.00,0.00,VWS V14.00,2013-11-09 06:05:00,
2013-11-08 23:06:00,36.4,28.2,31.06,SSE,152,0.0,0.0,72,0.00,,,0.00,0.00,VWS V14.00,2013-11-09 06:06:00,
2013-11-08 23:07:00,36.4,28.6,31.06,SSE,152,0.0,0.0,73,0.00,,,0.00,0.00,VWS V14.00,2013-11-09 06:07:00,
2013-11-08 23:08:00,36.4,28.2,31.06,SSE,152,0.0,0.0,72,0.00,,,0.00,0.00,VWS V14.00,2013-11-09 06:08:00,
2013-11-08 23:09:00,36.4,28.2,31.06,SSE,152,0.0,0.0,72,0.00,,,0.00,0.00,VWS V14.00,2013-11-09 06:09:00,
2013-11-08 23:10:00,36.4,28.6,31.06,SSE,152,0.0,0.0,73,0.00,,,0.00,0.00,VWS V14.00,2013-11-09 06:10:00,
2013-11-08 23:11:00,36.4,28.6,31.06,SSE,152,0.0,0.0,73,0.00,,,0.00,0.00,VWS V14.00,2013-11-09 06:11:00,
2013-11-08 23:12:00,36.4,28.2,31.06,SSE,152,0.0,0.0,72,0.00,,,0.00,0.00,VWS V14.00,2013-11-09 06:12:00,
2013-11-08 23:13:00,36.4,28.2,31.06,SSE,152,3.0,3.0,72,0.00,,,0.00,0.00,VWS V14.00,2013-11-09 06:13:00,
2013-11-08 23:14:00,36.4,28.2,31.06,SSE,152,1.0,3.0,72,0.00,,,0.00,0.00,VWS V14.00,2013-11-09 06:14:00,
2013-11-08 23:15:00,36.5,28.4,31.06,SSE,152,3.0,4.0,72,0.00,,,0.00,0.00,VWS V14.00,2013-11-09 06:15:00,
2013-11-08 23:16:00,36.5,28.4,31.05,SSE,152,3.0,4.0,72,0.00,,,0.00,0.00,VWS V14.00,2013-11-09 06:16:00,
2013-11-08 23:17:00,36.5,28.4,31.05,SSE,152,4.0,4.0,72,0.00,,,0.00,0.00,VWS V14.00,2013-11-09 06:17:00,
2013-11-08 23:18:00,36.5,28.4,31.05,SSE,152,2.0,4.0,72,0.00,,,0.00,0.00,VWS V14.00,2013-11-09 06:18:00,
2013-11-08 23:19:00,36.6,28.1,31.05,SSE,152,3.0,4.0,71,0.00,,,0.00,0.00,VWS V14.00,2013-11-09 06:19:00,
2013-11-08 23:20:00,36.6,28.1,31.05,SSE,152,3.0,4.0,71,0.00,,,0.00,0.00,VWS V14.00,2013-11-09 06:20:00,
2013-11-08 23:21:00,36.7,28.2,31.05,SSE,152,3.0,4.0,71,0.00,,,0.00,0.00,VWS V14.00,2013-11-09 06:21:00,
2013-11-08 23:22:00,36.7,28.2,31.05,SSE,151,4.0,4.0,71,0.00,,,0.00,0.00,VWS V14.00,2013-11-09 06:22:00,
2013-11-08 23:23:00,36.8,28.0,31.05,SSE,149,5.0,6.0,70,0.00,,,0.00,0.00,VWS V14.00,2013-11-09 06:23:00,
2013-11-08 23:24:00,36.8,28.0,31.05,SSE,149,4.0,6.0,70,0.00,,,0.00,0.00,VWS V14.00,2013-11-09 06:24:00,
2013-11-08 23:25:00,36.9,28.0,31.06,SSE,147,2.0,6.0,70,0.00,,,0.00,0.00,VWS V14.00,2013-11-09 06:25:00,
2013-11-08 23:26:00,37.0,28.1,31.06,SE,146,2.0,6.0,70,0.00,,,0.00,0.00,VWS V14.00,2013-11-09 06:26:00,
2013-11-08 23:27:00,37.0,28.1,31.06,SE,145,4.0,6.0,70,0.00,,,0.00,0.00,VWS V14.00,2013-11-09 06:27:00,
2013-11-08 23:28:00,37.0,28.1,31.06,SE,136,3.0,6.0,70,0.00,,,0.00,0.00,VWS V14.00,2013-11-09 06:28:00,
2013-11-08 23:29:00,37.1,27.9,31.06,SE,134,2.0,6.0,69,0.00,,,0.00,0.00,VWS V14.00,2013-11-09 06:29:00,
2013-11-08 23:30:00,37.1,27.9,31.06,SE,138,3.0,6.0,69,0.00,,,0.00,0.00,VWS V14.00,2013-11-09 06:30:00,
2013-11-08 23:31:00,37.2,28.0,31.06,SE,138,2.0,3.0,69,0.00,,,0.00,0.00,VWS V14.00,2013-11-09 06:31:00,
2013-11-08 23:32:00,37.2,28.0,31.06,SE,138,3.0,3.0,69,0.00,,,0.00,0.00,VWS V14.00,2013-11-09 06:32:00,
2013-11-08 23:33:00,37.3,28.1,31.06,SE,138,2.0,3.0,69,0.00,,,0.00,0.00,VWS V14.00,2013-11-09 06:33:00,
2013-11-08 23:34:00,37.3,28.1,31.06,SE,138,2.0,3.0,69,0.00,,,0.00,0.00,VWS V14.00,2013-11-09 06:34:00,
2013-11-08 23:35:00,37.3,28.1,31.06,SE,140,3.0,4.0,69,0.00,,,0.00,0.00,VWS V14.00,2013-11-09 06:35:00,
2013-11-08 23:36:00,37.3,28.1,31.06,SE,140,3.0,4.0,69,0.00,,,0.00,0.00,VWS V14.00,2013-11-09 06:36:00,
2013-11-08 23:37:00,37.3,28.1,31.06,SE,139,2.0,4.0,69,0.00,,,0.00,0.00,VWS V14.00,2013-11-09 06:37:00,
2013-11-08 23:38:00,37.4,28.2,31.06,SE,140,3.0,6.0,69,0.00,,,0.00,0.00,VWS V14.00,2013-11-09 06:38:00,
2013-11-08 23:39:00,37.4,28.2,31.06,SE,141,4.0,6.0,69,0.00,,,0.00,0.00,VWS V14.00,2013-11-09 06:39:00,
2013-11-08 23:40:00,37.4,28.2,31.06,SE,142,2.0,6.0,69,0.00,,,0.00,0.00,VWS V14.00,2013-11-09 06:40:00,
2013-11-08 23:41:00,37.4,28.2,31.06,SSE,152,3.0,6.0,69,0.00,,,0.00,0.00,VWS V14.00,2013-11-09 06:41:00,
2013-11-08 23:42:00,37.4,28.2,31.06,SSE,152,2.0,6.0,69,0.00,,,0.00,0.00,VWS V14.00,2013-11-09 06:42:00,
2013-11-08 23:43:00,37.4,28.2,31.06,SSE,155,3.0,6.0,69,0.00,,,0.00,0.00,VWS V14.00,2013-11-09 06:43:00,
2013-11-08 23:44:00,37.4,28.2,31.06,SSE,155,2.0,6.0,69,0.00,,,0.00,0.00,VWS V14.00,2013-11-09 06:44:00,
2013-11-08 23:45:00,37.3,28.1,31.06,SSE,155,2.0,6.0,69,0.00,,,0.00,0.00,VWS V14.00,2013-11-09 06:45:00,
2013-11-08 23:46:00,37.3,28.1,31.06,SSE,155,2.0,4.0,69,0.00,,,0.00,0.00,VWS V14.00,2013-11-09 06:46:00,
2013-11-08 23:47:00,37.3,28.1,31.06,SSE,155,1.0,4.0,69,0.00,,,0.00,0.00,VWS V14.00,2013-11-09 06:47:00,
2013-11-08 23:48:00,37.3,28.1,31.06,SSE,157,2.0,5.0,69,0.00,,,0.00,0.00,VWS V14.00,2013-11-09 06:48:00,
2013-11-08 23:49:00,37.2,28.0,31.06,SSE,156,1.0,5.0,69,0.00,,,0.00,0.00,VWS V14.00,2013-11-09 06:49:00,
2013-11-08 23:50:00,37.2,28.0,31.06,SSE,156,2.0,5.0,69,0.00,,,0.00,0.00,VWS V14.00,2013-11-09 06:50:00,
2013-11-08 23:51:00,37.2,28.0,31.06,SSE,155,4.0,5.0,69,0.00,,,0.00,0.00,VWS V14.00,2013-11-09 06:51:00,
2013-11-08 23:52:00,37.1,27.9,31.06,SSE,161,3.0,5.0,69,0.00,,,0.00,0.00,VWS V14.00,2013-11-09 06:52:00,
2013-11-08 23:53:00,37.1,27.9,31.06,SSE,159,3.0,5.0,69,0.00,,,0.00,0.00,VWS V14.00,2013-11-09 06:53:00,
2013-11-08 23:54:00,37.1,27.9,31.06,SSE,157,3.0,5.0,69,0.00,,,0.00,0.00,VWS V14.00,2013-11-09 06:54:00,
2013-11-08 23:55:00,37.1,27.9,31.06,SSE,156,4.0,5.0,69,0.00,,,0.00,0.00,VWS V14.00,2013-11-09 06:55:00,
2013-11-08 23:56:00,37.0,27.8,31.06,SSE,156,4.0,5.0,69,0.00,,,0.00,0.00,VWS V14.00,2013-11-09 06:56:00,
2013-11-08 23:57:00,37.0,27.4,31.06,SSE,157,4.0,7.0,68,0.00,,,0.00,0.00,VWS V14.00,2013-11-09 06:57:00,
2013-11-08 23:58:00,37.0,27.4,31.06,SSE,163,5.0,7.0,68,0.00,,,0.00,0.00,VWS V14.00,2013-11-09 06:58:00,
2013-11-08 23:59:00,37.0,27.8,31.06,SSE,163,3.0,7.0,69,0.00,,,0.00,0.00,VWS V14.00,2013-11-09 06:59:00,